GFSNW_850_spd_000.txt.gz
Wind_Speed
29 30 29 32 33 34 14 2 1 5 26 8 3 4 6 5 5 3 3 3 4 6 7 6 6 7 6 8 10 9 9 4 6 14 4 12 13 11 12 5 5 4 3 16
28 29 31 31 31 28 29 5 5 25 40 3 4 4 3 3 3 4 5 5 5 4 6 3 7 4 7 14 10 10 9 5 3 3 2 4 9 12 15 13 3 8 4 8
27 28 29 31 32 34 16 6 2 14 21 5 8 9 4 3 1 4 4 4 5 4 6 5 3 4 4 18 11 11 15 5 7 8 3 2 6 12 16 16 8 14 17 17
28 28 27 32 32 23 9 3 3 5 5 4 10 5 6 5 2 1 9 4 8 5 4 6 8 7 6 6 13 8 7 6 11 19 19 9 6 10 17 21 19 11 16 19
28 27 28 29 28 21 6 4 4 6 10 14 10 6 6 11 7 3 4 7 7 8 5 7 2 3 6 5 8 9 4 5 5 10 15 18 14 17 16 21 23 24 20 22
28 26 24 26 28 24 8 9 8 12 15 8 9 8 5 7 7 7 10 10 8 9 13 18 21 17 13 6 5 8 2 3 3 6 8 12 11 24 21 14 19 18 17 25
27 25 23 23 23 22 16 8 10 1 5 9 9 11 9 5 5 4 0 9 6 2 5 11 8 16 16 13 12 12 6 3 2 5 4 3 2 4 22 24 12 21 22 11
27 24 24 22 22 21 18 7 5 1 3 9 11 7 5 10 7 2 6 17 17 12 6 3 2 1 3 6 10 14 10 3 3 3 2 5 3 1 4 12 13 17 19 19
25 23 22 21 24 23 19 1 5 9 3 9 10 9 6 3 3 1 4 6 5 8 3 3 3 3 1 4 3 2 5 3 1 4 3 4 3 1 10 7 4 17 20 18
23 22 22 19 22 22 21 5 4 5 3 12 18 6 7 5 3 1 2 2 2 9 3 3 3 2 3 2 2 3 2 2 4 4 3 5 2 3 10 2 5 5 24 22
22 23 23 20 21 18 19 7 7 4 4 9 7 14 11 8 9 3 4 0 3 2 3 3 3 3 4 2 4 4 6 4 3 1 2 3 3 5 3 3 5 4 6 11
21 21 21 20 19 17 19 12 6 5 2 2 10 11 11 12 8 9 7 2 1 4 2 2 2 3 2 3 3 0 2 5 3 6 4 3 3 5 8 9 7 3 8 17
21 20 21 22 18 15 17 18 9 4 0 4 6 9 14 14 14 15 5 5 6 4 4 2 2 3 4 3 4 2 3 3 2 2 2 3 3 2 4 5 2 6 10 21
21 20 22 22 19 15 16 18 7 3 3 2 3 5 9 12 14 16 16 14 8 8 9 3 2 2 3 3 2 3 3 1 2 4 6 7 6 3 2 7 11 19 22 24
22 23 23 21 18 17 20 11 10 8 3 2 1 3 4 6 7 11 15 16 13 6 3 3 3 3 3 1 1 3 5 6 4 4 4 2 1 8 9 15 19 20 25 27
24 24 24 20 16 15 15 1 8 12 9 3 1 1 2 4 6 10 11 8 7 5 3 4 4 3 4 3 3 5 14 9 7 3 3 2 8 13 14 17 18 20 24 27
27 27 25 22 15 14 12 6 9 15 11 2 2 1 1 4 6 5 8 9 6 8 4 4 2 4 3 1 3 5 6 11 11 7 10 7 14 9 16 18 20 23 25 26
30 29 23 16 13 13 16 14 9 8 8 4 1 2 1 7 4 4 5 3 3 5 3 3 1 1 2 4 8 12 8 9 12 17 9 5 14 20 22 22 26 28 28 27
29 22 6 2 5 6 3 5 3 15 5 3 3 3 3 6 2 4 3 2 2 2 2 2 1 2 4 8 8 11 17 13 15 14 9 14 22 27 28 29 31 33 30 26
23 9 4 0 2 7 9 7 7 8 6 5 2 5 3 6 4 1 0 1 1 2 0 2 2 4 20 21 12 6 12 15 18 22 15 20 27 31 32 32 32 31 31 27
16 12 4 17 6 9 4 3 3 5 2 6 7 10 4 8 2 2 2 1 0 1 3 1 2 4 4 14 25 16 11 18 18 13 13 20 27 36 35 33 31 30 28 26
15 14 13 7 2 3 3 3 0 3 5 4 3 5 5 6 3 2 1 2 1 3 3 1 3 4 5 4 6 20 15 20 18 11 10 19 26 33 34 34 33 30 26 24
4 1 3 3 3 2 1 2 1 1 1 7 6 2 6 5 3 3 2 1 3 1 0 4 4 4 6 2 3 16 18 20 18 13 15 20 29 31 32 33 30 27 25 23
4 4 5 1 3 3 3 2 2 4 5 9 13 4 3 4 3 2 3 1 0 2 3 5 3 2 5 4 6 14 21 22 19 17 21 25 31 33 32 30 29 28 27 25
1 2 2 2 5 6 9 10 5 6 6 6 4 5 3 1 3 1 2 1 4 5 5 3 5 7 1 3 8 14 21 22 20 21 25 30 33 34 33 30 27 25 26 25
1 1 3 7 3 5 8 8 9 7 4 8 3 3 3 3 4 3 7 6 6 4 3 6 7 4 2 4 8 14 20 21 21 23 26 32 35 35 34 30 27 25 23 23
2 0 2 2 6 7 8 10 8 10 7 2 2 4 7 2 2 3 4 6 3 4 4 5 5 3 4 7 11 17 20 22 23 26 30 35 35 34 33 32 28 25 22 20

GFSNW_850_spd_003.txt.gz
Wind_Speed
33 32 32 29 31 30 19 17 2 9 11 5 2 2 5 6 4 2 3 4 5 4 6 4 5 6 5 8 11 10 8 4 6 14 8 14 15 12 15 7 5 5 2 13
32 33 31 29 31 27 30 4 3 15 27 3 3 3 4 4 3 2 2 4 4 3 5 4 6 4 6 13 9 9 7 4 4 6 0 3 8 14 16 13 4 15 7 8
30 32 30 30 30 27 19 3 1 7 9 2 6 5 3 4 5 3 3 4 5 4 4 4 3 4 3 17 10 9 14 5 7 10 8 2 5 14 19 14 7 10 18 21
30 32 29 30 33 29 5 6 2 4 3 2 4 4 4 5 3 2 4 3 3 5 4 6 5 5 3 5 12 8 9 8 11 19 22 15 10 13 18 19 22 12 10 15
30 31 28 26 31 35 10 7 3 4 5 12 7 3 3 5 3 4 4 2 8 7 5 6 4 4 5 5 4 8 5 5 4 15 17 19 18 16 18 20 21 21 19 25
30 32 26 25 29 33 10 12 11 1 9 6 4 3 6 7 6 2 3 5 4 8 10 11 15 14 7 4 5 10 4 3 3 10 3 8 7 16 21 18 18 13 17 23
27 31 26 25 25 26 22 17 9 2 3 6 7 8 5 4 5 2 2 6 3 1 6 4 9 11 13 12 13 12 4 3 3 6 6 3 4 3 12 21 21 21 16 12
26 26 25 24 23 23 24 11 4 5 1 6 7 7 5 4 2 2 1 6 8 12 4 3 1 1 2 7 12 11 14 3 3 3 4 6 2 4 1 8 8 21 19 20
25 25 23 24 20 20 21 10 9 5 2 8 11 4 6 3 3 1 3 7 4 4 2 2 3 3 3 3 2 5 8 4 2 3 4 4 3 4 5 3 2 2 21 17
23 24 24 25 21 19 22 8 13 4 5 3 15 6 7 6 4 1 2 2 3 6 1 1 3 3 2 3 3 4 3 3 4 4 4 6 4 2 3 4 5 8 6 13
23 22 21 22 20 15 19 16 9 9 7 5 10 13 10 7 6 3 3 2 2 2 1 2 2 3 4 2 3 4 6 5 4 2 2 5 2 2 1 2 11 8 3 11
23 22 20 21 20 17 15 19 9 8 5 2 5 9 13 13 8 12 8 1 3 2 3 2 2 3 2 3 3 1 2 5 2 6 5 3 6 8 13 14 12 7 2 9
22 22 22 21 20 17 12 16 18 4 3 5 6 11 13 12 13 11 5 4 5 4 5 2 2 4 3 3 4 2 3 3 3 1 2 5 7 8 9 9 5 1 6 16
24 23 23 22 21 17 12 14 15 8 5 3 4 8 10 14 16 15 16 13 7 7 5 3 3 2 4 3 2 3 4 3 2 5 6 8 9 7 4 4 9 14 15 17
25 25 24 23 20 16 14 15 12 10 6 3 2 4 7 8 9 10 12 13 13 8 3 3 3 2 2 1 0 3 6 6 4 4 3 2 4 4 5 9 14 16 21 25
28 26 26 25 20 14 11 1 5 7 6 5 2 1 2 5 6 7 10 10 9 5 4 3 5 5 6 3 3 5 11 10 7 2 1 2 3 8 8 13 16 19 24 27
31 30 29 25 19 11 10 5 4 4 7 4 1 2 2 4 4 4 8 10 7 8 4 4 3 3 5 2 3 5 8 9 12 9 5 3 10 6 12 16 19 23 25 26
34 32 24 13 9 9 12 11 12 4 5 2 1 2 1 6 4 3 6 4 6 7 4 3 2 3 3 4 7 15 12 9 9 12 11 3 9 15 18 20 25 28 28 27
35 22 4 2 4 5 3 9 9 9 7 2 2 3 3 6 2 4 3 4 2 3 2 2 3 3 5 7 7 11 15 14 15 14 9 7 15 22 24 27 29 32 31 27
22 9 3 1 4 3 6 7 6 7 6 5 2 5 2 5 3 2 1 2 1 2 1 3 2 4 20 22 19 14 9 16 14 17 12 15 21 27 29 31 32 32 34 29
20 11 5 13 3 4 4 3 5 4 1 5 6 11 4 7 3 2 3 1 1 2 2 2 2 3 3 6 22 29 12 15 15 14 14 17 22 34 35 32 31 31 29 27
13 13 12 7 4 3 1 2 1 3 5 3 3 6 6 6 5 2 2 1 1 3 3 1 3 4 4 7 6 12 20 13 17 13 9 16 21 31 32 33 31 29 27 25
4 3 3 3 4 3 5 5 2 0 1 4 4 1 5 4 5 3 2 2 3 1 1 3 4 6 10 3 3 8 15 15 17 12 12 17 23 30 31 33 30 28 26 24
3 4 4 2 2 2 2 2 3 5 4 8 4 3 2 3 3 1 3 1 1 2 3 6 3 4 7 3 3 9 16 19 17 14 15 19 27 31 30 30 30 29 27 25
2 2 1 2 3 5 6 10 9 5 6 3 3 1 5 1 3 1 2 1 4 5 5 3 3 5 5 2 4 10 18 20 18 16 19 24 29 31 33 31 29 27 26 26
2 1 2 4 1 4 3 7 9 11 16 2 3 1 1 3 4 4 7 5 6 4 4 5 2 3 1 1 4 9 16 20 20 18 21 27 31 34 35 32 29 26 25 26
1 1 3 4 7 8 3 5 7 15 8 1 0 4 6 2 1 3 5 5 3 6 5 4 1 1 1 2 5 11 16 19 20 22 26 31 34 35 35 34 30 27 25 22

GFSNW_850_spd_006.txt.gz
Wind_Speed
32 31 32 31 30 31 31 15 1 14 13 3 3 2 3 6 7 0 4 9 10 14 14 11 10 9 5 9 13 11 12 5 7 15 13 13 16 16 19 7 8 6 10 20
33 32 31 30 32 29 35 5 1 8 12 2 3 6 3 3 4 2 3 4 3 5 9 6 9 5 3 11 12 12 11 4 4 4 2 6 9 18 20 12 8 17 10 17
31 33 30 30 35 32 10 2 2 5 2 3 8 10 4 4 6 5 8 7 5 6 5 1 7 7 4 12 15 7 11 6 7 10 14 6 7 13 17 16 10 17 20 29
30 32 29 30 36 30 14 1 3 2 3 5 8 4 4 9 4 3 5 3 3 5 4 5 4 6 2 4 9 9 7 6 11 20 22 21 23 23 17 20 26 16 26 21
28 31 29 28 32 30 16 8 4 5 5 9 11 3 4 5 5 4 4 3 7 6 4 5 5 5 6 5 10 11 6 5 3 13 20 22 22 21 17 20 25 26 26 28
27 29 28 27 27 31 12 21 11 2 4 4 6 4 5 5 6 4 5 5 5 7 7 7 11 10 6 3 5 12 5 1 3 8 13 19 8 7 12 8 19 22 20 26
25 26 28 27 24 24 21 15 10 5 2 2 4 5 3 9 6 4 4 3 2 2 5 4 7 11 10 13 14 11 5 3 3 7 11 4 6 6 10 12 17 19 23 23
24 24 25 26 23 22 16 22 9 6 2 5 7 4 5 5 6 2 3 4 4 6 2 2 3 2 3 8 13 16 15 8 3 3 4 10 4 5 4 3 4 5 19 19
22 22 21 23 22 19 17 12 8 4 3 6 9 7 8 6 4 3 3 0 3 1 2 3 3 3 2 2 4 3 9 11 5 1 4 3 3 5 1 1 3 11 11 14
21 22 20 21 21 17 16 14 12 2 3 6 13 8 9 5 5 2 2 2 2 4 2 2 4 3 1 2 3 4 4 2 6 5 5 7 3 4 2 5 6 17 15 2
20 19 18 19 19 17 15 11 12 11 5 10 9 14 7 5 6 3 5 3 2 2 2 3 3 3 2 2 2 4 7 6 5 4 4 4 3 2 3 4 9 7 6 6
19 21 19 18 16 15 11 11 13 15 8 6 7 8 11 13 9 10 8 0 3 5 3 2 2 3 3 2 2 3 4 5 2 5 3 2 3 9 8 8 8 3 2 9
20 19 20 19 18 16 10 12 13 10 6 9 6 9 10 11 10 10 4 4 6 5 4 1 2 4 2 3 4 2 5 5 3 2 3 5 6 5 6 9 4 2 6 13
20 20 21 18 18 17 14 12 8 8 6 4 2 7 9 13 15 14 14 9 6 6 6 4 2 3 2 2 2 3 1 6 5 5 8 10 6 5 4 4 5 10 14 15
21 21 22 18 18 17 16 13 11 12 7 3 4 4 8 10 12 14 15 15 12 5 3 3 3 3 1 2 1 5 6 5 3 2 1 3 3 1 3 7 9 13 19 22
23 23 23 21 20 15 11 2 5 7 9 3 2 2 2 5 7 8 9 11 9 5 3 3 4 8 3 3 4 6 15 11 8 2 0 1 1 5 6 11 12 16 21 22
25 27 26 24 17 13 11 3 12 12 10 3 2 2 1 2 3 3 5 8 6 6 3 4 4 3 5 3 7 4 7 10 11 11 5 2 7 4 10 13 18 20 24 25
30 29 18 5 2 7 11 13 9 6 5 4 1 0 1 6 3 3 6 5 5 6 4 4 2 2 3 5 12 18 15 11 10 12 11 4 9 13 16 18 22 25 26 26
26 10 5 7 4 3 3 9 8 7 5 4 1 2 2 6 3 3 4 2 2 2 2 2 2 3 6 10 12 10 11 9 7 13 11 8 12 18 21 23 26 28 28 27
10 4 3 3 0 3 4 6 4 6 6 5 2 3 1 4 2 1 1 1 1 2 1 4 3 4 20 24 18 14 9 8 11 14 11 14 18 23 25 27 27 28 29 28
9 8 5 6 4 4 4 3 6 6 3 5 3 7 3 7 3 3 1 1 0 2 0 2 2 4 3 5 11 20 25 16 10 15 13 17 18 28 30 29 28 31 31 29
6 6 6 5 3 1 1 1 2 2 2 3 2 2 4 3 3 1 1 1 1 3 3 2 3 4 7 9 8 8 13 17 13 13 6 12 16 26 31 33 30 30 28 28
1 2 2 3 2 2 3 5 2 1 4 5 1 1 4 4 3 2 2 3 3 0 1 4 5 6 12 8 7 4 12 16 13 13 8 13 18 26 29 31 30 30 28 26
3 3 3 2 3 3 3 2 3 5 4 9 3 1 1 1 2 1 2 1 0 2 3 6 3 6 8 8 5 3 12 15 15 14 12 15 20 28 29 30 33 31 30 27
1 0 2 2 2 2 2 5 6 5 9 11 2 2 3 1 1 2 2 2 4 5 5 3 5 6 7 3 3 5 12 16 16 15 15 19 24 29 31 32 32 29 27 27
2 2 2 2 1 1 3 5 6 9 14 4 4 1 2 4 2 3 6 3 5 3 3 6 6 5 4 2 2 5 12 15 15 15 17 21 28 32 34 34 32 30 28 28
2 2 4 2 3 4 2 5 3 12 8 1 1 3 1 1 1 3 4 4 3 12 18 11 8 6 4 2 2 5 12 16 17 18 21 26 30 33 35 36 33 30 28 26

GFSNW_850_spd_009.txt.gz
Wind_Speed
31 31 29 28 30 31 12 5 2 9 10 2 2 0 1 10 10 3 3 4 4 15 18 11 12 9 3 8 11 11 9 2 5 12 12 12 14 15 17 8 8 8 13 21
30 31 29 29 32 24 8 4 3 6 6 2 2 1 2 4 9 6 5 4 2 6 12 6 7 6 6 10 12 11 10 4 3 3 2 8 11 18 17 18 15 21 14 14
28 30 28 29 31 23 8 5 3 4 5 4 6 3 3 5 3 5 4 8 8 10 10 3 9 6 4 11 12 7 8 5 8 8 8 11 8 15 17 15 10 19 22 29
27 30 29 29 30 23 8 3 3 2 3 2 4 5 8 6 3 2 3 4 3 5 4 5 4 6 5 5 9 6 5 5 9 18 22 20 20 23 23 19 18 16 28 23
27 28 29 29 29 19 24 6 4 4 1 8 6 1 7 7 5 2 2 2 6 4 4 1 5 6 7 6 9 11 4 4 2 14 20 21 18 23 18 18 18 15 24 29
25 27 27 28 26 24 12 11 8 2 3 6 5 2 5 4 5 3 4 2 5 4 3 3 3 3 4 1 3 10 4 1 2 6 11 20 9 5 6 7 10 11 12 19
23 24 24 26 23 18 16 12 4 4 2 4 3 3 1 5 4 5 4 3 2 5 3 2 4 6 9 8 8 8 5 4 2 6 13 3 6 2 6 10 15 12 16 18
23 22 22 22 21 17 11 15 4 4 3 5 4 6 4 5 4 5 4 4 4 4 3 2 3 1 2 8 11 12 13 5 2 3 6 17 6 3 2 3 8 9 12 13
21 21 20 21 20 17 11 11 10 3 4 5 2 5 5 3 3 3 3 3 1 2 1 1 2 2 1 4 3 1 10 10 4 2 4 5 5 6 3 2 2 14 9 7
21 21 20 19 17 17 13 7 10 2 3 2 3 6 5 4 5 3 2 1 1 3 3 2 2 3 2 3 5 5 4 2 8 7 4 10 7 4 1 4 7 11 6 2
20 20 20 18 17 15 13 8 10 7 4 12 4 9 6 4 7 3 5 3 1 2 1 1 2 2 1 3 2 5 8 6 4 4 4 6 3 2 4 6 9 7 3 4
18 20 19 20 17 15 14 6 7 11 6 8 7 10 12 8 6 1 5 3 3 2 2 3 1 2 3 4 3 4 5 7 2 6 3 6 9 10 11 7 9 7 4 3
18 19 20 20 19 15 12 12 8 9 5 10 7 8 11 11 12 9 4 2 4 3 2 1 1 5 1 3 6 4 6 5 4 4 3 6 12 8 4 6 5 4 3 6
18 18 20 20 21 14 15 13 10 8 6 3 2 7 10 13 13 13 12 4 5 4 4 3 2 3 5 3 4 5 3 4 4 9 14 11 4 5 2 3 3 6 7 7
19 21 20 21 22 17 19 16 15 14 6 3 5 2 8 11 13 14 13 8 6 4 3 3 3 3 4 6 4 9 9 8 6 6 5 5 5 4 3 5 6 7 11 12
20 23 24 24 22 17 12 5 5 6 16 4 2 0 2 6 8 8 7 7 8 7 4 3 4 7 4 3 5 11 15 20 17 10 1 1 2 1 2 6 9 10 13 13
25 27 29 27 23 16 12 4 8 11 12 3 3 1 2 3 4 3 4 5 4 5 3 4 3 4 5 3 9 7 5 7 9 7 5 3 6 3 6 9 13 15 17 17
29 24 13 5 2 5 11 16 7 7 5 3 2 1 3 6 4 4 5 4 6 6 4 3 3 4 3 5 13 17 18 18 9 9 10 8 6 9 12 13 17 20 19 19
23 5 1 4 3 3 4 6 10 7 4 2 2 3 2 7 3 3 6 3 3 4 2 3 2 3 6 10 7 9 8 7 7 11 10 10 9 13 16 18 18 22 21 21
10 2 1 1 1 5 4 6 4 6 4 4 2 2 2 6 4 4 2 3 2 2 1 3 3 5 23 25 22 14 7 7 9 10 10 14 16 17 20 22 19 21 24 25
6 4 2 3 3 6 4 4 4 5 2 4 3 6 1 3 2 2 1 1 0 2 0 2 2 4 3 3 8 10 14 16 15 8 10 14 13 20 23 22 22 24 26 26
7 4 4 1 2 3 3 2 1 3 1 1 1 3 1 1 1 1 1 1 1 3 3 2 3 4 5 8 15 11 11 11 16 14 11 10 15 19 24 27 27 27 27 27
4 2 2 2 1 1 1 1 1 1 5 8 5 0 0 1 1 1 1 2 2 1 2 3 4 8 13 11 13 11 6 8 13 12 11 10 14 20 27 28 28 30 28 27
1 2 2 2 1 1 1 1 1 2 2 9 5 2 0 1 1 0 1 1 2 2 3 4 3 16 18 17 12 8 2 6 8 9 9 12 16 22 25 28 30 31 29 28
3 2 2 2 1 2 1 1 2 2 4 6 1 2 1 1 1 1 1 1 4 4 3 3 17 25 22 19 15 9 4 7 8 9 10 12 16 23 26 28 31 30 29 29
3 3 2 2 2 2 1 2 2 4 7 1 2 1 1 3 2 3 6 3 5 0 3 16 21 23 20 19 16 11 6 7 9 10 10 13 18 24 27 30 31 29 29 27
3 3 5 3 1 2 0 3 2 5 4 0 0 3 3 1 3 3 4 4 2 9 14 17 21 22 21 20 17 12 7 8 10 11 12 15 20 24 29 33 32 30 28 25

GFSNW_850_spd_012.txt.gz
Wind_Speed
28 30 31 31 32 32 10 5 2 10 7 1 3 2 3 3 2 6 3 2 11 11 14 9 8 10 3 17 14 11 7 2 3 10 8 13 9 8 13 3 6 4 5 14
28 31 33 33 33 28 3 4 5 3 4 1 3 3 4 2 3 4 2 3 4 15 11 6 9 8 6 5 6 10 8 3 2 2 3 7 6 9 10 14 9 16 9 12
29 30 32 33 32 14 6 3 2 3 3 3 1 2 1 4 5 5 8 7 4 6 9 5 7 6 2 8 6 5 13 3 5 3 2 2 4 6 9 9 5 11 21 30
27 29 32 33 27 8 4 4 2 3 2 2 7 3 3 6 4 4 4 2 2 5 6 4 4 7 7 6 4 5 2 3 4 7 13 12 14 17 16 16 18 13 25 25
26 27 29 30 26 13 13 4 4 5 2 15 11 5 1 1 5 5 2 2 5 3 4 6 8 6 6 6 8 5 3 3 3 5 15 16 15 16 18 18 18 18 21 25
24 25 25 27 24 22 10 9 5 3 1 4 2 3 3 3 1 5 9 3 4 6 8 8 6 6 3 3 6 9 5 2 2 4 10 12 6 5 5 9 11 11 11 18
23 24 23 23 23 16 15 16 6 4 2 3 2 3 2 5 7 6 4 5 4 4 2 2 0 1 3 5 5 3 5 4 2 4 9 2 3 6 5 6 12 12 10 14
22 23 23 20 18 18 11 16 8 5 4 3 1 4 3 8 6 6 7 6 4 1 2 2 2 2 2 6 8 9 6 3 2 2 2 8 4 4 2 1 5 6 8 9
20 21 22 21 18 14 12 7 14 4 4 2 9 5 5 2 4 4 4 2 1 2 1 1 1 1 3 4 3 4 8 8 2 1 3 3 3 3 7 3 3 2 5 8
19 19 20 20 20 15 12 5 13 8 5 5 7 2 2 3 2 3 3 3 2 2 1 1 1 2 3 2 5 5 3 3 9 7 3 7 6 4 8 2 4 6 8 8
19 19 20 19 18 16 13 6 8 11 6 16 8 5 6 1 5 3 6 4 1 2 1 1 1 2 3 3 3 5 7 6 3 3 4 7 1 1 2 3 7 7 6 3
18 18 18 19 18 17 14 8 7 9 11 10 8 14 14 7 2 2 9 2 4 2 2 2 1 2 3 5 3 0 3 5 4 6 6 7 9 9 6 4 7 8 2 2
19 18 18 19 15 16 11 13 10 8 7 14 12 8 13 15 11 6 3 3 5 4 2 2 1 3 2 2 4 4 4 6 2 2 4 5 6 6 3 6 5 5 6 5
19 18 19 20 17 16 16 14 10 9 9 5 4 7 9 13 13 11 9 4 7 6 6 3 2 2 4 3 4 3 3 1 4 5 9 7 7 6 4 5 3 6 8 9
20 20 20 21 20 18 18 18 17 15 12 4 7 5 11 12 13 12 11 7 5 4 3 2 3 3 3 4 4 7 6 5 4 4 3 2 2 5 2 0 4 7 11 12
21 22 24 24 22 16 11 6 2 11 18 6 3 1 5 10 11 10 9 7 7 5 4 3 4 5 5 3 4 6 21 23 22 5 3 2 2 3 0 3 6 8 11 11
23 26 22 18 13 11 12 3 2 11 13 5 3 2 6 9 9 8 8 9 4 5 3 4 3 5 8 3 7 11 19 13 16 8 8 4 3 2 3 6 9 11 14 15
25 22 8 6 6 4 6 17 13 4 9 5 2 1 5 9 5 5 7 6 6 6 3 3 3 3 5 5 10 17 21 26 22 13 9 8 5 5 7 9 13 16 17 18
24 4 1 2 4 2 2 2 4 8 5 4 3 3 2 8 3 4 5 4 2 6 3 2 2 2 4 6 10 12 11 7 4 7 13 10 9 9 11 15 16 18 20 20
6 1 1 3 2 1 3 4 3 4 4 4 2 2 2 4 4 4 4 3 0 0 0 0 2 3 18 22 22 21 20 13 11 7 7 11 12 14 16 18 18 19 21 22
6 4 2 2 1 3 3 3 2 3 2 4 4 2 3 3 1 1 3 1 1 1 1 1 2 2 3 14 13 17 15 11 15 15 8 8 14 16 18 20 20 20 21 24
9 7 3 1 2 3 2 3 2 3 1 1 1 2 4 2 2 1 0 2 1 2 2 1 2 1 20 25 25 21 15 11 12 14 12 6 8 10 16 22 22 23 23 23
5 3 2 0 1 3 3 3 1 1 4 6 5 1 1 2 2 3 1 2 3 0 1 2 3 12 24 26 24 21 14 6 4 8 8 7 10 12 17 23 23 24 24 24
1 2 3 3 3 2 1 2 2 2 2 5 2 1 1 1 2 1 2 1 1 2 2 4 2 19 25 23 23 20 16 8 4 2 4 7 12 14 16 20 23 23 26 27
2 2 3 4 1 1 1 1 2 2 3 4 1 1 1 1 2 1 2 1 3 4 3 2 15 23 23 23 23 21 16 10 4 3 3 7 13 17 20 22 25 26 29 28
3 4 3 2 1 3 2 2 2 2 5 2 1 1 2 2 2 2 5 3 5 2 1 12 20 24 24 23 22 19 15 10 7 5 4 6 11 15 19 22 25 28 29 28
3 4 9 3 1 0 3 1 2 3 0 0 2 3 3 1 3 3 4 4 2 4 10 12 20 21 23 23 21 19 15 10 8 7 5 6 10 14 19 24 26 28 28 26

GFSNW_850_spd_015.txt.gz
Wind_Speed
31 32 34 37 32 12 11 12 4 5 5 3 2 2 4 7 3 10 6 4 6 7 6 5 5 8 2 20 14 8 5 4 4 9 5 8 4 6 5 4 4 4 2 9
29 31 34 35 19 11 10 6 5 1 5 2 3 5 3 2 5 5 4 3 4 13 6 6 3 4 3 18 8 9 7 2 0 2 4 3 5 6 6 4 2 12 4 7
28 30 33 32 17 7 5 3 2 3 0 2 1 3 5 6 11 4 6 5 15 6 3 2 7 3 3 5 5 13 13 4 5 5 4 4 3 4 6 9 5 9 18 25
29 28 30 30 20 6 5 6 1 2 3 2 5 2 4 4 5 6 9 6 6 6 3 4 5 5 4 4 4 3 4 2 1 6 8 5 7 10 11 12 17 11 25 21
27 29 27 27 25 8 16 4 5 10 6 1 4 1 2 3 4 7 5 4 9 11 4 1 5 7 4 4 3 3 2 1 0 5 10 8 8 11 13 15 17 20 24 27
24 27 26 24 24 18 10 13 5 3 6 3 2 2 3 3 1 5 6 2 7 8 4 7 8 11 6 9 7 6 5 3 1 4 5 8 5 7 10 6 6 8 10 18
20 23 24 22 19 17 10 14 7 5 4 2 1 2 3 5 3 4 4 11 5 2 1 2 5 5 4 5 6 9 6 4 2 3 5 1 4 5 5 8 8 8 10 13
18 17 21 21 18 13 10 9 6 3 3 5 3 4 4 6 7 3 4 4 3 1 1 2 3 2 2 2 5 6 5 3 1 1 2 6 5 1 3 5 5 4 5 8
16 18 16 19 18 14 8 5 9 3 4 2 8 5 5 3 2 1 2 3 1 1 1 2 3 3 2 3 2 6 7 5 2 2 2 3 3 2 3 4 4 5 6 5
17 16 16 17 17 16 9 2 6 4 5 6 9 3 2 4 3 1 1 3 0 2 1 1 2 2 1 4 6 4 4 3 7 6 4 6 7 4 6 2 4 4 3 2
17 16 15 15 15 17 14 5 6 4 4 23 14 14 6 6 5 4 4 3 2 1 2 2 2 2 2 1 4 6 6 6 3 4 4 7 6 5 4 6 5 6 5 3
15 16 15 16 16 14 16 15 9 8 11 12 13 17 16 14 3 2 8 2 3 5 3 1 1 2 1 2 3 3 2 6 4 7 6 7 7 10 10 7 10 8 5 7
16 16 15 15 16 15 15 18 13 9 9 20 22 20 16 17 13 6 4 3 3 3 4 3 1 3 1 2 4 2 3 8 3 2 6 8 12 3 6 8 9 7 6 8
19 16 15 16 15 16 16 19 15 11 8 5 8 8 12 17 17 12 9 2 6 8 5 3 2 1 4 3 3 2 5 6 2 5 8 5 3 4 6 6 3 2 7 9
20 19 17 18 19 20 20 22 23 19 15 4 10 12 18 16 16 15 11 9 6 4 3 2 3 2 2 3 2 4 5 6 4 5 7 3 3 5 6 5 2 4 8 11
21 19 21 21 16 16 15 5 6 13 20 6 4 5 14 17 14 14 13 11 7 3 3 4 4 4 6 2 3 6 14 18 20 11 12 8 4 4 5 4 4 6 7 8
21 22 21 13 6 7 10 4 2 9 18 5 4 3 8 16 14 11 10 10 5 6 3 3 3 4 8 2 6 7 19 28 26 21 10 6 8 5 4 4 6 9 10 11
24 22 7 2 4 4 2 14 16 5 11 6 3 2 5 16 7 6 9 8 7 6 3 2 3 3 4 3 5 17 19 18 11 12 11 12 7 5 6 6 9 13 15 15
18 4 1 2 1 1 1 2 3 8 7 4 3 0 3 8 5 6 6 6 3 7 3 3 4 2 3 3 12 19 20 14 14 10 7 8 9 9 10 11 14 15 17 17
6 1 2 1 2 1 2 4 3 3 5 5 3 4 2 5 4 4 6 5 2 2 2 3 2 3 3 19 20 21 22 18 12 12 10 10 12 13 14 17 16 15 18 19
6 5 1 3 3 2 2 3 3 3 3 4 5 2 3 2 2 2 1 2 1 1 2 2 2 1 6 22 22 22 20 16 14 15 15 12 12 12 17 18 18 17 17 20
9 5 6 2 1 2 2 2 2 3 2 2 2 4 3 4 3 3 1 2 1 3 1 1 2 1 19 22 24 23 19 17 13 9 12 12 11 9 15 19 20 20 21 21
1 1 2 2 2 3 3 3 2 1 5 5 3 1 2 3 2 3 1 2 3 2 1 2 2 10 21 22 23 22 17 13 8 4 6 9 8 9 15 18 20 20 21 21
0 1 3 3 3 4 2 1 0 1 2 6 4 1 2 2 3 1 2 1 2 1 2 3 2 17 21 20 21 21 20 14 12 8 3 4 7 10 14 16 17 21 24 21
1 2 4 4 4 3 2 1 2 2 2 3 1 2 1 2 1 1 2 1 3 4 4 1 9 15 17 21 22 22 20 15 11 9 6 2 5 8 11 14 15 18 21 20
3 5 3 5 1 2 3 4 3 2 4 1 1 1 1 2 2 2 4 3 5 2 1 3 12 12 15 21 22 20 18 15 12 9 6 4 4 8 11 13 16 21 22 22
4 5 9 10 3 1 3 2 1 3 1 1 0 3 3 0 2 2 2 1 2 3 3 8 12 11 13 19 20 21 19 16 13 11 7 5 5 7 11 15 18 20 20 24

GFSNW_850_spd_018.txt.gz
Wind_Speed
29 29 31 23 13 10 5 8 3 3 8 3 1 2 3 4 2 5 3 3 6 5 4 4 4 8 4 18 8 7 2 4 3 7 2 5 4 6 6 4 4 3 3 7
29 27 27 20 10 12 9 3 2 5 6 3 3 4 1 3 2 4 3 3 4 5 6 5 3 4 4 18 7 8 4 2 2 3 3 2 4 5 5 1 2 6 1 6
29 27 25 22 10 10 7 4 3 4 3 2 2 4 3 4 7 3 4 4 13 4 3 3 4 3 4 9 9 13 8 3 5 5 5 3 3 5 7 7 3 4 12 20
26 26 24 22 15 10 3 5 4 4 4 5 3 2 4 4 6 8 8 4 3 4 4 4 4 3 3 6 7 4 4 4 1 4 7 5 6 7 8 9 15 8 20 17
22 25 25 21 19 6 14 4 4 8 7 6 4 3 2 5 4 6 5 6 3 4 4 3 6 6 3 4 0 3 1 2 1 5 6 7 6 10 12 15 15 18 22 25
20 21 22 21 18 13 8 5 4 3 6 5 3 2 2 3 2 3 6 2 5 9 3 6 6 6 12 8 7 3 5 4 1 5 4 6 5 8 11 5 6 7 7 10
18 18 19 19 16 13 8 11 4 3 3 2 2 2 2 3 3 2 4 7 4 3 3 6 9 13 9 7 4 8 5 4 3 3 5 2 5 2 6 10 7 9 9 13
17 16 16 17 14 11 6 7 4 2 4 4 4 8 1 2 4 2 2 3 4 3 3 3 2 1 2 1 3 5 4 4 0 1 2 6 3 2 3 4 6 5 6 8
13 14 14 14 16 10 4 3 6 2 5 3 5 3 4 4 1 3 1 3 2 2 2 2 4 4 3 3 2 3 5 3 2 2 2 3 4 2 4 4 4 5 7 7
10 15 12 11 12 14 9 3 5 2 5 7 4 4 2 2 3 2 2 4 2 2 2 2 3 2 1 4 6 4 4 3 5 4 3 7 8 4 6 2 4 6 7 7
13 12 14 11 10 11 10 8 7 5 6 21 20 14 6 3 1 3 4 4 1 2 3 3 3 1 2 1 3 5 6 6 3 4 4 7 7 4 3 5 7 6 6 7
18 10 12 13 11 11 11 14 9 8 11 14 16 19 20 18 9 3 5 1 4 7 3 2 2 2 2 2 3 3 4 6 4 7 5 5 6 9 15 15 13 12 7 8
16 15 13 12 11 13 11 16 14 13 10 22 19 26 29 25 21 14 4 4 5 5 3 5 2 1 2 2 5 2 4 6 3 0 5 10 18 18 14 12 13 12 8 9
17 21 14 14 14 12 13 18 17 14 6 6 10 10 12 20 21 21 16 5 7 8 5 3 2 2 4 2 3 2 4 3 4 5 9 14 10 8 9 11 10 8 6 10
19 23 16 14 17 17 16 19 21 20 14 4 14 28 16 22 18 22 15 12 10 6 3 2 3 2 2 2 1 3 5 5 4 5 10 6 10 9 10 12 10 7 8 10
21 18 17 19 16 12 13 4 3 9 21 6 4 7 13 23 20 19 17 13 8 4 4 3 3 3 4 2 3 6 9 12 13 7 14 16 18 12 14 11 9 7 8 9
23 20 20 14 5 6 5 4 4 3 16 4 4 4 10 21 20 16 16 14 5 4 3 3 3 5 7 2 3 2 15 18 26 12 14 12 15 11 9 8 8 7 8 9
20 15 3 2 3 3 1 4 7 3 12 6 3 4 8 20 8 6 7 8 8 6 3 3 3 3 5 3 4 14 14 19 12 15 10 15 14 11 10 9 8 8 10 12
14 3 2 1 1 2 2 2 3 5 6 4 3 3 3 9 8 6 6 6 2 4 2 3 5 2 3 2 10 15 16 13 20 20 13 9 9 10 11 11 11 11 13 14
5 4 2 1 2 2 4 3 2 4 5 6 4 7 2 4 5 3 5 5 2 3 3 6 2 2 7 8 15 15 17 15 14 16 13 12 13 13 13 14 12 12 13 15
4 1 2 4 4 2 2 3 3 4 3 6 6 3 1 4 3 2 4 2 1 2 2 2 2 2 3 17 18 17 15 13 11 13 18 17 15 13 14 16 16 16 16 14
7 5 3 2 0 2 2 2 3 4 3 4 3 4 3 3 3 3 1 2 1 1 2 2 2 1 12 17 19 19 16 13 11 9 8 7 11 12 10 14 17 17 16 11
2 1 1 1 2 3 3 3 2 2 5 6 7 2 4 3 3 4 2 2 2 4 2 3 1 6 14 17 18 18 15 12 10 8 4 3 5 6 6 12 15 17 18 18
2 2 2 3 3 4 1 1 1 3 4 6 5 3 4 3 3 1 2 1 2 2 3 4 0 9 12 16 17 18 18 15 13 11 11 7 4 4 7 10 12 16 17 18
2 3 4 4 5 4 2 4 3 3 5 4 1 1 2 2 1 1 2 2 3 4 4 2 3 6 10 15 19 20 18 16 13 11 9 8 5 4 6 8 10 13 15 19
3 5 3 6 1 2 3 7 5 4 5 2 1 1 1 2 2 1 4 2 4 2 2 3 4 4 7 13 17 19 18 17 14 11 9 7 4 5 6 7 10 13 16 20
4 5 9 13 10 6 4 5 3 3 1 1 1 3 4 1 3 3 3 3 2 10 7 2 3 5 6 13 15 15 17 17 16 13 9 6 5 6 8 10 11 14 18 19

GFSNW_850_spd_021.txt.gz
Wind_Speed
29 24 22 17 16 14 13 9 3 13 14 4 3 2 1 3 4 3 2 4 5 4 4 3 2 6 4 10 9 6 3 4 3 5 1 4 3 5 4 4 3 1 3 7
27 26 20 18 13 15 12 5 6 10 13 4 3 1 1 2 2 2 3 2 3 2 4 4 3 5 3 12 7 8 4 1 2 2 2 2 3 4 4 5 3 5 2 6
25 26 22 18 13 9 7 2 3 6 6 3 2 5 4 5 4 3 3 3 6 4 3 2 6 3 4 15 10 11 6 2 4 5 5 4 2 4 6 6 3 4 9 8
24 23 23 19 15 10 2 3 2 4 3 4 5 3 4 4 6 7 6 4 4 5 3 3 3 2 2 4 5 4 4 3 2 4 6 3 5 5 6 7 11 6 3 9
24 22 21 21 16 6 6 3 2 3 3 9 4 4 4 5 4 5 5 4 3 3 4 4 7 6 3 3 3 3 1 2 2 3 5 5 5 8 10 11 12 14 19 22
23 21 19 19 18 11 6 5 3 1 3 4 3 2 3 4 2 3 6 2 4 6 3 1 6 3 10 6 7 3 4 4 2 4 5 6 6 10 13 5 6 9 7 12
19 20 17 17 15 12 9 10 4 3 3 0 2 5 4 3 3 2 3 3 3 3 6 10 11 14 7 7 2 6 4 4 2 3 4 1 5 2 7 12 7 12 9 12
18 18 16 13 14 12 6 8 4 2 3 5 6 3 3 1 3 2 2 2 4 6 3 3 2 2 2 1 2 3 4 4 2 1 3 7 4 3 5 5 6 6 9 9
17 13 17 11 12 10 7 6 5 2 4 4 4 4 3 2 1 3 0 4 4 5 3 2 3 4 3 3 2 2 4 4 2 2 2 4 3 1 2 4 3 4 9 7
18 13 13 11 10 12 10 4 8 4 5 6 5 4 3 2 3 2 1 3 3 4 2 2 3 3 1 5 5 4 3 2 6 5 3 7 7 6 5 0 4 2 7 11
17 17 12 13 11 9 9 8 8 8 6 18 16 9 5 5 4 3 4 3 1 2 3 3 3 3 3 2 3 5 6 5 3 4 2 7 7 5 4 4 6 8 9 11
15 19 20 14 12 9 12 14 11 10 11 14 18 21 20 23 22 6 4 2 5 7 3 1 2 2 3 3 2 1 4 6 4 7 6 6 8 6 10 16 14 12 11 10
11 17 18 26 13 14 14 17 15 16 16 23 18 23 20 21 30 22 5 5 5 5 4 5 2 2 3 3 4 2 3 6 3 0 4 7 16 21 21 13 11 13 11 9
12 18 21 24 18 13 13 18 19 16 10 6 9 13 18 11 16 22 29 16 4 6 7 3 2 2 4 2 3 3 4 3 3 4 7 16 10 6 6 8 11 12 10 7
13 18 23 21 16 18 19 18 19 19 18 5 16 33 32 24 23 23 23 31 18 9 4 2 3 2 2 2 0 3 5 5 3 4 9 8 17 15 16 14 15 12 9 7
14 21 24 20 18 15 13 6 7 7 20 8 4 11 21 12 27 26 25 27 18 6 4 3 3 3 4 2 2 7 9 5 11 6 23 25 24 22 18 17 14 10 8 8
18 23 24 15 8 9 8 5 7 10 8 4 5 5 6 15 23 21 19 24 9 5 4 4 4 5 7 2 3 3 5 9 16 15 17 11 17 15 11 11 10 9 8 8
21 20 7 1 1 2 5 5 7 4 7 6 3 4 5 20 10 8 11 7 9 6 3 4 3 4 4 3 2 7 13 17 16 10 16 17 17 18 15 12 11 10 9 8
20 7 2 2 3 3 3 4 5 7 9 6 3 2 2 9 8 6 5 5 2 2 2 3 6 3 4 2 3 10 13 12 20 24 22 18 15 11 11 12 14 12 11 11
13 5 4 3 3 5 3 3 3 4 5 6 3 5 4 3 5 3 4 4 3 3 3 6 3 3 10 3 6 9 13 15 15 19 18 14 12 14 13 13 12 12 11 11
7 2 3 5 6 2 3 2 3 3 3 5 6 7 3 5 3 2 3 2 1 3 2 3 2 3 2 7 10 11 12 13 12 13 17 18 19 21 16 14 14 13 12 12
10 9 8 4 2 3 3 2 2 4 3 3 3 5 5 2 4 4 1 2 1 2 2 1 3 2 4 9 12 12 11 10 9 9 11 11 9 9 12 15 12 13 12 13
6 3 2 2 3 4 3 3 2 2 4 5 6 3 3 2 3 2 1 2 2 5 2 3 1 3 7 10 12 11 10 8 8 8 7 7 4 5 7 7 7 9 12 14
2 2 3 3 3 4 3 1 2 3 4 10 11 5 3 3 3 1 2 1 2 2 2 4 1 2 5 8 12 14 14 13 11 11 10 9 5 4 4 3 5 9 13 15
3 3 4 4 6 4 3 3 4 5 8 8 5 4 2 1 1 1 2 2 3 4 4 2 5 4 4 7 12 15 16 16 15 13 12 10 8 5 4 4 6 7 11 13
4 6 3 7 4 3 3 6 7 8 7 6 2 2 1 1 1 2 4 2 4 3 2 6 5 3 1 7 12 13 13 16 15 14 12 11 9 7 5 5 6 7 8 12
4 5 9 12 9 7 5 3 4 4 3 2 1 3 2 0 2 2 3 4 2 8 12 7 4 1 2 7 11 12 12 14 15 15 13 11 9 8 7 5 6 7 8 10

GFSNW_850_spd_024.txt.gz
Wind_Speed
30 29 24 21 20 17 15 6 3 18 12 4 2 3 4 5 4 4 3 3 3 3 3 3 2 7 2 7 8 5 2 4 3 2 0 1 2 4 4 4 3 2 2 6
31 29 28 21 19 16 17 7 5 13 14 4 4 2 2 2 4 3 1 2 2 2 4 4 2 4 1 11 4 6 5 2 3 3 3 3 2 3 3 4 3 5 4 5
31 29 27 23 17 12 10 4 3 6 8 5 2 5 4 4 4 3 3 3 3 4 2 4 4 2 3 11 8 6 5 3 4 5 5 3 3 5 5 5 3 3 5 7
29 30 26 25 18 10 5 5 2 2 3 4 4 3 4 4 4 5 4 3 2 5 3 2 3 2 2 3 2 4 4 3 2 3 5 4 4 4 8 8 5 6 3 6
28 29 25 23 21 8 6 3 3 4 3 5 4 3 4 5 4 4 3 5 4 3 4 5 7 6 3 4 2 4 1 3 2 3 2 5 5 9 9 10 7 12 15 19
25 27 24 23 20 14 6 5 4 3 3 3 2 1 3 5 2 3 5 3 3 4 2 2 6 3 8 6 7 3 4 5 2 4 3 6 5 8 13 5 5 9 8 11
23 22 20 22 17 16 10 10 4 3 3 2 2 4 2 2 3 1 2 4 2 3 7 8 12 12 10 8 4 5 5 4 2 2 4 1 4 3 5 12 4 11 6 9
21 23 16 18 16 14 11 10 5 3 3 5 6 6 5 4 1 1 1 2 2 8 3 3 3 2 1 1 2 4 4 4 2 2 3 7 2 2 5 5 3 8 10 12
19 18 16 17 13 14 14 7 9 2 3 2 5 4 5 2 2 2 2 4 6 5 2 2 3 4 5 3 3 3 4 6 3 3 2 3 3 0 2 2 1 3 9 7
15 18 15 14 16 14 14 8 11 5 4 4 3 3 4 4 3 2 1 4 4 4 2 2 3 3 3 5 6 5 4 3 5 3 3 6 7 4 3 2 4 3 6 11
13 17 17 13 15 11 13 12 10 12 6 16 14 10 6 6 4 2 1 3 2 2 3 3 4 3 5 3 5 5 6 7 4 4 4 7 5 6 4 3 5 11 10 11
11 12 17 13 17 12 12 12 9 11 13 17 24 30 29 24 23 11 5 4 4 9 3 1 2 2 2 3 3 1 4 5 4 7 5 3 2 6 10 17 19 13 12 11
12 9 15 17 16 18 13 15 14 15 16 23 19 5 13 15 29 27 7 6 4 5 5 5 2 2 4 4 4 3 3 6 3 1 4 6 12 19 15 11 8 10 12 11
17 10 12 17 22 18 14 16 17 17 10 6 9 10 14 6 11 17 31 27 6 7 7 3 2 2 4 3 2 3 4 5 4 4 6 11 2 1 8 11 12 14 14 11
21 13 14 19 22 18 19 21 20 16 12 6 19 33 35 22 31 32 22 31 25 14 4 2 3 4 3 1 1 3 6 5 4 4 2 5 12 22 20 20 19 17 14 11
23 12 18 24 24 16 14 5 3 1 10 6 4 10 21 19 15 24 32 34 22 16 5 4 4 4 4 3 2 4 7 5 2 3 8 17 21 25 23 23 19 15 11 10
19 18 24 17 9 6 7 3 6 10 5 4 5 6 8 10 9 15 21 28 13 18 8 3 5 5 8 2 3 3 3 4 8 11 11 13 10 12 14 14 15 12 10 9
16 21 14 5 4 5 6 6 8 8 5 5 3 4 6 7 7 9 16 13 11 5 4 5 4 5 3 4 4 4 5 9 8 5 9 16 23 23 17 15 13 12 12 10
17 17 6 7 5 3 3 7 7 8 7 4 3 3 3 5 2 5 11 2 3 5 1 3 7 3 5 4 6 4 6 7 14 19 20 17 12 14 12 12 12 13 13 12
15 10 2 3 3 7 8 3 2 4 4 6 3 5 3 5 7 3 8 5 2 3 2 7 2 3 4 4 2 4 8 10 13 17 17 19 15 14 12 11 11 12 12 12
8 4 3 5 9 4 3 3 4 4 3 5 6 7 4 9 3 2 3 1 1 2 2 2 1 3 4 1 2 5 8 10 10 12 14 16 18 21 18 15 14 13 13 12
11 10 12 6 2 3 3 2 2 3 3 3 4 6 6 5 4 3 3 2 1 2 4 2 3 1 3 1 3 5 7 7 6 8 12 12 13 13 10 9 12 13 10 11
7 2 2 2 1 3 3 3 3 2 3 6 7 4 6 5 4 4 2 2 2 1 1 3 1 6 4 5 6 5 6 5 5 7 8 9 8 6 5 5 5 4 7 10
3 1 4 3 2 3 3 3 2 5 6 13 15 6 3 3 1 1 2 0 2 2 2 4 2 7 5 6 8 9 11 10 8 8 9 9 9 6 5 2 1 3 7 10
3 2 3 4 6 6 7 8 6 5 9 11 8 6 2 1 1 1 2 2 3 3 4 2 8 9 6 5 6 8 10 12 13 12 11 8 7 6 6 5 4 5 6 8
3 4 3 6 4 5 4 6 7 9 9 9 4 3 2 2 1 2 4 3 4 3 2 9 11 9 6 3 6 7 8 10 12 13 14 13 11 8 6 5 5 5 5 6
4 5 8 13 11 10 9 6 5 7 6 2 2 3 3 0 2 3 2 4 2 8 13 12 10 7 4 0 5 6 8 10 12 12 11 12 12 11 8 6 5 4 4 5

GFSNW_850_spd_027.txt.gz
Wind_Speed
31 30 29 29 26 19 16 5 3 13 11 6 4 2 5 7 5 5 3 4 3 3 2 3 2 5 2 6 6 3 2 4 3 1 1 1 1 3 4 3 4 1 1 4
29 31 29 27 25 20 15 4 3 13 9 3 3 3 4 2 5 4 3 2 1 1 4 4 3 3 1 8 4 6 5 1 3 1 1 1 3 3 3 3 2 5 3 3
29 32 30 25 24 16 11 3 3 5 7 5 2 3 4 4 3 2 2 2 2 3 3 4 4 3 2 7 3 8 5 3 4 4 4 3 3 4 4 4 3 3 5 5
27 31 29 24 22 13 8 4 2 2 2 3 3 2 0 2 4 4 3 3 1 3 3 2 2 2 3 3 5 3 3 3 2 2 3 3 3 4 8 7 4 5 3 5
27 28 27 25 19 13 6 3 3 3 2 5 3 2 2 2 2 1 3 4 1 1 4 5 7 5 2 4 1 3 2 3 2 3 1 4 4 7 8 10 7 9 7 16
23 25 25 25 20 17 7 6 3 2 4 4 1 3 3 2 1 0 2 3 3 3 2 2 4 4 7 7 7 3 5 5 2 3 2 4 5 11 13 6 5 9 8 10
21 21 23 21 19 17 12 9 4 2 2 2 1 4 3 4 5 1 1 2 2 6 9 13 11 12 11 8 3 5 5 4 2 2 2 1 3 3 8 15 5 11 6 8
17 15 19 17 18 16 13 10 4 3 2 3 4 6 4 9 5 2 2 1 3 10 2 3 3 1 1 3 4 2 2 4 2 1 3 6 1 3 6 6 3 11 13 13
16 15 12 15 15 17 14 9 9 2 3 2 3 4 4 3 3 5 2 1 6 6 2 2 4 4 4 3 1 4 4 4 3 3 2 3 4 2 4 3 0 5 10 8
17 15 15 13 13 15 13 9 12 4 3 3 1 3 3 4 3 2 4 2 3 3 2 2 3 4 4 5 7 5 3 2 4 4 3 6 7 4 3 3 3 2 5 9
17 14 11 14 8 13 13 11 12 10 5 14 14 11 8 8 6 2 3 0 2 2 3 3 3 3 5 4 5 6 8 7 4 5 3 7 6 5 5 3 2 8 9 7
18 16 9 14 8 8 13 12 10 13 11 12 25 32 31 28 22 9 5 4 3 8 3 1 2 2 2 5 3 2 4 6 5 7 5 5 6 2 6 12 14 11 7 8
18 20 11 10 14 12 15 12 12 15 10 25 15 3 5 12 19 29 10 6 5 2 2 5 2 3 3 4 5 4 3 6 3 2 3 8 17 11 4 6 3 5 9 12
17 18 18 10 14 17 17 16 14 13 9 5 8 8 9 9 9 22 34 29 7 7 4 4 2 3 5 3 2 3 5 7 5 4 5 6 1 8 6 9 13 14 15 15
18 21 15 11 15 22 21 17 17 15 10 4 13 27 12 7 21 18 16 21 26 15 7 3 3 4 4 0 1 3 7 6 4 4 6 2 6 10 16 19 18 18 18 15
18 20 13 18 23 12 8 3 2 7 2 5 4 9 11 10 8 20 29 32 17 12 7 5 5 5 6 3 4 5 10 8 7 4 2 10 15 15 10 12 13 9 11 12
17 16 18 21 10 7 3 2 2 9 8 3 6 7 6 11 4 8 14 24 15 9 9 5 5 6 10 3 3 6 11 12 8 7 10 11 6 7 17 18 15 13 12 11
18 21 18 11 6 5 3 4 6 7 4 3 3 4 6 6 5 5 9 13 14 10 6 5 3 7 3 3 5 9 9 7 6 8 6 11 19 20 19 15 13 11 11 11
22 19 12 7 3 2 2 5 8 8 5 1 2 3 3 5 5 2 7 8 4 7 3 4 6 2 4 4 7 11 8 4 5 11 14 14 11 14 12 11 10 11 11 12
19 9 3 2 2 6 8 2 1 5 3 5 4 5 3 5 0 0 8 7 2 2 3 8 2 3 3 5 6 7 5 5 7 10 9 13 13 12 11 12 13 13 11 12
10 5 3 6 9 5 1 2 3 3 3 5 7 8 4 5 3 2 2 2 2 1 1 1 2 3 3 6 5 4 5 6 6 8 8 11 14 15 15 14 12 14 13 13
15 10 10 5 3 1 1 2 2 3 2 3 6 7 7 7 5 2 3 2 1 1 2 1 2 1 5 4 3 2 3 4 3 4 7 9 11 11 11 10 7 8 10 10
7 2 3 2 0 2 0 2 2 2 7 6 11 6 5 5 4 1 0 2 2 2 2 3 2 6 6 4 3 3 4 2 2 3 4 6 7 6 7 6 4 2 2 4
3 3 5 1 2 2 1 2 2 5 7 14 17 7 4 3 2 1 1 1 1 0 2 4 3 10 8 6 6 6 7 7 7 5 5 6 6 7 7 5 4 4 3 6
2 1 2 3 5 6 9 11 8 10 11 10 9 8 5 2 2 1 1 1 3 3 3 2 11 13 9 6 5 5 6 7 8 9 10 9 6 4 5 5 4 5 5 7
2 3 2 5 4 5 3 6 8 8 11 13 5 3 3 3 1 2 4 2 4 3 3 8 16 14 10 5 4 3 4 6 8 8 9 10 10 9 8 6 6 5 5 6
4 5 9 12 14 12 8 5 5 9 8 2 3 3 2 2 1 2 2 4 3 3 7 16 14 14 10 5 2 2 4 6 7 8 8 9 9 9 9 8 7 6 5 6

GFSNW_850_spd_030.txt.gz
Wind_Speed
31 33 29 30 29 19 14 4 0 8 7 3 3 2 2 2 2 2 2 2 3 4 3 4 2 3 1 4 3 3 2 4 5 2 2 2 2 3 5 3 4 0 2 3
30 34 32 28 26 19 14 3 2 7 4 3 3 2 2 2 5 4 2 2 1 1 3 2 2 3 2 5 3 4 5 3 5 2 2 2 5 6 3 4 1 5 3 4
31 34 32 27 23 16 9 3 0 4 8 4 2 1 1 1 1 1 1 2 2 3 3 3 4 3 2 1 0 4 3 2 1 3 3 4 5 10 10 5 4 4 5 1
27 31 32 27 21 16 5 4 2 1 1 3 2 1 2 2 2 1 1 1 1 3 3 3 4 3 3 3 5 2 1 2 1 1 2 3 3 7 13 10 7 6 1 6
22 27 28 27 21 16 5 3 2 3 1 2 1 1 1 2 1 2 1 2 4 2 2 1 6 7 5 3 4 3 1 3 1 1 2 6 7 11 12 15 16 14 15 17
19 22 24 26 23 18 8 4 3 2 2 0 2 1 1 2 4 1 2 0 3 3 2 2 0 3 5 6 7 5 5 5 2 1 1 5 7 16 18 11 9 14 11 9
18 20 20 22 24 21 13 9 3 2 1 2 1 2 3 3 5 3 2 1 2 4 12 13 10 11 8 6 4 5 6 4 1 0 2 4 3 3 4 17 12 16 11 12
17 20 16 15 18 20 16 13 5 3 2 2 1 3 3 9 5 2 2 1 1 9 1 2 4 3 3 2 2 3 2 4 2 2 3 7 3 3 6 8 2 16 16 15
16 18 15 13 14 16 16 12 12 4 4 2 0 2 3 2 3 2 0 1 4 5 0 1 3 4 4 4 4 2 3 3 4 3 3 3 3 3 5 4 3 4 13 11
16 17 12 12 14 11 14 11 13 7 4 3 3 3 1 2 1 3 3 2 2 4 3 4 4 3 1 5 7 5 5 3 9 7 5 6 5 3 5 4 4 7 7 8
17 18 15 9 7 7 10 14 11 10 5 13 11 9 6 5 5 3 3 2 3 1 5 3 3 4 5 4 4 6 9 7 5 6 4 8 7 5 4 4 2 2 4 4
17 17 20 5 9 13 8 12 12 12 10 11 21 25 24 22 14 3 3 3 3 3 4 2 2 3 4 5 4 5 7 6 4 8 5 1 8 2 2 6 6 5 4 3
14 16 17 19 12 10 14 11 13 15 10 22 9 4 9 5 16 25 8 5 5 1 1 2 1 5 4 6 6 7 8 9 3 4 8 13 7 9 5 3 3 2 5 9
16 16 19 15 8 12 14 18 15 12 6 5 7 10 10 4 7 11 23 24 5 6 7 4 4 4 7 3 0 6 3 11 9 7 6 3 8 9 6 3 8 11 13 14
14 16 18 14 14 21 18 13 12 12 10 4 12 24 4 4 12 18 17 21 23 12 5 4 4 4 3 1 2 4 9 6 7 4 5 7 3 8 7 11 11 13 15 15
14 14 16 14 20 13 10 2 1 5 8 4 4 6 7 4 3 9 17 14 10 6 6 6 10 4 7 5 4 5 15 11 9 4 8 6 5 9 12 10 10 13 13 12
12 14 18 15 14 8 4 2 2 7 7 4 5 7 3 5 4 4 10 11 7 9 5 6 9 7 10 2 4 3 11 11 11 10 7 7 8 3 6 14 18 16 14 13
14 17 21 10 7 7 6 6 6 6 5 2 2 4 5 6 4 4 7 6 11 12 7 5 6 4 3 4 6 5 9 10 9 10 10 9 10 15 16 15 14 14 13 12
16 19 14 4 2 2 3 7 9 7 5 2 3 3 3 3 6 5 10 8 5 7 4 6 6 3 5 5 8 12 11 7 5 9 9 12 13 13 14 13 12 13 12 12
16 10 2 1 1 7 12 2 2 5 2 3 3 3 3 5 5 8 5 7 3 3 5 6 4 3 2 4 5 11 10 8 6 5 5 7 9 11 11 12 13 15 15 14
8 6 2 4 12 4 1 2 3 3 3 4 6 6 5 7 4 3 9 2 2 3 3 3 4 3 3 7 8 7 6 6 7 7 7 6 9 13 15 14 12 14 14 15
13 7 5 4 3 2 1 2 2 3 2 4 5 9 11 8 6 3 1 1 1 0 2 1 2 1 5 7 6 5 4 5 5 6 5 6 7 10 10 11 10 8 8 10
3 2 2 2 2 2 3 5 2 4 7 5 11 6 5 6 4 2 2 2 1 2 0 2 1 3 5 6 5 3 2 3 4 4 3 4 5 6 7 6 4 3 1 3
3 2 3 1 1 2 3 2 3 6 6 14 16 8 5 5 3 2 1 0 1 1 2 3 2 10 9 7 6 5 5 4 4 2 1 1 3 2 6 8 6 5 3 3
3 1 1 3 3 5 7 9 8 9 11 12 9 8 6 3 3 1 1 2 3 3 3 1 6 13 11 9 8 7 5 5 5 5 5 6 5 5 5 6 6 6 6 6
3 4 2 5 2 4 3 8 9 5 10 13 4 3 3 3 2 2 3 2 4 2 2 3 16 16 12 9 8 6 4 4 4 4 5 6 6 6 6 7 7 7 7 6
3 5 10 10 10 10 7 5 5 7 8 2 3 4 2 4 3 2 2 3 1 3 4 10 16 16 13 9 6 4 3 3 4 4 5 6 6 7 7 7 7 7 7 6

GFSNW_850_spd_033.txt.gz
Wind_Speed
29 31 34 32 27 26 14 3 2 8 5 0 3 3 0 2 1 0 0 1 2 4 4 3 2 3 3 3 3 3 3 5 4 2 3 4 4 5 10 3 4 1 3 3
28 30 33 31 24 22 17 7 4 6 4 1 5 5 3 2 1 1 1 1 2 1 4 3 3 2 3 2 0 2 5 4 5 2 3 3 6 9 6 1 3 4 3 5
24 29 31 31 23 17 9 4 2 1 0 4 1 4 3 3 1 0 1 2 3 5 4 1 6 4 2 1 2 3 1 3 2 1 3 3 6 11 12 8 3 5 8 6
23 26 28 29 22 14 6 4 2 2 2 2 3 2 0 1 1 0 2 3 3 3 4 4 4 6 4 2 2 2 1 2 1 0 3 2 4 8 14 13 11 6 1 7
21 24 27 28 24 14 7 4 5 6 5 5 4 1 2 3 2 2 1 3 3 4 1 1 5 8 6 5 7 5 2 2 1 2 3 6 8 10 11 16 16 16 13 12
18 22 22 23 27 19 8 7 5 3 2 2 4 2 3 4 5 2 1 4 1 4 2 2 1 2 3 3 6 9 6 5 2 1 2 4 9 17 18 15 10 16 14 11
18 20 19 20 21 23 14 14 6 4 1 3 3 4 5 4 5 4 2 3 5 3 5 6 5 5 5 6 4 7 7 5 2 1 3 4 2 3 4 18 13 15 11 10
18 21 17 14 18 18 15 18 9 5 4 8 3 5 4 8 4 2 2 2 2 4 1 3 4 3 4 4 4 7 7 7 2 3 5 10 7 6 5 8 9 18 18 13
17 19 18 9 13 15 13 15 16 4 5 5 6 9 5 4 4 3 1 2 0 2 3 2 3 4 3 4 5 4 6 7 4 2 3 3 4 5 4 5 3 6 16 10
16 18 22 9 11 9 12 12 13 8 4 3 6 3 5 5 3 4 2 2 2 2 3 5 4 5 1 4 5 6 7 7 9 7 4 6 4 7 7 4 5 9 8 7
14 15 16 11 9 9 11 9 10 9 4 15 9 6 7 8 6 4 6 3 5 3 5 4 3 5 6 4 5 6 9 6 6 7 6 7 9 6 4 6 7 4 2 3
14 13 16 16 14 10 7 7 10 12 8 9 19 23 20 17 13 8 5 5 5 7 4 6 3 5 3 8 4 9 6 7 3 7 4 4 7 5 3 1 1 1 3 4
15 16 17 16 12 6 12 11 11 14 9 16 6 2 4 6 9 21 6 3 4 4 6 5 3 6 4 6 9 7 8 10 4 4 8 10 7 8 1 3 4 3 2 3
15 16 17 16 11 10 16 17 12 10 6 5 5 6 9 10 9 11 24 21 9 9 10 4 4 4 7 8 6 8 5 11 10 9 9 2 10 12 10 6 3 4 6 8
15 15 14 15 15 15 14 11 7 8 5 4 11 22 7 6 9 14 14 14 13 12 4 3 3 9 4 4 3 8 9 8 9 5 9 11 3 12 10 6 5 8 10 12
12 13 13 18 19 14 8 2 4 7 1 4 4 6 4 2 3 7 9 10 9 11 8 6 7 12 8 6 11 15 14 19 17 12 5 3 8 6 5 7 7 9 12 13
12 13 15 20 10 7 2 2 4 7 8 2 5 4 3 2 3 2 5 9 6 8 6 10 10 6 12 5 10 6 13 14 11 7 6 5 5 3 5 6 11 16 17 16
13 15 18 15 4 5 3 4 5 6 4 2 3 4 4 5 4 4 6 6 7 8 8 9 11 6 4 5 13 9 6 9 10 8 8 5 6 7 10 14 15 16 16 13
16 17 11 3 2 2 3 9 10 7 3 3 2 3 3 3 5 3 6 7 4 7 6 7 7 5 5 6 10 11 12 10 8 10 7 7 7 8 11 13 13 13 12 13
12 9 3 1 1 10 11 2 0 2 2 4 3 4 3 4 5 5 4 8 3 4 7 9 5 3 14 11 10 4 10 9 9 6 3 5 5 5 8 11 12 13 14 14
10 8 2 5 8 4 2 1 2 2 3 4 5 6 5 7 4 2 7 2 2 3 3 3 3 3 4 11 11 8 8 8 7 6 6 5 5 8 13 14 12 13 13 14
11 4 5 4 3 2 1 1 2 2 2 5 5 10 13 8 6 5 5 3 2 2 1 2 2 2 4 6 6 6 5 5 4 4 5 5 5 10 11 11 12 11 11 10
3 3 3 2 1 1 1 3 0 3 5 3 11 7 6 6 5 6 2 3 2 3 2 2 1 4 5 5 5 4 4 4 5 4 5 3 3 7 6 7 8 8 6 4
2 3 2 2 1 2 2 2 2 4 6 12 14 9 5 5 3 2 3 1 3 2 2 2 2 6 7 6 6 4 4 5 4 4 2 3 4 4 6 4 7 9 9 7
1 2 1 2 4 6 6 8 8 9 13 9 10 8 5 3 4 2 2 2 3 3 2 3 0 7 7 6 6 6 5 6 6 5 3 1 1 2 4 5 7 8 8 8
1 3 3 4 2 4 5 8 9 6 7 10 4 3 3 4 3 3 3 2 2 2 2 5 4 9 8 7 7 5 4 3 3 2 1 2 3 4 5 7 8 8 8 8
3 3 8 7 6 7 5 5 5 6 5 2 3 4 2 5 3 3 2 2 3 8 11 7 5 9 8 7 6 5 3 1 1 2 3 4 5 6 7 8 9 9 9 9

GFSNW_850_spd_036.txt.gz
Wind_Speed
27 30 32 32 29 25 14 4 1 4 6 2 1 1 3 2 1 2 1 3 5 3 3 1 3 7 6 4 4 3 3 4 3 2 5 3 5 5 2 1 3 1 2 2
26 29 31 30 26 22 17 8 4 3 2 1 3 2 3 1 2 1 2 1 3 4 0 1 4 6 1 2 4 2 5 3 3 2 4 4 5 5 8 3 3 3 2 2
25 27 29 30 27 16 9 5 3 1 3 2 5 3 5 4 1 2 2 1 2 2 2 3 3 5 2 2 5 3 2 3 3 3 2 4 5 8 8 5 3 3 4 5
23 26 28 28 26 12 5 5 2 2 3 5 5 3 3 1 2 3 2 3 5 4 3 3 3 5 5 3 3 1 2 2 2 1 4 3 2 5 11 8 6 5 2 6
22 25 26 26 28 11 12 5 4 6 7 5 5 4 2 5 4 4 3 3 1 2 3 3 4 5 4 3 5 3 2 2 2 2 3 2 4 7 7 12 12 11 10 5
21 25 22 24 25 21 10 8 3 3 6 3 3 3 6 4 7 3 3 7 5 2 5 11 10 5 3 4 5 5 4 3 2 1 3 3 7 13 15 10 7 13 11 7
20 23 22 18 22 21 17 15 6 5 3 3 5 5 5 5 6 4 7 7 4 3 3 2 1 2 2 7 3 5 4 3 2 0 2 2 4 3 6 16 11 9 10 6
19 21 25 13 17 17 15 17 8 5 4 10 6 11 5 8 6 3 3 7 3 2 5 0 2 2 2 4 3 4 3 3 2 2 3 7 5 4 4 9 10 13 11 7
18 19 22 14 16 14 15 17 13 4 4 6 8 8 9 3 6 2 3 3 3 1 2 2 3 4 5 4 5 3 4 3 2 3 2 3 3 4 1 4 3 6 15 9
17 14 16 18 17 13 15 11 15 6 3 3 8 4 4 6 5 3 3 5 2 1 2 1 2 3 2 4 5 5 3 3 4 4 4 6 5 8 5 1 1 6 17 12
16 14 15 18 19 14 12 12 13 10 4 13 6 4 4 5 3 3 8 4 2 2 2 2 3 3 4 2 4 6 6 5 3 4 3 6 11 5 1 4 10 9 10 9
16 15 16 18 15 12 10 13 10 14 9 10 19 20 21 17 10 5 5 6 5 6 3 3 3 2 2 3 3 6 4 5 4 7 5 5 10 3 9 6 7 5 9 10
17 16 15 15 14 10 13 18 16 12 9 16 3 3 5 3 5 15 4 2 1 5 7 4 3 4 2 3 5 5 4 4 3 2 4 5 10 8 5 5 7 8 9 8
16 15 13 12 14 14 14 13 10 8 7 4 3 8 8 15 15 9 17 11 5 9 9 3 3 3 6 3 4 2 5 8 5 4 6 1 6 15 13 9 7 6 5 5
16 12 11 13 17 17 11 6 3 4 3 4 10 9 4 9 2 3 4 9 9 4 2 3 3 6 6 6 3 4 5 5 4 4 10 11 3 18 12 13 8 7 6 6
12 11 11 14 19 9 6 2 2 6 8 4 3 6 3 5 3 3 7 8 7 7 4 4 5 12 2 4 7 14 20 16 18 10 2 6 11 12 11 9 8 8 8 9
10 11 14 17 12 4 3 2 7 10 9 1 4 6 4 8 3 2 3 5 6 6 4 6 9 6 4 3 5 9 20 24 21 8 9 7 8 6 8 7 7 8 11 13
13 15 15 9 2 4 4 6 8 10 4 3 2 3 4 3 3 3 4 3 6 6 6 5 5 10 11 5 9 15 24 6 11 10 11 7 10 7 5 7 9 12 14 14
16 13 5 4 3 2 4 11 6 5 2 3 2 3 3 6 5 4 3 6 3 5 3 4 6 4 5 8 18 5 24 7 9 13 9 7 5 4 5 6 8 11 12 11
9 4 3 2 4 10 2 3 3 3 3 1 2 3 3 5 3 4 3 6 3 3 5 7 4 5 21 18 9 3 8 2 8 9 7 6 4 3 2 7 11 12 13 13
5 3 0 4 3 3 3 2 2 1 2 2 4 5 4 9 3 3 5 2 2 2 2 2 3 2 1 17 14 11 8 10 7 5 5 3 4 3 6 9 9 9 12 13
9 2 2 2 2 1 2 1 1 1 2 3 4 8 12 8 6 4 5 3 2 3 3 3 2 1 1 3 6 8 9 7 5 5 4 3 3 4 8 7 7 8 10 11
3 3 1 2 2 4 3 3 3 3 5 3 10 7 6 6 6 6 3 3 3 1 2 2 1 2 1 1 2 3 3 4 5 5 5 6 4 2 5 6 5 7 9 8
3 1 4 2 0 2 2 2 2 3 6 16 16 7 4 5 3 2 4 2 2 2 2 2 3 5 1 1 1 0 1 3 3 4 4 4 3 2 4 7 7 7 7 7
3 1 3 3 1 3 5 5 4 5 10 12 11 8 4 3 4 3 3 3 2 1 2 2 12 6 3 1 2 2 3 4 4 4 3 2 2 2 4 5 7 8 8 8
4 4 1 3 1 2 3 4 3 4 8 9 3 3 3 3 4 3 4 3 1 2 2 13 12 5 2 3 3 2 2 3 3 3 3 3 3 2 4 5 7 8 8 8
4 4 7 6 6 6 3 3 2 5 3 1 2 3 3 5 3 3 2 2 3 12 15 14 10 6 4 4 3 1 1 2 3 4 4 4 4 5 5 6 7 8 8 8

GFSNW_850_spd_039.txt.gz
Wind_Speed
26 28 29 29 29 24 10 2 1 3 5 1 2 2 2 1 1 2 2 1 4 2 3 4 5 3 3 13 14 6 3 4 3 2 5 5 1 6 5 4 4 3 3 5
25 28 27 27 28 20 16 5 4 2 2 2 2 1 1 2 3 2 4 2 2 3 3 3 5 4 3 6 3 5 5 2 4 3 1 4 5 4 4 3 1 4 4 4
26 28 27 25 25 16 9 5 3 1 3 2 2 1 2 2 1 1 2 1 3 2 2 2 3 3 2 3 2 2 2 3 5 6 5 5 5 8 9 5 2 2 4 3
24 28 25 25 25 13 5 8 3 5 2 5 4 2 4 1 1 2 1 2 2 3 2 2 4 3 2 1 1 2 3 3 2 0 3 3 4 7 12 12 5 6 4 8
23 27 25 26 26 15 17 5 6 8 9 8 3 4 5 5 4 5 1 3 1 3 4 3 1 5 3 3 1 3 2 2 3 3 3 3 3 6 7 12 10 7 5 6
22 25 24 23 25 24 14 10 3 4 8 6 2 2 3 6 4 2 5 5 3 5 2 4 3 1 5 8 7 4 3 4 2 3 1 1 6 14 14 7 11 14 11 7
20 23 24 21 21 23 20 18 8 5 3 5 5 8 7 6 5 2 6 9 3 4 8 5 2 6 5 7 4 7 5 4 3 3 2 1 6 2 9 18 9 10 5 7
18 19 21 21 20 18 18 21 11 4 2 9 8 13 4 10 9 3 1 4 4 5 5 2 2 1 1 4 4 2 4 4 2 3 3 6 2 3 5 7 9 12 12 8
18 16 18 19 20 16 14 18 18 4 2 4 8 5 8 3 4 4 2 5 6 2 1 1 3 3 4 3 4 2 1 3 3 3 2 4 2 2 2 3 4 6 19 12
18 16 17 18 18 15 12 12 15 7 3 0 12 3 4 6 4 3 4 8 5 4 2 1 2 2 2 4 6 5 2 1 4 4 2 6 5 3 5 3 4 6 19 22
16 16 18 19 18 14 11 11 10 9 5 10 1 3 6 6 4 1 7 2 4 4 1 2 3 2 3 1 4 6 6 5 4 4 3 6 5 4 3 2 3 6 14 16
15 17 16 16 15 13 14 13 15 7 5 6 13 6 8 13 8 5 4 2 2 3 2 3 3 3 2 3 2 1 3 6 4 7 5 5 15 3 7 8 6 4 10 12
14 16 14 12 14 16 17 14 11 11 6 6 5 5 4 5 4 8 4 0 2 4 6 2 2 4 1 2 5 4 3 7 3 1 2 5 12 12 10 9 8 7 9 11
11 14 12 12 14 18 11 10 6 6 4 2 2 7 14 9 11 7 10 8 2 3 5 2 2 3 5 3 4 2 6 5 6 4 5 5 6 14 14 11 10 11 11 9
10 10 10 12 15 17 8 4 5 7 6 3 9 6 9 5 4 0 7 10 14 6 1 1 3 5 4 4 3 7 5 5 4 5 9 10 10 14 18 15 14 10 9 8
6 9 11 14 17 8 2 2 3 12 10 2 2 5 4 7 4 1 5 6 7 5 4 4 4 5 3 4 4 7 26 25 13 9 13 6 7 11 20 19 13 10 8 8
6 8 12 14 7 3 2 3 7 10 8 2 5 6 4 8 4 3 3 5 4 5 3 4 4 4 5 3 9 14 23 19 23 21 15 12 15 10 15 13 10 9 8 9
10 11 9 6 4 4 4 8 8 7 4 4 2 3 5 6 4 3 2 3 4 5 3 3 4 3 5 5 8 23 35 23 26 14 20 14 14 11 10 8 7 8 9 10
10 7 7 5 4 3 7 7 6 9 6 4 2 2 3 8 4 4 2 4 1 3 3 4 3 2 4 9 16 22 15 8 21 5 5 10 11 9 7 5 5 5 8 10
8 6 6 3 4 5 3 3 3 4 5 4 1 2 3 6 3 4 2 4 2 2 5 5 2 4 23 22 20 6 3 12 16 11 5 8 9 7 6 3 4 6 7 11
6 5 4 4 3 2 2 2 3 3 2 2 2 4 5 7 2 2 4 2 2 3 3 4 3 2 4 14 5 8 4 5 14 6 1 4 6 5 3 3 3 4 7 9
4 4 3 3 3 1 3 2 2 1 2 3 3 6 11 6 5 4 4 3 2 4 8 3 2 2 12 11 9 7 6 5 10 6 5 3 4 2 2 2 2 3 4 6
6 4 3 3 2 5 4 2 4 3 2 3 7 6 3 5 5 5 3 3 3 1 2 2 2 13 12 10 8 7 4 2 5 5 5 6 5 5 5 4 4 4 4 4
3 3 3 3 3 3 4 4 4 3 6 11 13 5 1 3 3 3 4 3 2 2 2 3 3 20 14 10 6 6 5 3 2 3 4 4 3 2 2 4 5 4 4 5
3 3 2 2 2 4 2 3 4 4 7 9 6 5 2 2 3 3 4 3 3 1 5 3 18 18 11 10 8 6 5 3 1 1 2 3 2 0 2 4 5 6 6 6
2 2 2 2 2 3 3 4 5 4 6 4 3 3 2 3 2 3 4 4 3 4 5 17 19 17 11 7 6 7 4 3 2 3 4 2 1 2 4 5 7 8 8 8
2 1 4 6 7 8 5 4 4 4 7 1 1 2 5 4 3 3 3 2 2 11 16 16 17 16 14 9 2 5 5 4 2 2 1 2 4 6 5 5 6 6 7 8

GFSNW_850_spd_042.txt.gz
Wind_Speed
23 23 23 24 23 17 4 3 3 3 3 2 2 2 2 1 0 1 2 2 2 1 2 4 3 5 4 14 9 5 2 4 3 3 3 4 2 6 5 3 4 3 3 6
23 22 21 24 20 16 8 3 2 2 3 2 3 1 1 1 2 2 3 2 3 2 2 4 3 3 5 13 7 7 6 1 3 2 1 2 6 5 3 4 3 6 5 5
21 23 21 21 19 13 7 2 2 1 1 1 3 1 1 1 1 1 2 2 3 3 3 4 3 2 3 4 4 6 5 3 5 5 4 5 6 11 8 6 4 4 6 4
19 22 20 20 20 15 3 4 2 4 2 3 3 3 1 2 1 3 1 2 0 1 1 2 3 2 2 3 2 3 4 4 3 1 2 3 3 11 16 13 16 9 11 11
19 20 20 21 20 15 17 4 4 5 7 9 4 5 6 4 3 4 2 2 5 4 4 2 3 4 2 3 1 2 2 1 2 3 2 1 3 6 14 18 13 12 4 7
16 17 19 21 23 21 11 8 3 1 9 6 2 4 4 4 5 3 6 3 2 5 2 4 4 3 6 6 6 3 2 4 3 3 1 2 6 15 13 10 10 16 13 16
13 15 18 19 20 20 21 17 6 4 2 3 4 7 7 7 5 2 5 9 3 3 7 2 1 5 7 8 3 6 4 4 2 2 2 1 6 2 9 17 8 16 8 7
12 14 17 18 17 16 16 18 10 4 1 5 4 12 5 8 8 2 2 7 7 7 5 3 3 4 1 3 5 4 4 4 2 3 3 7 4 3 6 7 9 16 18 10
13 14 15 17 14 15 13 15 14 5 2 3 5 5 6 3 4 5 4 5 7 5 2 2 3 3 4 2 3 4 4 3 3 2 2 4 2 0 3 4 5 3 18 11
14 13 14 15 15 14 13 13 14 7 3 1 8 4 3 5 3 3 4 10 7 7 2 1 2 3 4 4 6 4 3 1 4 4 3 6 6 3 4 2 4 9 11 21
12 15 13 13 14 13 13 12 12 7 2 4 3 5 7 7 4 2 9 2 3 4 1 1 2 1 3 1 4 6 6 5 4 3 3 7 3 2 4 3 3 5 4 20
10 11 11 9 12 13 13 9 9 7 3 2 5 7 6 8 6 3 6 3 4 4 2 2 2 2 1 1 3 1 2 6 4 7 5 5 7 7 8 6 3 2 4 11
7 9 8 8 11 15 11 7 9 8 5 4 7 7 10 5 3 5 3 1 2 2 4 2 2 4 3 2 4 3 3 5 3 2 4 8 11 16 12 9 7 4 4 8
5 8 7 8 11 15 8 7 9 11 5 3 2 8 6 6 6 5 5 7 1 2 3 2 2 2 2 3 3 2 5 1 3 5 5 7 13 12 15 14 11 8 8 8
7 7 5 7 11 10 4 6 7 12 4 2 2 3 9 9 7 4 2 6 11 6 3 1 2 4 4 4 2 8 8 6 4 5 8 10 15 15 18 17 14 11 11 10
5 7 9 10 7 2 1 2 2 10 6 3 2 1 2 7 6 4 1 1 3 2 2 4 4 3 2 2 3 8 11 23 7 6 19 20 22 9 12 20 16 14 11 10
6 8 9 6 6 4 3 3 6 6 2 2 1 3 2 5 4 2 1 4 2 3 3 4 3 3 4 2 3 9 23 30 32 24 24 16 17 12 12 21 17 14 11 10
5 4 7 9 7 5 6 10 6 4 1 2 2 3 4 5 3 1 2 3 3 4 3 3 3 3 3 4 14 23 25 26 26 14 20 22 26 16 16 16 14 11 10 10
3 6 7 5 4 4 5 5 8 8 3 2 3 1 3 7 3 3 2 3 2 3 3 3 2 2 3 8 16 23 24 20 9 11 18 12 12 15 13 11 9 8 7 8
6 7 2 1 3 3 3 4 5 5 5 4 3 2 3 5 3 3 1 4 2 2 4 4 2 3 18 17 21 17 16 12 15 17 20 20 12 8 9 7 6 6 7 8
2 3 2 3 4 3 3 3 4 5 4 4 3 4 4 5 2 2 2 1 2 2 2 2 2 2 6 20 19 14 9 8 9 11 15 8 7 11 6 4 4 4 5 6
4 6 6 3 2 3 5 2 4 2 2 5 3 5 6 5 4 4 3 2 2 4 8 2 1 4 22 22 21 17 15 11 9 7 11 6 4 3 2 1 1 2 3 4
7 4 2 2 3 7 5 2 4 3 5 4 9 7 4 3 3 5 3 3 3 8 3 2 2 21 28 25 20 19 16 12 8 7 5 5 3 3 4 4 1 2 3 4
4 2 4 3 3 1 4 4 4 1 4 12 13 4 3 3 2 3 3 3 3 2 5 3 5 22 31 26 18 16 16 14 10 7 4 3 3 4 3 3 2 3 5 5
4 3 1 1 1 2 1 3 3 1 5 9 6 5 2 3 3 2 3 3 2 5 1 3 18 24 24 24 19 13 13 11 11 9 5 2 1 0 2 3 4 5 5 5
4 4 3 3 1 1 2 4 3 1 4 4 1 2 3 3 3 3 4 3 3 3 3 15 19 22 20 21 19 13 9 10 8 5 5 5 4 3 3 4 6 5 5 5
5 4 4 4 4 6 5 3 2 2 3 1 3 2 6 4 3 3 3 3 3 5 11 15 19 24 25 22 20 18 13 8 7 7 7 7 6 6 4 7 7 6 6 6

GFSNW_850_spd_045.txt.gz
Wind_Speed
19 21 20 21 19 14 2 3 3 3 5 3 0 1 3 2 2 1 2 1 3 2 3 5 4 7 4 13 11 7 3 4 2 3 1 2 1 4 5 4 4 2 2 6
17 20 20 19 16 12 1 2 3 2 2 2 2 5 3 2 4 3 3 3 3 2 2 4 2 3 2 17 7 7 6 2 4 4 1 2 5 5 3 3 3 6 4 5
17 17 17 20 16 10 3 2 1 1 2 1 1 3 3 2 3 3 3 2 3 2 3 5 3 3 3 5 1 3 4 3 5 6 4 4 8 12 10 6 4 6 12 7
16 15 17 21 16 11 2 2 2 2 1 1 2 1 5 3 2 6 6 3 4 1 2 2 3 3 3 4 7 4 3 5 4 4 3 4 5 9 19 17 19 10 10 12
13 15 17 19 21 8 6 3 2 1 1 3 1 5 5 6 4 6 4 3 5 3 3 2 5 5 3 3 2 3 1 2 2 3 2 4 4 8 15 20 19 18 10 15
11 13 17 19 20 16 8 5 4 1 6 4 1 2 2 4 5 3 7 7 2 4 2 4 3 4 4 6 7 3 3 4 2 3 4 4 6 12 14 10 11 17 12 27
10 12 15 17 18 19 16 9 3 1 2 3 3 5 4 4 3 2 5 11 4 5 9 1 3 6 6 7 3 5 5 4 2 2 3 2 6 2 6 14 11 15 13 4
9 12 14 14 14 14 15 14 5 3 2 3 4 9 5 5 6 3 2 7 8 9 5 3 3 4 2 2 4 4 3 4 2 3 3 7 5 1 4 5 7 14 18 17
9 12 13 12 12 13 12 14 10 4 5 3 4 4 6 3 4 4 4 4 8 6 3 3 1 3 3 2 2 2 4 4 4 1 1 4 4 3 3 3 5 2 8 14
7 11 10 11 12 12 11 12 10 3 5 4 6 5 3 3 3 1 3 10 7 10 3 2 1 3 2 3 5 3 3 2 4 4 3 7 6 4 4 1 5 11 9 14
9 10 10 9 10 13 10 11 12 6 5 6 6 6 3 3 3 2 7 2 5 5 3 1 1 1 2 1 2 4 6 4 3 3 3 7 3 2 4 5 9 11 14 13
4 6 6 6 9 13 9 8 12 9 7 5 7 10 12 1 2 3 5 2 2 3 2 3 2 2 2 0 2 1 2 5 4 7 5 6 5 11 11 11 11 11 12 8
3 5 4 6 10 12 9 9 13 10 10 9 4 5 5 5 2 2 1 2 2 2 3 0 1 2 1 2 4 3 3 2 3 1 4 9 19 16 17 18 14 10 8 5
5 5 5 5 9 9 7 9 15 8 6 3 3 6 5 6 3 2 3 4 1 2 3 3 1 2 4 2 4 2 3 4 2 6 8 16 18 16 18 17 14 12 7 4
6 6 5 6 8 6 5 6 14 12 4 2 1 2 5 7 6 5 1 4 6 3 2 1 2 3 3 3 3 3 3 3 2 7 8 9 14 22 27 20 19 13 10 8
7 7 6 7 10 7 4 4 6 10 3 1 1 2 2 6 6 3 2 4 3 1 1 2 2 2 1 1 2 8 7 12 18 8 23 23 26 31 27 24 18 14 12 10
8 9 10 11 10 9 6 5 7 7 3 2 3 3 2 5 4 3 1 4 2 2 1 1 1 2 1 1 3 7 16 26 30 28 24 17 22 20 25 23 18 16 14 11
10 13 13 12 10 10 11 14 9 3 3 3 2 4 2 7 3 1 0 1 2 1 1 1 2 1 1 3 11 23 28 29 28 14 14 17 21 29 24 19 18 18 15 12
13 15 13 12 6 4 4 6 9 12 8 3 4 2 3 10 4 3 1 2 0 1 1 2 3 1 1 7 19 23 28 18 23 21 24 22 19 21 13 14 13 13 12 10
13 12 4 4 4 5 3 3 3 5 6 5 4 4 3 9 5 4 2 3 1 1 2 4 1 2 10 13 24 23 23 22 20 21 22 22 24 16 12 9 8 6 8 7
10 5 4 9 7 3 2 3 4 4 3 3 2 2 3 5 3 3 3 2 2 1 2 2 1 1 11 25 28 24 23 22 19 18 20 17 15 11 7 9 6 9 6 6
8 8 12 6 3 3 5 1 2 2 2 2 2 4 4 4 5 4 4 2 1 3 8 2 2 4 20 23 27 27 24 22 20 17 17 16 11 7 5 5 3 3 3 5
13 4 4 1 2 6 5 0 4 1 2 1 4 6 2 2 2 5 3 3 2 8 2 2 4 8 23 24 24 24 21 21 21 18 14 12 9 6 3 1 3 4 4 5
4 4 4 3 3 1 4 3 4 2 2 4 5 2 1 1 2 3 3 3 1 2 2 3 2 18 23 23 23 22 21 18 18 19 16 14 10 8 6 3 5 6 6 6
3 3 3 2 4 3 4 4 2 3 1 3 2 1 1 2 2 2 3 3 3 3 4 3 11 17 21 23 24 24 23 18 15 14 14 14 10 7 4 3 5 6 7 7
3 4 5 5 3 3 5 6 4 4 2 1 2 1 1 2 2 3 4 3 4 4 3 9 15 20 26 28 25 23 22 20 18 14 14 15 11 6 6 6 6 7 7 7
3 3 8 7 3 4 5 5 5 5 2 2 4 2 6 2 2 3 4 4 3 6 13 14 17 26 30 28 27 23 21 20 20 20 18 15 14 12 11 12 7 8 9 9

GFSNW_850_spd_048.txt.gz
Wind_Speed
16 16 18 19 17 10 6 3 1 3 7 2 1 2 3 2 3 1 1 1 3 4 6 4 5 7 1 10 10 5 2 4 3 1 2 3 2 3 4 4 3 1 2 7
13 13 16 18 15 10 3 1 2 4 5 1 2 4 1 1 4 4 4 4 4 3 3 4 1 2 3 14 4 6 6 3 4 2 2 2 3 4 3 3 3 7 4 6
11 11 14 16 14 10 3 0 1 2 4 3 2 1 2 2 3 2 3 2 3 3 5 6 3 2 2 3 5 8 4 3 5 6 4 3 5 8 10 4 5 6 15 10
9 10 12 13 13 9 2 0 1 2 1 2 3 1 1 1 2 3 10 4 4 1 3 3 3 3 4 6 4 4 2 3 3 4 4 5 3 5 12 14 16 12 13 18
8 9 10 11 12 6 4 1 2 2 0 3 1 4 5 4 4 5 4 4 5 3 4 2 4 4 2 4 2 3 2 1 2 4 3 2 4 7 9 19 21 15 23 24
7 8 10 11 10 8 6 3 3 0 4 3 1 2 3 4 4 5 7 3 3 6 3 4 3 4 2 3 7 3 3 4 3 3 3 3 7 13 12 5 7 15 14 26
5 7 10 10 11 11 10 6 2 1 2 3 3 3 3 5 6 2 5 10 3 2 7 2 4 9 8 6 5 5 5 4 2 2 2 0 6 2 6 12 14 14 13 17
3 6 8 10 10 11 11 10 4 2 3 2 4 8 4 4 4 4 3 7 7 5 2 3 3 4 2 1 2 2 3 4 2 3 2 7 3 1 4 5 5 5 15 16
3 6 7 8 10 10 9 11 7 4 7 3 2 2 5 2 3 2 3 3 8 3 2 3 2 2 3 1 1 3 3 4 3 2 1 4 4 2 3 4 4 3 5 9
5 6 6 7 7 9 9 13 8 5 7 6 4 3 2 3 3 1 3 8 8 10 2 2 1 1 2 2 4 3 3 2 4 4 3 6 6 4 4 2 4 11 9 16
8 7 7 7 9 9 8 13 8 6 7 8 8 6 4 4 4 2 8 2 6 5 3 2 1 1 1 2 2 4 6 4 4 1 2 6 3 0 2 4 10 14 17 19
6 5 6 9 9 9 10 14 12 13 9 9 10 13 12 3 2 2 3 3 2 1 1 2 1 2 2 1 2 1 2 4 1 6 5 4 4 9 13 18 23 21 18 19
8 6 8 10 9 10 10 14 18 21 15 10 5 8 8 6 3 5 4 2 2 2 4 3 0 1 1 1 3 3 2 3 2 3 3 7 24 17 13 22 31 26 20 15
9 9 9 8 9 11 10 13 10 9 8 5 5 8 9 9 7 4 2 0 2 3 2 1 1 1 3 1 2 2 3 7 4 5 6 22 4 23 29 34 34 28 19 16
11 10 10 9 10 10 9 14 15 8 5 5 5 8 9 9 8 7 2 2 5 2 1 1 0 0 2 2 1 2 3 2 3 4 12 9 19 32 37 37 36 31 21 18
12 9 12 13 11 9 5 4 13 6 7 5 2 3 6 9 8 7 5 5 3 3 3 2 1 1 1 2 1 4 5 18 19 11 22 30 31 27 26 26 32 32 26 17
12 12 18 15 12 9 5 7 7 8 5 4 3 3 5 11 6 5 4 3 2 3 3 3 2 1 1 1 2 6 26 23 26 25 18 13 12 22 31 31 34 30 23 17
16 18 19 18 18 16 19 19 11 8 6 6 3 3 2 11 4 4 3 2 2 2 1 1 1 2 2 2 10 20 24 26 20 20 22 26 30 32 30 31 30 21 15 18
20 21 18 13 7 3 8 12 13 15 6 5 5 1 3 8 5 2 0 1 1 1 1 0 1 2 2 7 19 21 23 17 24 28 25 24 22 25 31 30 20 17 13 15
23 18 3 5 6 11 7 4 3 4 5 4 4 2 2 3 4 3 2 2 1 1 1 5 1 3 12 12 15 20 21 19 22 23 23 26 28 27 27 23 15 12 9 14
18 6 3 15 12 5 3 3 5 4 3 2 2 4 1 1 1 2 1 1 1 2 2 1 2 2 2 17 21 20 19 18 19 18 18 18 20 22 23 17 11 11 7 11
10 8 16 8 4 3 5 1 3 2 3 2 2 1 1 1 2 3 1 1 0 2 8 1 2 3 14 19 22 24 22 20 21 20 19 18 17 16 16 11 7 6 5 6
19 4 4 1 3 6 4 2 3 1 4 4 1 2 3 3 1 4 1 3 2 8 2 3 3 3 16 18 23 26 25 24 22 22 21 18 17 14 14 13 9 7 6 8
4 5 4 3 3 2 4 4 4 4 5 3 1 1 2 1 2 2 2 3 1 2 1 4 3 11 17 21 24 27 28 26 25 23 22 21 20 17 13 12 10 8 8 8
3 4 3 2 4 3 6 6 5 6 5 1 2 2 1 2 1 3 2 2 3 5 4 3 7 16 23 25 29 29 28 27 27 25 23 23 21 20 18 13 6 10 9 9
3 4 6 6 3 2 5 6 5 7 5 2 2 2 1 2 2 3 5 3 6 4 3 6 14 19 22 26 28 29 27 25 25 25 24 24 22 20 19 15 7 8 10 9
4 4 9 8 7 5 6 8 6 9 5 2 3 2 7 1 2 4 4 5 3 5 7 13 16 21 25 26 22 20 23 26 27 26 24 23 22 21 20 16 12 13 10 11

GFSNW_850_spd_051.txt.gz
Wind_Speed
13 11 11 12 10 5 8 5 2 1 6 1 1 2 4 1 1 2 2 2 4 2 3 5 0 5 1 7 7 4 3 4 4 2 1 3 3 3 4 3 4 1 1 6
11 9 10 10 9 3 8 5 4 3 5 1 2 4 3 1 3 3 3 2 2 6 5 4 3 2 2 10 5 6 5 2 4 2 3 2 3 4 3 3 3 5 3 4
8 8 9 10 9 3 9 5 2 2 4 2 2 3 3 1 4 3 2 2 3 3 3 4 4 2 2 5 3 6 4 3 4 5 4 4 5 5 5 3 2 4 13 11
6 8 9 8 6 1 7 4 2 4 3 2 1 1 2 2 3 4 11 5 5 2 3 3 3 2 3 6 4 4 3 3 2 1 1 2 3 4 9 12 13 10 13 16
5 6 7 8 5 3 5 5 5 5 2 1 1 3 4 3 4 4 3 5 6 5 4 2 4 5 2 3 4 3 4 1 2 4 3 1 4 7 7 13 17 13 18 21
5 4 5 5 4 2 3 7 9 6 3 1 2 0 1 2 2 4 6 2 3 7 2 4 2 2 2 7 6 4 4 4 2 2 3 3 6 9 12 4 5 8 13 19
4 3 4 5 5 3 3 10 10 5 1 3 2 1 2 3 3 2 5 9 3 2 5 4 4 10 11 8 6 5 5 4 2 2 2 2 4 2 1 8 6 7 9 14
3 2 3 6 8 9 3 9 6 5 3 2 4 5 3 2 4 4 4 7 6 5 2 2 3 4 2 3 3 3 3 4 3 3 2 6 2 1 2 2 3 3 5 10
4 2 3 6 7 9 7 9 8 7 12 2 0 2 5 3 3 1 3 5 7 3 3 2 2 3 3 1 2 3 4 5 3 2 1 3 4 2 2 3 2 3 7 10
6 5 6 6 6 7 6 6 9 8 10 5 2 4 3 2 1 1 1 6 5 6 1 2 2 1 2 3 5 3 2 2 3 3 3 6 5 4 6 2 3 15 15 19
10 9 9 7 6 6 7 11 12 10 9 11 9 7 4 2 3 1 4 1 5 4 3 2 1 1 1 2 1 3 5 4 3 1 3 4 7 2 3 5 16 19 24 23
12 11 10 9 8 8 10 20 19 19 13 14 15 16 11 8 7 3 4 4 3 3 1 2 2 2 3 1 1 3 0 2 1 6 4 2 15 10 4 18 21 23 29 35
14 14 13 11 10 11 15 24 28 33 27 16 8 11 11 8 4 5 2 4 2 3 4 3 1 1 2 1 2 3 2 5 1 5 3 11 18 3 25 30 29 32 28 30
16 15 15 14 13 15 16 17 11 13 11 7 5 9 10 9 8 4 5 9 7 6 4 2 2 2 2 1 1 2 3 7 5 5 7 27 1 30 38 37 32 29 30 28
17 16 15 16 16 17 15 12 11 7 5 6 8 9 10 7 8 7 5 4 4 4 3 3 1 1 2 1 1 1 4 2 1 4 16 16 24 33 29 28 31 34 31 33
19 17 16 16 17 18 12 7 11 15 16 6 3 5 7 7 8 8 9 8 7 5 3 2 2 3 3 1 0 1 2 18 11 9 19 27 30 23 18 28 33 28 31 26
21 19 17 15 12 8 3 5 12 11 9 4 5 2 2 7 5 4 6 8 6 4 3 4 3 5 4 1 1 6 18 24 23 20 16 19 15 22 28 27 28 30 34 23
21 22 20 21 19 16 12 12 13 11 6 4 3 2 2 8 4 3 4 3 4 5 3 2 2 2 2 2 6 15 21 23 17 16 24 25 25 24 24 27 25 31 26 20
27 27 21 15 10 5 12 18 16 11 4 5 5 3 2 5 5 2 2 2 3 2 1 4 4 2 3 4 10 16 18 16 19 22 22 20 24 25 26 26 28 24 19 16
30 24 5 5 8 15 8 3 3 2 4 5 5 3 1 3 4 1 1 0 1 1 1 1 1 2 7 5 6 10 13 16 17 18 20 25 27 28 28 25 24 19 16 16
22 6 4 16 13 3 3 4 5 5 4 4 4 3 0 0 2 2 1 1 1 2 3 3 2 3 4 5 8 11 13 15 16 17 20 20 20 23 24 23 20 18 16 15
10 11 18 9 3 3 6 1 3 3 3 3 4 3 2 2 1 1 2 2 2 4 9 2 3 3 3 7 10 13 16 17 18 17 19 20 20 21 21 19 19 18 16 12
22 6 5 2 2 6 5 2 3 1 5 5 4 2 2 2 0 2 1 2 3 10 3 4 3 7 6 11 13 18 18 17 18 18 18 19 20 20 20 20 18 17 16 13
4 5 4 2 2 1 3 4 4 4 7 8 5 4 2 2 2 1 2 4 2 3 2 4 2 5 11 14 17 20 24 23 22 20 21 21 20 21 21 20 19 18 15 12
4 4 3 2 6 6 8 10 8 7 9 6 5 4 2 2 1 2 2 2 4 4 3 3 4 11 14 17 20 24 24 22 23 24 24 24 22 22 23 20 20 18 16 11
3 4 6 8 5 4 6 8 9 9 9 6 3 3 3 1 1 3 5 3 4 4 4 3 12 17 19 21 23 22 19 18 21 23 25 26 26 23 22 22 20 18 14 16
4 4 10 11 10 9 9 11 10 12 8 2 4 3 6 2 2 3 4 4 3 5 0 13 16 21 23 23 24 19 17 18 20 24 25 27 28 26 23 23 20 17 16 17

GFSNW_850_spd_054.txt.gz
Wind_Speed
10 9 5 4 4 5 13 5 2 4 6 2 1 1 2 2 4 7 4 2 2 2 3 4 2 2 2 4 7 5 1 5 5 3 3 2 1 8 12 6 5 1 3 3
9 6 3 2 2 8 12 5 4 4 4 1 1 1 2 2 3 2 5 4 2 3 2 3 1 1 2 3 3 2 4 4 5 3 1 2 6 6 6 5 2 6 6 2
8 5 2 2 2 8 13 6 3 2 3 1 1 1 1 2 1 3 2 3 6 4 2 1 5 3 2 4 1 3 2 3 3 5 3 6 8 13 10 9 7 14 14 15
7 6 2 2 3 10 13 6 3 5 4 5 3 1 1 2 2 2 4 4 1 2 3 3 4 4 6 4 2 2 2 2 2 3 4 2 4 9 15 12 16 14 15 18
8 6 2 2 4 11 12 6 5 4 4 3 4 0 1 2 2 4 4 6 6 3 3 3 4 7 3 3 2 2 1 3 1 2 1 2 4 8 8 13 17 17 18 21
10 5 3 3 6 12 7 9 10 6 2 4 3 2 2 2 0 4 5 1 5 9 4 2 2 2 3 4 6 3 2 4 2 2 2 2 6 6 10 7 7 8 13 15
10 6 5 4 5 8 10 12 15 5 4 3 2 2 2 3 3 2 4 5 1 2 1 8 8 9 9 5 6 3 5 4 1 1 1 3 3 2 2 6 6 8 12 12
11 8 7 7 6 7 9 15 9 6 5 6 4 5 3 3 4 3 4 7 5 2 3 2 4 3 4 4 4 2 2 3 2 2 4 3 3 2 1 1 5 4 8 11
12 10 9 10 9 9 9 14 11 7 12 3 3 3 3 3 2 1 3 5 6 3 1 0 1 2 2 3 4 2 3 4 1 2 2 1 3 3 2 2 6 16 16 17
14 11 11 10 10 9 8 12 15 10 11 4 3 2 4 3 2 1 3 7 4 4 1 2 2 2 1 3 3 3 3 2 4 4 3 2 8 7 1 4 4 16 16 19
15 13 13 11 9 6 8 15 15 11 10 8 6 6 6 4 1 2 2 2 1 1 2 2 3 3 2 1 1 1 3 2 2 2 4 4 16 2 5 6 11 16 19 19
18 16 15 13 10 10 15 20 16 28 15 15 18 15 12 11 7 4 3 2 2 3 1 1 1 1 1 1 3 1 2 3 2 2 2 4 10 2 4 12 16 18 22 23
21 20 18 16 14 17 21 30 28 39 29 17 8 10 11 8 5 3 2 2 2 0 3 3 2 1 2 1 2 1 2 7 1 5 3 7 18 7 10 17 16 18 17 22
24 23 21 19 22 24 27 38 14 14 14 7 4 7 9 8 6 2 4 7 5 6 5 1 1 2 2 1 1 2 3 4 5 5 6 19 5 16 23 26 19 18 21 22
28 27 24 23 28 31 20 16 16 11 5 7 8 11 8 7 7 5 6 6 3 3 2 2 1 1 3 3 3 3 2 2 1 4 13 12 22 25 27 24 21 23 26 31
30 29 26 26 28 23 21 7 10 21 25 9 4 6 7 8 8 8 9 7 4 4 2 3 2 1 1 2 1 4 5 5 7 7 13 20 23 23 18 21 26 24 29 29
31 29 28 28 26 22 4 7 20 14 9 6 6 4 3 4 3 3 7 6 4 3 2 2 2 1 2 1 3 8 5 7 10 9 9 12 9 17 21 21 22 26 25 27
30 28 26 22 14 12 15 21 18 15 6 5 4 2 3 1 1 1 3 2 2 3 2 2 1 0 2 3 3 3 8 10 9 7 11 14 18 17 18 17 18 21 22 20
30 28 27 22 15 6 13 16 12 8 4 6 4 3 3 2 2 2 2 1 1 1 1 2 1 2 3 1 3 7 6 7 13 14 14 15 16 17 18 19 17 19 20 18
38 33 7 7 10 25 18 5 3 3 5 5 5 3 3 3 2 2 2 1 1 1 2 4 2 3 8 7 4 6 10 11 12 13 13 19 22 21 21 21 20 18 19 19
29 7 4 24 21 6 3 4 4 3 4 4 4 3 3 2 2 2 1 2 1 0 2 2 1 3 4 3 4 7 9 13 16 16 19 19 19 21 23 25 23 21 20 19
13 14 23 12 4 3 4 2 1 2 3 3 4 4 4 3 2 1 2 1 2 2 5 2 2 2 5 2 7 11 14 17 18 18 21 21 22 21 23 24 25 24 23 21
26 7 5 4 3 4 4 3 1 2 5 6 6 4 3 3 2 3 1 2 2 8 3 3 2 3 2 6 10 14 17 21 23 22 19 21 23 24 24 26 25 26 25 22
5 5 6 2 1 2 2 2 4 6 10 12 10 6 3 2 2 2 2 2 3 3 4 3 3 2 5 9 12 15 19 22 22 21 22 24 24 25 25 25 23 26 26 25
3 5 4 3 5 6 10 15 11 10 14 10 9 7 3 2 2 2 1 2 4 4 2 2 2 7 11 16 18 20 23 24 22 20 22 24 26 28 29 26 25 24 25 25
4 6 7 8 7 3 6 10 12 14 12 9 6 4 3 2 1 4 5 3 5 2 2 3 7 13 19 22 23 24 24 25 22 20 21 23 24 26 28 28 28 23 23 24
4 6 12 9 10 13 12 13 11 15 8 2 4 3 2 4 2 3 3 4 1 4 3 8 18 23 23 23 23 23 24 21 18 17 17 20 24 28 29 29 29 22 20 21

GFSNW_850_spd_057.txt.gz
Wind_Speed
13 10 8 8 5 11 16 4 2 4 5 3 1 1 3 0 5 7 3 3 4 1 3 4 1 5 3 7 10 5 1 4 5 6 3 3 8 9 11 5 4 3 4 1
13 11 9 9 7 16 15 6 4 5 4 2 4 4 3 0 3 4 4 3 4 3 2 3 3 3 3 4 4 2 3 4 5 2 4 4 6 10 7 9 3 5 4 2
15 13 11 11 10 16 17 6 3 3 5 4 2 5 5 6 2 2 1 2 5 3 2 2 5 5 2 4 1 3 3 6 2 3 3 7 8 14 12 11 5 9 12 13
16 15 12 12 11 16 20 6 4 6 4 6 7 2 3 7 5 2 1 2 4 1 2 4 4 4 6 3 2 1 2 2 3 4 5 3 3 11 15 14 16 12 12 14
19 16 13 13 13 17 20 6 5 5 7 8 8 4 3 5 5 2 3 1 0 2 3 4 4 5 2 2 3 2 1 2 2 1 2 2 4 6 7 12 15 15 15 16
20 16 14 14 15 21 9 13 11 6 7 9 9 4 5 5 3 6 7 3 5 7 6 4 4 4 4 1 3 6 2 4 2 1 1 3 6 6 9 7 7 8 11 8
20 16 16 15 16 22 12 16 11 6 6 8 5 6 6 7 4 7 4 3 2 5 2 2 6 7 6 6 4 3 4 3 1 1 2 3 4 2 2 2 2 2 3 5
21 18 17 15 15 19 20 15 12 5 7 9 6 9 7 9 8 7 7 6 3 2 1 2 3 2 3 4 4 2 2 3 2 3 4 1 4 3 1 2 6 7 7 8
21 19 17 15 14 16 18 20 16 6 11 4 8 9 4 7 5 5 4 4 3 4 3 3 3 2 1 2 1 4 2 3 3 1 2 3 8 5 5 3 7 8 11 11
22 18 17 17 16 17 18 21 17 9 8 4 2 3 6 4 2 2 3 2 1 1 3 2 2 1 2 3 5 4 3 3 6 6 4 1 5 7 2 4 3 10 12 13
23 22 20 19 18 18 20 21 18 13 9 7 4 4 5 3 1 3 3 3 1 2 3 0 1 1 2 2 2 2 5 4 4 4 4 6 6 4 3 4 7 12 14 15
24 22 22 20 18 18 20 23 18 24 14 10 13 13 10 8 4 3 4 3 2 2 2 2 1 2 2 1 4 2 3 2 2 2 2 5 2 3 3 5 11 14 17 18
28 25 22 19 17 22 24 26 27 27 19 14 5 6 9 6 5 5 2 2 2 1 2 2 1 1 3 3 1 0 2 4 3 4 5 3 10 2 3 12 16 19 17 18
28 26 23 20 23 25 28 34 29 18 13 7 4 7 7 6 4 5 7 8 5 5 3 2 1 1 1 1 2 3 4 3 3 7 7 13 2 3 17 21 20 18 17 19
30 27 25 27 31 31 33 19 20 12 6 7 8 8 8 7 7 7 9 10 3 2 2 1 2 1 1 0 1 4 4 3 2 2 13 10 15 17 23 22 21 21 24 24
32 29 30 33 36 33 20 8 3 12 30 10 4 5 5 8 8 9 9 8 3 3 2 3 3 1 2 2 2 2 3 2 5 5 14 17 19 18 16 19 23 24 25 25
35 33 36 40 33 27 5 7 21 13 9 7 7 4 2 5 5 4 6 6 4 2 2 1 2 3 2 2 3 8 4 4 7 9 13 12 7 16 22 22 22 22 23 23
37 36 37 35 25 10 6 21 19 10 6 5 4 3 3 4 2 3 3 3 2 2 2 2 2 3 3 4 5 5 1 4 7 5 8 14 19 19 20 20 24 25 26 25
38 36 32 28 12 7 15 18 13 3 3 5 3 4 3 4 3 3 2 1 2 1 2 2 3 3 4 4 6 2 2 3 7 10 14 14 14 18 18 19 21 22 26 27
38 34 13 7 10 25 20 6 3 2 3 4 4 3 3 3 3 3 3 0 1 2 2 3 3 4 5 5 3 2 2 4 5 10 12 17 22 20 21 21 20 20 24 27
33 9 5 25 30 9 4 4 2 1 3 4 4 4 5 3 2 3 1 1 1 2 2 2 2 2 5 8 5 0 3 5 8 10 14 16 17 21 22 24 24 26 26 27
16 15 31 21 5 3 4 1 1 1 3 4 4 5 4 4 3 3 3 1 2 2 3 2 2 2 6 4 2 3 6 9 13 16 18 17 17 18 20 23 27 28 29 31
37 15 6 6 3 3 5 6 2 3 7 7 6 4 4 4 3 4 2 4 2 4 2 2 1 6 3 3 6 9 12 15 18 21 22 21 21 21 22 25 26 27 28 29
5 6 5 2 3 2 2 3 4 6 10 13 10 7 3 3 2 3 3 2 3 2 3 2 4 4 1 6 10 14 15 19 22 24 23 21 22 25 26 27 28 30 31 31
5 4 4 2 6 7 9 13 12 11 13 12 10 7 4 2 2 1 0 3 3 3 2 2 5 1 7 13 15 19 22 24 25 25 23 21 20 19 22 27 29 31 32 33
4 5 6 10 9 5 7 9 11 16 14 10 5 4 3 2 2 2 4 2 5 1 1 4 4 9 15 17 21 24 24 25 25 24 21 21 21 26 31 33 32 34 33 33
3 3 12 11 17 13 10 11 11 18 7 2 3 3 2 4 2 3 4 4 1 3 2 6 12 17 19 22 22 21 21 23 24 21 20 22 23 27 31 34 37 35 32 33

GFSNW_850_spd_060.txt.gz
Wind_Speed
31 20 16 14 13 18 20 8 2 3 7 2 5 2 3 2 8 3 2 2 3 4 3 3 3 5 3 6 4 2 4 3 4 2 3 3 5 4 4 3 4 1 3 2
30 21 18 17 16 22 23 10 4 5 7 2 3 3 5 1 7 8 7 4 3 4 3 2 4 5 3 4 3 4 0 3 3 2 2 4 4 5 3 2 3 2 2 3
31 22 20 20 18 26 18 9 4 4 5 5 5 6 5 5 1 4 1 8 6 3 3 3 4 7 3 4 4 3 3 2 2 2 1 6 5 6 6 3 2 4 5 5
32 24 24 22 21 28 17 10 6 8 4 6 8 2 7 8 4 2 4 4 2 0 3 5 4 3 5 2 2 2 4 3 3 5 6 6 3 6 8 6 7 2 5 7
32 26 25 23 24 32 19 7 4 8 7 13 10 4 5 7 6 3 3 2 4 2 7 3 6 6 4 1 2 1 2 1 3 1 1 1 1 5 4 10 12 12 10 11
31 26 27 26 27 34 15 12 11 8 8 7 8 6 6 7 7 4 8 3 8 9 6 7 10 5 6 3 3 2 1 3 1 1 2 3 3 2 8 4 1 1 5 2
31 26 26 26 27 34 13 21 15 5 4 7 5 7 8 8 1 5 5 7 5 2 7 4 4 7 7 8 5 3 3 2 3 1 3 1 3 3 2 4 6 7 5 8
30 27 27 26 27 34 20 22 15 5 5 7 7 9 8 10 9 9 8 6 4 7 3 4 5 3 3 4 4 1 2 4 2 2 4 4 3 2 1 0 3 6 6 6
30 29 25 24 26 32 26 19 15 5 10 2 10 9 13 6 4 4 3 4 5 3 2 1 1 2 3 5 5 1 3 2 1 2 2 2 4 4 3 2 4 6 7 6
30 25 23 23 24 27 27 22 17 11 9 2 5 3 2 3 2 3 5 1 2 2 1 1 0 2 4 3 4 3 2 1 2 3 2 2 3 5 2 3 1 2 6 8
28 24 22 22 23 25 25 26 19 15 9 9 6 8 5 2 2 2 4 3 0 1 1 1 1 2 1 2 2 1 4 3 3 3 3 3 7 0 1 3 7 12 14 16
29 25 22 23 23 24 23 28 21 15 12 10 12 12 9 8 6 6 3 3 4 3 2 1 1 1 1 2 2 2 1 2 1 4 2 5 7 6 7 12 13 16 19 20
30 27 22 23 24 24 23 28 24 21 23 16 4 8 8 6 7 7 3 3 3 2 5 3 2 2 2 1 1 2 3 3 0 4 5 6 7 13 13 17 19 19 18 17
29 25 25 25 23 23 24 30 26 20 14 6 6 6 5 5 6 5 5 7 7 9 7 3 1 2 1 2 1 1 2 3 3 3 10 8 14 14 20 20 17 18 21 22
28 26 25 23 25 26 29 28 22 17 7 6 9 9 9 8 8 9 10 10 8 4 4 2 1 2 1 1 1 2 4 2 2 2 4 1 5 13 14 14 18 20 22 23
30 28 25 27 30 31 29 10 4 8 30 10 3 5 6 10 9 8 7 8 6 3 4 4 2 1 1 1 2 6 8 5 2 3 6 7 10 10 10 18 19 21 20 20
30 29 32 38 32 26 5 8 22 17 10 7 6 4 3 7 8 6 7 5 4 3 3 3 3 1 0 1 2 15 9 4 3 4 5 2 4 11 17 17 21 23 22 21
32 33 37 35 21 12 22 32 18 12 9 6 4 2 3 4 3 3 3 2 2 3 2 3 2 2 1 2 5 11 6 3 1 3 5 7 11 12 14 16 19 23 25 28
34 39 36 22 7 7 22 17 11 10 6 6 3 4 3 6 3 3 2 1 2 1 0 2 2 2 3 5 10 9 5 3 3 4 6 7 11 15 16 18 20 22 27 28
38 38 12 6 10 31 19 4 3 4 5 5 4 4 3 5 4 2 3 2 2 1 1 3 1 3 7 6 8 6 3 0 4 8 12 15 18 18 20 20 21 22 25 28
35 10 5 28 29 8 4 4 3 2 3 3 5 6 4 4 3 3 1 2 1 2 1 2 2 2 2 9 6 4 3 3 5 8 11 14 16 19 20 23 23 24 25 27
13 11 28 21 4 4 5 1 2 1 3 4 5 5 5 5 4 4 4 2 2 2 3 1 2 1 8 6 3 2 3 6 10 13 16 18 19 18 19 21 23 23 24 27
34 11 6 5 2 3 5 6 1 2 7 8 8 4 5 5 4 4 2 3 2 5 2 3 1 9 6 3 2 4 8 11 15 17 18 20 20 18 18 21 18 24 30 31
4 6 5 3 2 3 2 2 4 6 15 21 16 7 4 4 3 2 3 2 4 2 2 4 3 10 6 1 6 11 16 18 20 22 23 24 23 20 18 17 24 29 31 34
3 4 4 2 5 7 12 16 15 18 23 18 13 8 5 2 3 0 2 3 2 4 4 2 10 8 2 5 12 17 21 22 22 22 22 22 20 20 21 22 25 29 33 36
3 5 6 9 8 6 9 19 19 23 20 12 7 4 4 1 3 3 3 4 5 3 2 6 8 5 7 13 17 19 20 20 20 20 21 20 21 23 26 30 32 35 35 34
4 4 13 10 15 10 13 22 17 20 7 2 4 4 3 3 3 0 2 4 3 7 6 4 4 8 12 13 13 14 15 16 17 17 18 22 25 28 32 36 37 34 32 33

GFSNW_850_spd_063.txt.gz
Wind_Speed
40 31 30 23 23 29 26 15 3 10 12 3 4 2 3 5 5 3 1 0 2 1 2 6 4 3 2 3 2 2 2 4 3 2 5 4 0 1 1 3 3 1 3 3
41 28 30 24 28 35 28 16 7 10 6 3 3 3 3 3 5 2 4 2 1 2 3 4 6 4 5 7 5 2 3 2 3 3 5 2 2 2 1 2 2 2 4 3
38 29 31 24 30 34 19 9 4 5 8 5 2 5 4 3 4 4 4 3 3 1 3 5 4 3 2 5 3 4 3 3 5 5 3 5 4 4 4 4 2 1 4 2
42 30 34 27 31 37 18 7 5 8 6 5 5 1 8 6 4 4 6 3 5 1 3 5 4 4 3 4 3 4 3 3 3 3 4 3 2 5 7 6 5 5 3 2
45 35 33 32 33 37 20 10 5 11 7 8 6 1 4 7 4 3 4 4 4 8 4 4 6 5 2 2 0 2 3 1 2 3 3 3 1 3 4 7 4 5 4 5
42 34 33 35 42 44 14 10 9 7 11 5 5 4 3 7 8 4 9 8 7 7 2 8 12 9 6 5 5 3 3 4 3 2 3 3 4 5 4 1 2 7 7 2
45 37 30 39 43 43 12 18 13 4 3 6 5 6 8 7 2 5 4 10 5 4 9 8 11 11 10 9 5 4 4 3 2 2 2 1 4 1 2 8 6 7 8 4
38 35 29 37 38 43 16 21 12 4 3 4 5 10 6 14 16 5 5 4 8 12 5 4 4 3 3 4 5 5 3 4 2 3 2 2 2 1 2 1 2 5 4 6
30 31 31 32 32 39 24 18 15 4 10 2 1 8 13 5 4 3 3 5 10 4 2 2 4 3 4 2 1 3 2 3 3 2 2 3 1 3 6 3 1 8 11 10
37 31 30 29 27 38 29 21 12 8 9 5 6 5 5 5 4 4 4 4 3 1 2 2 2 1 4 4 5 3 1 2 3 1 1 1 3 10 5 3 2 10 13 13
33 29 29 26 27 38 31 18 13 12 9 11 7 8 5 7 6 4 6 4 1 2 2 2 1 2 3 3 6 5 5 4 3 1 2 3 7 3 1 4 5 7 10 12
28 29 25 24 26 32 29 21 14 10 12 12 14 14 10 10 8 10 4 2 2 2 3 1 2 2 1 4 3 1 2 3 4 3 4 4 7 19 12 7 3 7 9 9
29 26 25 22 23 27 26 26 21 16 22 12 7 10 9 7 8 8 4 3 4 2 3 4 2 3 2 3 3 3 1 2 3 4 3 9 18 12 8 7 7 6 9 13
30 28 25 22 25 25 22 27 22 16 13 7 6 5 7 6 5 5 5 8 8 8 4 3 2 2 1 2 2 3 3 4 4 3 3 17 9 7 5 5 6 7 10 9
28 26 24 23 25 22 22 26 21 20 2 7 9 10 10 8 7 8 10 11 12 5 3 3 1 2 2 2 2 2 5 5 4 4 9 2 2 3 2 8 9 11 12 13
27 24 21 23 22 23 27 11 13 8 18 10 3 5 7 10 9 9 9 9 7 5 4 2 2 1 1 2 2 1 5 6 5 7 5 2 3 2 4 9 10 12 13 14
26 24 21 24 29 29 12 8 19 21 10 7 6 3 4 8 7 8 8 6 5 4 3 2 2 1 0 2 3 6 9 7 5 4 1 3 2 4 8 10 11 13 15 16
28 26 31 30 20 11 15 27 25 12 7 6 4 1 2 3 3 3 3 3 3 4 2 2 2 0 1 2 4 13 12 7 4 4 3 3 5 7 10 12 14 17 18 19
31 39 33 18 15 15 19 17 13 9 5 7 4 4 3 6 4 3 3 2 2 2 2 0 1 1 2 4 8 13 10 5 4 1 2 4 7 11 13 15 16 18 21 22
43 35 10 6 12 26 18 4 3 3 5 5 4 6 2 6 5 2 3 2 2 1 1 1 0 3 2 7 13 11 7 5 3 3 6 10 13 15 17 18 19 19 21 24
34 10 4 22 30 9 3 3 4 2 4 4 5 6 5 4 3 3 2 2 0 2 1 1 2 2 1 9 9 7 5 3 3 6 8 10 14 18 19 20 20 20 19 17
16 10 25 19 5 3 5 2 2 3 4 5 7 6 7 6 4 4 4 2 1 2 2 2 2 2 11 9 8 5 2 2 5 8 11 13 15 16 19 20 19 17 17 22
31 10 7 4 2 5 6 5 2 2 8 10 10 4 5 5 4 4 3 3 2 5 1 3 3 11 11 9 7 2 3 8 11 13 14 15 16 17 17 18 18 18 24 26
5 7 4 4 2 4 3 3 5 6 15 26 21 9 5 4 2 3 4 2 4 2 1 4 3 16 14 9 4 5 9 13 14 14 16 17 19 19 18 18 19 24 28 32
3 4 4 3 5 6 10 15 13 14 30 20 15 9 5 2 3 1 3 3 1 5 4 3 10 16 12 7 6 10 13 15 16 16 16 17 17 19 23 23 26 28 32 33
3 5 6 8 7 3 9 20 24 29 21 13 8 4 4 1 4 3 4 6 5 4 3 5 13 13 10 8 10 12 12 11 11 11 14 17 21 24 28 30 29 28 27 30
4 5 12 4 12 8 18 24 22 24 9 3 4 4 3 3 3 0 3 5 3 6 9 10 10 9 9 11 10 7 8 9 11 14 17 22 23 22 22 26 28 26 28 30

GFSNW_850_spd_066.txt.gz
Wind_Speed
30 27 35 41 31 36 31 18 3 19 16 4 5 3 3 6 5 3 2 3 2 3 3 3 3 3 1 1 2 3 2 4 4 2 4 3 1 1 3 4 1 2 3 4
32 16 36 38 37 44 39 19 6 13 15 3 3 2 4 4 4 4 5 4 3 1 3 5 6 2 4 3 4 2 1 3 3 6 5 2 2 2 3 4 3 1 3 3
26 21 33 36 38 38 32 11 4 6 9 7 3 4 3 4 6 4 4 3 1 0 4 5 4 3 2 4 3 3 3 3 4 5 5 3 3 4 3 4 3 3 3 4
25 22 40 36 43 44 29 8 5 8 7 6 4 4 6 4 4 1 4 1 2 2 3 4 3 3 3 6 5 3 3 3 3 3 4 2 3 4 6 6 4 4 3 4
22 13 30 40 46 36 24 10 6 9 9 6 6 4 7 7 3 4 3 2 1 4 4 3 6 5 2 2 3 2 3 1 3 4 6 6 2 2 3 2 3 2 4 3
24 16 44 38 50 38 20 10 9 9 9 5 5 5 7 7 8 3 1 9 5 6 2 4 9 8 6 5 5 2 3 3 3 1 4 4 4 3 1 0 3 1 5 3
20 18 41 41 49 40 15 14 13 5 3 4 5 6 5 9 4 6 3 9 6 5 9 16 16 16 13 11 6 4 4 3 2 1 4 3 4 4 2 10 6 7 7 5
18 25 38 39 48 35 12 16 6 4 3 3 3 9 7 13 11 4 5 4 8 15 9 5 4 4 4 4 5 5 4 4 3 3 2 4 2 2 1 1 1 4 4 5
16 10 29 37 44 36 12 15 6 3 10 2 4 3 15 5 3 3 3 9 12 5 3 2 3 4 3 2 1 3 5 5 4 2 3 6 4 2 3 2 3 1 6 2
14 17 31 32 37 39 21 7 7 4 9 4 5 2 5 8 5 4 3 4 3 1 2 2 2 1 3 4 6 4 2 1 4 2 2 4 4 3 2 4 4 6 2 4
3 22 30 29 30 28 34 15 10 5 8 11 6 7 7 8 6 5 8 5 1 2 2 2 3 3 4 3 4 5 5 5 3 1 1 6 2 2 5 4 6 2 4 7
11 25 26 27 31 27 26 16 12 8 9 12 17 16 12 10 8 10 7 2 3 3 3 1 2 2 1 3 3 1 2 5 4 6 3 1 2 6 9 7 3 3 7 8
21 24 30 25 24 33 29 16 15 14 19 12 9 11 11 8 9 9 4 4 4 3 3 5 2 2 2 3 4 2 2 1 3 3 2 4 11 9 5 2 2 2 5 7
24 23 27 21 23 28 28 19 18 12 12 6 7 6 8 7 6 5 5 8 8 7 4 4 2 2 1 2 1 2 4 5 4 2 4 9 4 3 3 2 1 2 4 6
25 28 22 23 22 24 23 22 17 15 2 7 7 11 9 8 6 6 7 9 10 4 3 3 1 1 2 2 2 2 4 4 4 4 15 4 8 6 5 0 2 4 6 8
27 28 23 25 26 22 25 10 11 12 12 9 3 5 6 8 8 8 8 9 6 5 4 3 2 1 1 2 2 2 2 4 4 5 16 5 7 6 4 3 4 6 8 10
32 29 25 27 25 27 11 6 16 17 10 7 5 2 3 6 6 7 8 7 6 4 4 2 2 2 2 2 2 2 8 8 10 8 8 7 8 5 4 5 6 7 9 11
28 26 29 27 23 21 5 11 26 17 5 5 4 2 3 2 3 3 3 3 3 5 3 2 1 2 1 2 3 11 12 9 7 6 4 5 4 2 4 6 8 11 13 14
28 26 32 18 13 5 12 22 16 6 2 7 4 5 4 5 4 4 3 2 3 2 2 1 1 0 2 3 10 14 12 6 8 5 4 3 1 4 7 10 12 14 16 16
37 34 11 7 9 22 21 11 6 3 3 4 4 5 3 6 4 3 3 3 1 1 1 1 0 3 3 2 10 14 10 7 8 7 4 3 6 10 12 14 15 16 18 19
29 9 4 21 28 13 4 4 2 2 4 3 5 5 6 5 3 2 2 2 1 1 3 2 2 2 4 10 12 10 8 7 4 1 4 7 12 15 17 18 18 19 19 20
14 8 23 25 6 3 4 0 1 3 4 5 7 7 7 7 4 5 3 3 1 2 2 2 2 3 12 13 11 9 7 4 3 6 9 11 13 14 16 19 19 18 19 19
28 9 8 5 2 3 6 6 2 3 8 10 10 3 6 6 4 5 3 3 2 5 2 3 4 9 17 14 12 10 6 5 8 11 12 13 13 13 16 17 16 18 22 24
6 8 4 4 2 4 3 3 4 6 17 27 21 9 5 5 3 3 4 2 3 2 1 5 3 17 18 15 13 10 7 9 13 13 13 12 13 14 14 16 20 24 28 30
2 3 4 3 4 4 8 14 11 16 34 21 16 10 6 2 4 1 3 3 2 5 4 3 5 15 18 16 13 9 10 13 13 11 11 11 14 18 22 22 22 22 24 25
2 4 5 6 5 2 7 16 22 33 24 14 8 4 4 2 4 3 4 6 5 4 3 6 11 16 17 14 11 11 13 11 10 9 11 15 19 22 23 22 21 22 23 27
3 3 9 4 7 9 12 24 26 25 7 3 5 5 4 4 3 1 3 5 3 5 8 10 12 12 12 11 12 13 11 10 10 11 14 18 20 22 22 23 23 25 26 26

GFSNW_850_spd_069.txt.gz
Wind_Speed
39 40 34 19 24 38 36 10 4 24 22 5 4 3 4 6 5 2 1 2 1 4 3 2 1 2 1 5 3 3 0 4 5 2 2 2 1 1 3 4 2 2 2 2
34 36 24 4 31 45 25 8 9 18 21 3 3 2 4 3 4 4 3 2 3 1 2 3 2 2 5 5 3 2 2 2 3 6 5 3 1 1 2 4 3 1 4 3
35 36 21 10 40 35 14 6 4 6 8 3 2 4 4 4 7 4 3 3 2 0 4 4 3 3 6 5 5 8 4 4 4 5 4 2 2 3 3 4 3 3 3 4
34 34 24 29 42 32 1 3 3 8 6 6 4 1 5 7 5 2 7 2 2 4 2 3 1 3 3 6 7 4 4 4 3 5 3 2 2 2 5 3 4 4 5 7
27 31 24 23 35 33 11 3 4 7 9 10 7 3 5 5 4 4 3 5 3 4 5 3 6 3 3 1 5 3 4 1 3 4 5 5 3 3 3 2 1 3 6 3
27 27 16 26 36 31 9 5 8 11 12 5 5 4 6 7 8 2 3 7 5 4 3 3 6 9 7 3 2 2 3 4 3 2 5 5 4 1 1 3 5 1 5 2
28 29 21 26 35 39 14 8 6 5 4 4 5 6 4 7 3 6 4 8 5 5 18 18 16 20 15 10 7 2 4 3 2 2 3 1 3 2 2 8 3 4 5 4
27 22 7 19 39 43 8 6 2 3 3 4 2 7 6 12 11 5 5 5 8 15 9 5 4 4 4 5 6 7 4 4 3 3 2 4 3 4 4 4 4 3 6 3
19 15 14 29 48 33 8 5 3 2 9 1 3 4 10 5 3 3 4 9 11 3 3 3 3 3 2 1 2 4 5 6 4 1 3 5 3 2 1 2 4 7 6 3
8 6 17 33 41 30 6 4 6 4 10 4 4 4 4 7 5 4 3 3 3 4 2 2 2 1 4 3 5 3 2 3 3 2 2 6 4 3 2 4 4 10 6 3
1 11 16 22 38 32 17 1 4 4 8 10 5 6 5 7 6 5 7 5 2 3 3 2 2 2 3 2 3 5 5 4 2 2 0 6 2 3 5 3 8 8 4 3
4 10 14 21 24 36 25 6 1 7 9 12 16 15 12 9 7 10 8 3 3 4 4 1 2 2 1 3 2 2 2 5 4 6 4 1 1 2 5 6 6 3 2 5
10 11 21 19 24 23 23 11 6 9 19 12 9 11 11 8 9 10 5 4 5 4 4 5 2 2 2 3 4 2 1 2 2 2 0 1 4 6 6 3 1 1 2 5
19 13 14 19 23 22 17 14 11 9 10 6 5 7 8 8 6 6 5 8 9 9 5 3 2 2 2 3 1 2 3 3 4 1 1 1 9 6 4 2 2 2 3 5
21 9 15 21 21 26 17 10 9 8 2 6 6 10 9 8 7 7 9 11 11 5 3 3 1 2 2 1 1 2 5 5 4 5 7 4 4 12 7 4 4 4 5 6
15 13 23 20 19 27 17 4 10 6 9 8 2 4 5 7 8 8 10 9 6 4 4 3 3 2 1 2 2 3 5 5 4 1 13 4 7 8 8 4 6 7 8 9
17 19 20 18 26 24 10 4 12 12 7 5 4 2 3 6 6 6 7 6 5 4 4 3 2 2 2 2 3 3 6 6 8 11 9 5 8 5 8 6 7 8 10 12
21 24 23 27 23 20 2 2 21 16 4 5 3 1 2 3 3 3 3 3 3 5 3 2 2 2 1 2 5 7 9 8 7 7 5 3 7 5 6 7 8 12 14 15
26 27 25 20 10 6 3 19 15 9 2 7 3 4 4 6 4 3 2 2 3 2 2 1 2 1 3 4 8 14 15 9 6 7 5 5 4 4 5 9 11 15 18 18
28 31 10 5 9 11 18 7 6 3 1 3 4 6 3 5 3 2 2 3 1 1 1 1 1 3 6 6 8 13 14 7 10 9 7 6 5 7 10 12 14 17 18 19
32 6 4 14 23 15 5 4 3 3 2 2 5 5 5 5 3 2 1 2 0 2 3 2 2 3 4 8 10 16 12 10 9 7 5 5 9 12 14 15 16 17 18 19
9 6 17 20 6 3 4 1 1 2 5 6 7 8 6 6 4 4 1 3 2 2 2 1 3 3 9 14 14 14 12 11 9 7 7 9 12 14 15 17 17 16 17 19
21 7 8 5 2 3 6 6 3 2 9 11 10 3 6 6 4 6 3 4 1 4 2 3 4 3 12 16 14 13 13 11 9 8 11 13 14 14 14 16 16 19 22 23
5 7 3 5 3 5 4 4 4 6 13 26 19 7 5 5 4 3 5 2 3 1 1 5 3 12 15 16 14 14 13 10 10 12 14 13 12 12 13 17 21 23 23 22
4 3 4 5 3 2 4 11 11 12 33 25 15 9 6 3 4 1 4 3 2 5 4 3 4 9 17 18 17 15 12 11 13 14 13 11 12 15 20 21 21 21 22 22
2 2 3 4 3 3 5 8 15 34 26 12 5 4 4 2 4 3 4 6 6 4 4 6 5 9 14 15 14 13 12 13 14 13 13 13 16 20 24 25 25 22 23 24
2 0 3 6 1 6 7 20 25 25 9 2 4 5 3 3 3 1 3 5 3 3 6 5 6 7 9 10 11 12 14 14 12 13 13 16 19 24 28 30 29 26 26 26

GFSNW_850_spd_072.txt.gz
Wind_Speed
36 36 38 36 3 20 32 9 3 26 25 6 3 3 4 6 4 2 3 3 3 4 3 2 2 3 2 7 1 3 1 5 4 2 1 2 1 2 2 4 2 2 2 3
32 33 33 30 12 27 17 5 6 23 25 3 4 4 4 4 4 2 3 3 2 2 3 3 1 2 3 5 3 2 3 2 3 6 5 3 2 1 3 4 3 0 4 3
29 31 32 27 29 24 15 6 3 6 11 1 3 4 4 4 5 3 3 3 3 2 2 3 3 2 4 5 5 8 5 4 3 5 4 3 3 3 2 4 3 5 4 5
27 31 30 14 34 13 8 4 2 4 5 5 3 2 4 7 4 3 3 3 1 4 2 2 4 2 2 3 7 3 3 4 3 4 3 2 3 3 4 3 4 4 6 8
26 28 25 3 32 18 8 3 2 4 3 7 3 1 4 6 4 4 1 4 1 3 4 2 4 4 2 1 5 3 4 1 2 5 5 4 2 2 3 2 3 5 6 2
26 25 21 7 26 22 2 1 2 3 6 2 2 3 3 6 7 4 5 7 4 4 2 4 9 15 11 5 2 2 3 4 3 2 5 4 4 2 1 2 2 4 5 5
26 22 20 10 31 35 3 5 2 2 3 2 3 5 3 7 3 6 4 5 4 4 18 13 13 18 17 14 8 4 4 3 2 2 3 2 3 2 3 2 1 1 2 4
23 20 12 12 35 38 13 9 4 2 4 2 1 8 6 12 12 5 5 5 9 16 4 4 4 5 5 6 6 7 4 4 3 3 1 4 1 2 4 3 4 4 5 4
18 12 5 21 27 35 9 4 2 3 6 2 1 3 9 5 4 4 4 9 12 3 3 3 2 2 2 1 2 3 5 6 4 1 3 4 1 1 2 1 4 6 5 3
16 8 8 21 24 32 8 10 9 2 9 5 3 2 4 7 6 4 3 2 3 3 2 2 2 1 1 2 3 2 2 3 3 2 1 5 3 1 2 4 4 7 6 4
8 5 11 17 28 29 6 10 12 3 8 10 7 5 6 6 5 4 6 4 2 3 3 2 2 2 2 2 2 3 4 4 2 2 1 5 3 2 4 2 5 7 6 2
1 9 11 11 25 25 11 8 11 10 8 11 17 17 13 10 7 10 7 3 3 3 4 1 2 1 1 3 2 1 2 4 3 6 4 2 2 1 4 4 7 6 5 5
9 10 11 15 24 23 11 4 6 13 19 12 7 11 12 8 8 9 4 3 4 4 4 5 2 2 2 3 4 2 2 3 2 1 2 3 4 6 7 6 4 4 4 3
10 12 12 15 19 24 19 7 3 4 7 5 6 6 8 8 5 4 4 7 8 9 5 4 2 2 2 2 1 2 3 4 3 3 4 4 10 11 9 6 4 4 4 5
13 10 10 18 19 17 16 12 4 4 1 6 5 9 9 9 7 7 9 10 10 6 3 3 1 2 2 1 1 3 6 5 4 4 5 3 4 15 12 8 6 5 6 7
19 6 16 20 21 21 20 3 4 2 6 6 3 3 4 7 9 8 8 8 6 5 4 3 3 3 1 2 3 3 7 7 7 3 4 8 4 9 11 7 6 6 9 9
19 15 20 20 22 23 8 2 8 8 3 3 4 3 3 5 5 5 6 5 4 3 4 2 3 3 3 2 4 5 10 8 6 7 8 5 7 4 9 6 7 9 10 12
23 22 20 18 23 19 1 2 15 10 1 3 3 1 1 4 2 3 3 2 3 4 3 2 2 3 1 3 7 7 10 8 7 10 8 6 5 7 7 8 9 10 13 16
23 20 24 24 17 3 3 13 10 4 1 6 3 4 3 6 3 3 2 2 3 1 2 0 1 1 4 5 9 14 17 11 7 9 6 4 5 5 6 8 11 15 18 19
23 27 8 6 9 5 12 4 4 3 2 2 3 6 2 5 3 2 2 3 1 1 1 1 2 3 10 7 7 9 15 11 7 9 7 8 8 7 9 12 16 19 21 21
23 5 4 15 15 13 2 2 2 1 2 3 5 4 5 6 3 2 1 2 0 2 3 2 2 3 4 8 9 10 14 11 8 8 5 5 7 10 14 18 19 20 21 21
6 8 19 16 6 2 3 2 2 2 4 7 8 8 5 6 4 4 2 3 2 2 2 1 3 4 4 7 9 13 13 11 10 8 7 8 11 15 18 21 21 20 20 20
20 6 6 5 2 4 5 6 4 3 9 12 11 3 7 6 4 5 3 4 1 2 1 3 4 3 6 11 11 12 11 10 9 9 9 12 16 18 19 19 17 20 23 21
4 7 2 5 2 5 5 4 3 5 9 25 21 8 4 5 3 3 5 2 3 2 1 5 3 8 8 14 13 12 11 11 10 10 12 16 17 17 15 17 20 22 24 23
5 5 5 6 5 2 4 7 9 7 28 31 11 6 4 2 4 1 4 3 2 5 5 3 2 3 10 13 14 12 11 11 11 12 16 17 15 16 17 20 24 25 27 27
5 6 2 2 1 3 5 10 8 24 34 12 4 3 4 2 4 3 5 7 6 4 4 4 2 3 7 12 11 10 10 11 12 16 16 16 15 18 22 27 29 30 29 30
5 4 7 11 5 5 8 12 17 35 15 3 4 4 4 4 3 1 3 5 3 3 6 4 3 3 5 7 7 7 8 12 15 14 14 15 18 24 29 34 35 32 30 27

GFSNW_850_spd_075.txt.gz
Wind_Speed
35 36 36 39 43 19 22 12 4 23 26 4 3 2 4 4 3 1 2 5 5 4 2 3 2 0 2 6 2 2 2 4 4 1 3 3 2 1 2 3 1 3 2 0
34 32 33 38 19 16 13 7 9 21 19 2 3 2 1 3 3 1 1 4 3 2 4 3 2 1 2 4 2 2 2 2 3 7 4 1 3 3 3 4 3 0 3 2
31 30 34 33 11 9 15 6 3 6 8 3 3 2 3 3 3 3 5 5 4 4 4 3 4 2 3 4 3 7 4 4 2 5 3 1 3 3 4 4 3 3 1 4
29 29 32 28 19 9 8 5 4 4 3 2 1 3 4 5 3 4 4 5 4 4 3 2 3 2 4 3 7 4 3 4 3 5 6 4 3 3 2 4 2 3 4 7
27 27 27 18 9 5 7 4 3 3 3 5 2 3 2 4 2 2 3 7 2 4 4 1 2 3 3 1 5 4 4 2 2 5 6 5 3 5 2 3 2 2 5 2
24 25 16 15 3 9 5 6 11 5 4 3 0 2 3 4 6 7 7 9 6 6 1 5 9 14 10 6 3 3 3 4 3 1 4 1 4 1 1 2 2 2 3 3
24 21 17 7 9 20 6 8 4 3 3 2 2 2 4 3 3 7 4 7 5 6 20 15 12 17 17 16 9 4 4 3 2 1 3 3 3 2 3 2 3 2 3 2
23 21 12 4 17 27 10 5 4 4 3 2 2 4 6 8 14 6 6 7 10 13 4 4 4 4 3 6 6 7 4 4 3 3 1 3 2 1 2 1 2 2 4 3
21 16 9 2 23 22 5 7 4 5 8 1 1 2 5 4 3 5 5 9 10 3 3 3 3 1 1 3 4 2 5 6 4 1 2 1 3 2 2 2 3 5 7 6
17 8 5 14 19 17 9 10 7 6 8 5 4 3 2 5 6 4 2 1 3 5 3 3 2 0 1 2 2 2 3 3 3 1 1 5 3 2 1 2 3 7 7 8
14 3 9 18 24 15 11 19 10 4 7 10 6 4 4 4 4 4 5 3 3 3 3 2 1 2 1 2 1 2 3 3 2 2 1 5 2 1 4 2 4 9 9 8
7 10 7 14 24 12 13 20 12 10 8 11 17 17 12 9 7 12 5 3 2 3 4 1 3 2 1 2 1 1 1 4 3 6 4 2 6 4 4 7 8 9 8 7
1 11 13 17 24 11 12 16 14 16 17 12 5 9 11 8 9 10 4 4 3 3 4 6 2 3 2 2 3 1 2 3 2 1 3 6 8 9 8 7 6 7 8 8
5 9 11 16 18 16 9 11 11 8 7 5 6 7 9 8 5 5 5 8 9 9 5 4 2 2 4 3 2 3 3 5 4 4 6 5 12 13 11 10 9 8 9 8
8 5 9 14 17 18 7 5 6 8 3 5 5 9 10 10 8 7 10 10 9 4 3 3 1 2 3 1 1 3 8 6 5 5 4 3 2 4 15 12 10 9 9 9
13 4 11 14 15 15 9 1 2 3 6 5 3 2 4 8 8 7 8 8 5 3 3 3 3 2 1 2 3 6 13 10 8 1 2 7 4 3 12 11 9 8 9 11
17 6 12 18 16 15 7 3 4 4 3 2 4 3 2 4 5 3 5 5 4 3 3 3 2 2 2 1 3 4 10 9 8 8 5 3 5 3 8 9 8 8 10 11
16 9 16 17 16 8 4 2 9 5 2 3 3 2 1 2 2 2 3 3 3 4 3 2 2 2 1 3 10 5 7 7 6 9 7 3 4 6 6 8 9 10 12 14
12 16 13 15 12 4 2 8 9 3 0 4 3 4 3 5 2 2 2 2 2 1 1 1 1 1 4 6 6 12 13 9 6 9 7 5 4 4 5 7 9 14 17 19
15 20 6 6 10 8 11 5 5 2 3 2 3 5 1 5 2 2 2 2 1 0 1 0 2 4 14 10 5 5 12 11 7 9 6 6 6 6 7 10 14 17 20 21
21 6 3 12 15 8 2 2 2 1 1 4 5 5 4 6 3 2 2 2 0 1 3 3 2 3 4 3 9 6 11 13 6 5 3 2 3 6 11 15 18 20 20 21
8 3 13 12 4 2 3 2 3 2 4 7 9 8 5 6 4 4 3 3 2 3 3 1 3 4 4 4 9 8 11 12 8 6 4 4 7 11 16 19 20 19 20 22
13 4 7 5 1 4 6 6 4 2 11 13 10 4 7 5 4 4 2 3 3 5 0 3 4 3 4 7 8 10 11 10 7 6 6 7 11 15 18 18 17 19 21 23
5 5 4 5 3 6 6 4 4 6 8 24 22 9 4 4 3 3 4 2 3 1 2 5 3 3 7 10 10 10 9 7 7 7 7 10 15 17 16 16 18 22 25 29
5 4 5 6 7 2 3 7 8 7 22 33 12 6 4 1 3 2 3 3 3 5 5 3 4 6 9 11 11 10 7 6 6 7 10 14 15 14 15 17 22 26 30 32
5 7 2 4 1 2 6 11 8 19 31 16 6 3 3 2 4 3 7 7 6 4 4 7 7 6 8 10 10 8 6 5 6 9 13 13 13 16 20 24 28 29 28 27
6 6 10 8 5 4 8 14 14 27 27 3 4 5 7 3 2 2 4 5 4 7 10 11 8 7 8 10 9 6 4 5 8 10 10 12 15 20 24 28 26 24 23 24

GFSNW_850_spd_078.txt.gz
Wind_Speed
35 34 37 38 12 10 17 13 4 28 30 4 2 3 1 3 4 2 3 2 4 4 4 4 3 3 1 4 2 2 0 2 3 3 1 3 2 4 4 2 2 4 4 5
33 34 38 30 17 11 19 9 9 19 9 3 2 3 2 3 3 1 0 1 1 2 4 5 4 2 3 6 3 3 2 3 2 2 1 2 4 5 4 3 2 4 1 5
31 32 34 17 14 16 16 6 3 4 0 3 5 2 3 4 3 2 4 2 2 5 6 6 5 2 5 5 4 7 2 4 5 4 4 3 2 6 7 6 4 4 5 11
27 28 24 14 13 15 7 6 4 3 2 3 7 2 2 8 2 2 3 3 3 4 5 6 4 3 1 3 7 3 2 4 3 7 4 2 5 7 9 6 5 4 6 10
25 25 15 15 5 8 15 5 4 3 6 7 2 1 5 5 3 4 3 7 5 7 5 4 5 3 2 2 4 3 3 3 2 5 8 6 6 6 4 5 3 6 9 7
23 21 19 5 5 7 7 11 12 4 3 4 2 3 4 4 4 6 6 10 10 13 6 8 11 13 10 6 2 2 2 3 1 1 5 4 3 6 5 2 3 2 2 4
22 22 10 1 6 9 16 11 7 3 4 4 1 4 4 4 4 5 3 6 5 5 18 14 11 14 14 14 12 5 3 3 2 1 3 2 3 6 5 5 1 2 4 5
20 17 8 3 7 10 8 8 5 4 5 4 4 7 9 11 12 6 5 7 13 8 2 3 2 2 2 7 8 10 5 2 3 0 1 2 1 0 1 2 2 2 1 5
20 14 7 11 15 13 7 8 11 11 7 5 1 3 4 5 3 3 5 10 4 2 2 2 2 2 1 2 0 1 3 4 1 1 1 0 3 2 0 1 3 5 4 7
14 15 13 17 14 7 9 10 12 8 9 4 3 3 3 2 4 4 1 1 1 4 2 2 2 2 1 0 2 3 2 2 2 1 1 1 2 3 2 3 3 9 9 9
10 12 18 21 15 9 11 12 10 8 8 8 5 3 3 2 2 3 4 2 2 1 2 1 2 1 2 1 0 1 1 0 1 1 2 1 6 3 3 2 3 7 8 8
9 12 16 19 16 16 15 15 13 15 8 10 12 13 10 6 4 7 3 1 2 1 2 1 2 2 1 1 1 1 2 2 1 4 0 1 7 2 4 4 4 6 8 9
6 8 16 16 12 14 16 16 16 18 17 10 5 6 8 6 5 6 2 3 3 2 3 3 2 1 2 2 3 2 4 3 3 3 3 8 7 10 10 8 7 8 8 8
6 9 11 18 11 5 12 14 9 7 6 4 3 5 7 5 3 1 1 5 6 7 4 2 1 1 3 1 1 3 1 7 4 5 7 5 11 12 10 12 10 8 8 7
9 9 7 13 12 9 5 8 9 6 2 4 4 7 6 7 6 4 6 8 6 3 2 1 1 2 2 0 2 4 9 5 5 3 2 1 2 1 11 11 9 7 7 8
8 6 9 13 15 11 3 1 2 6 5 3 3 3 3 5 6 4 4 4 3 2 2 2 1 2 1 2 3 4 11 10 7 1 3 5 4 4 4 10 8 7 7 8
13 3 10 11 13 14 2 1 2 2 2 2 4 1 2 3 5 3 2 2 2 2 2 1 2 3 2 2 4 2 6 10 9 7 4 2 3 1 3 5 5 6 7 8
14 7 11 14 11 9 3 2 5 3 1 1 3 0 1 3 1 1 2 1 1 3 2 1 2 2 2 4 9 4 4 7 6 7 7 4 1 3 4 5 5 6 7 9
11 10 13 12 7 5 4 2 6 3 2 3 3 4 2 5 2 2 1 1 1 1 1 1 1 2 5 4 4 6 10 7 6 10 7 4 3 3 2 3 5 8 12 15
15 15 5 5 6 4 6 4 3 4 4 4 3 6 3 5 2 1 1 2 1 1 1 1 3 4 12 12 7 4 10 10 8 10 6 6 5 4 3 5 8 12 16 19
12 4 1 3 10 8 4 4 2 2 2 5 5 6 5 7 2 2 2 2 0 2 2 2 2 4 4 4 10 10 10 13 10 7 4 3 3 2 4 8 11 15 16 16
10 2 3 8 4 3 2 2 1 4 3 6 6 6 5 6 5 3 2 2 1 3 4 2 3 4 7 5 10 9 12 15 10 7 4 4 3 5 9 12 14 14 15 16
7 4 2 3 4 1 6 7 3 2 9 11 8 4 6 6 4 4 2 4 3 6 2 4 5 3 8 10 12 12 12 13 10 8 6 4 5 9 12 13 12 14 17 21
4 4 4 5 4 6 5 3 3 6 8 19 17 7 3 4 4 3 3 1 3 2 3 6 2 12 13 13 13 13 13 12 10 8 6 6 9 12 12 12 14 18 23 27
4 7 5 5 6 5 4 4 4 6 19 30 10 5 3 2 3 2 3 3 5 6 4 2 9 14 16 17 16 14 12 10 8 7 7 8 12 12 12 14 18 23 25 24
4 8 4 7 2 2 5 7 7 14 28 18 5 3 2 4 4 5 8 6 6 3 4 9 15 14 15 17 15 13 10 8 7 7 7 10 10 12 15 18 21 20 20 22
7 7 15 8 7 7 6 9 7 20 23 3 4 6 6 3 2 4 5 5 3 7 13 16 14 13 15 16 15 12 9 7 6 7 6 8 12 15 18 17 18 20 20 21

GFSNW_850_spd_081.txt.gz
Wind_Speed
34 38 21 21 18 17 22 15 5 20 31 5 1 2 3 6 7 3 3 2 2 4 3 4 4 4 2 5 4 4 5 4 4 3 1 1 4 10 7 4 4 4 9 4
31 30 20 23 19 17 22 12 11 24 4 1 1 3 6 7 4 5 2 2 2 1 3 4 7 5 4 5 4 6 5 4 1 2 3 2 6 11 11 3 3 5 3 7
26 19 13 19 19 12 12 6 3 5 4 2 3 7 8 6 8 7 3 3 4 5 7 6 7 7 4 4 3 5 4 5 6 6 5 5 6 12 14 7 6 8 7 12
22 16 12 11 8 8 7 7 4 3 3 2 9 4 7 8 5 3 5 3 2 2 4 10 7 6 6 5 1 1 3 4 4 8 6 5 7 10 12 12 11 8 7 10
19 16 10 6 12 5 11 5 4 7 12 6 4 3 9 7 5 7 5 7 6 7 9 7 6 4 6 5 4 2 3 2 1 4 6 5 9 9 7 9 8 7 8 9
19 18 8 7 11 9 8 13 11 4 5 6 3 6 5 5 1 7 10 7 9 12 12 13 13 14 10 6 6 5 3 2 3 2 4 2 2 9 7 3 6 6 2 4
18 14 7 9 13 17 15 10 4 7 7 6 4 5 7 4 5 7 7 9 6 4 6 7 10 11 11 12 10 6 3 2 1 2 4 1 2 2 2 4 2 2 4 3
17 10 5 10 7 7 8 7 7 9 7 10 11 8 8 10 12 7 9 7 8 2 4 1 3 2 3 5 6 8 6 2 1 2 3 2 4 3 1 2 3 4 4 4
18 12 17 19 13 7 5 11 16 8 9 4 1 3 4 7 5 6 5 4 3 4 2 1 2 3 2 2 2 3 4 3 3 1 1 2 4 3 1 2 2 5 4 7
13 14 18 13 6 10 9 15 12 9 11 3 3 3 3 2 2 4 3 2 2 2 2 3 3 2 2 1 2 2 2 2 3 2 2 1 3 4 1 3 3 3 2 4
10 16 15 9 6 10 14 13 11 12 8 5 4 2 2 1 1 3 4 2 2 1 1 1 1 1 1 2 0 2 2 2 1 1 2 2 9 4 3 3 2 2 1 2
9 15 13 13 16 11 11 13 13 19 8 8 10 9 6 4 4 3 2 3 1 2 0 1 1 2 1 2 1 2 2 3 3 3 3 2 10 1 1 2 1 1 2 2
8 13 10 11 16 16 13 15 13 17 14 8 4 1 5 5 5 4 1 0 1 2 0 2 1 2 1 2 2 2 3 3 3 4 4 6 5 5 5 3 2 2 3 3
9 11 13 7 10 12 12 9 7 9 5 3 2 4 2 3 2 2 2 4 1 2 1 2 1 2 1 1 3 3 3 6 4 6 9 4 8 7 5 6 7 5 5 5
5 8 9 13 7 2 7 9 7 4 3 3 5 5 3 4 2 2 1 3 1 2 2 1 1 1 2 1 2 6 9 6 5 2 5 1 3 0 4 7 6 5 5 5
4 3 7 11 13 6 2 3 5 6 5 2 3 3 5 4 5 4 3 2 0 1 2 1 0 1 2 2 3 4 10 5 4 0 2 3 2 3 2 5 5 6 5 6
9 2 6 9 13 9 1 2 3 0 2 2 2 2 3 6 4 2 0 1 1 0 1 1 1 2 2 3 4 3 5 7 7 6 3 2 3 1 2 3 4 4 6 7
14 6 7 6 11 10 5 4 2 3 2 1 2 1 2 6 3 3 2 1 0 1 1 1 2 1 4 5 11 5 4 6 7 7 8 5 4 3 3 4 4 4 5 7
12 10 9 5 6 3 5 5 4 5 3 2 2 3 2 6 2 2 2 1 2 2 2 3 2 3 6 6 7 9 11 8 7 10 8 6 5 4 4 4 4 5 7 10
13 15 4 3 4 6 3 4 2 3 5 5 3 3 2 3 4 3 3 1 1 2 2 2 4 5 20 11 9 8 10 11 10 12 8 9 7 6 5 5 5 8 11 14
14 4 3 1 4 4 2 3 3 2 3 5 3 4 3 5 2 2 2 1 0 2 2 2 3 4 5 10 15 16 10 13 11 9 6 6 5 6 5 5 7 10 12 12
9 6 7 7 2 1 2 3 2 4 2 3 4 4 5 5 4 2 2 2 1 3 3 2 4 4 9 11 11 14 14 15 14 10 7 6 5 4 4 7 10 12 13 14
8 3 4 3 4 4 6 5 3 3 5 7 6 3 4 5 3 3 2 3 4 1 3 4 5 4 10 11 15 15 15 16 14 11 8 6 5 4 7 10 12 13 15 17
4 4 4 5 4 5 3 1 2 1 2 11 10 4 3 2 4 3 4 1 2 3 4 6 3 16 16 15 15 15 16 16 14 11 9 7 6 7 10 12 12 15 19 22
5 5 5 6 4 3 4 4 3 3 6 13 8 4 3 2 2 2 3 3 5 5 5 2 6 19 20 18 17 15 16 15 14 11 9 8 8 10 11 12 15 19 20 21
5 7 3 4 3 3 5 8 6 6 11 9 2 3 2 4 3 4 8 4 6 4 3 5 15 19 19 18 17 16 15 13 12 11 9 8 9 9 11 15 18 18 20 21
6 6 13 8 4 5 6 6 9 15 16 2 2 4 5 3 2 4 5 6 3 2 6 14 15 17 17 18 18 16 14 14 12 10 8 7 8 11 15 15 17 18 19 20

GFSNW_850_spd_084.txt.gz
Wind_Speed
27 21 27 19 18 23 31 26 6 13 16 3 1 2 3 4 3 6 4 6 11 4 4 5 2 2 4 3 5 2 1 3 2 0 2 3 4 5 3 3 5 4 5 3
23 17 20 17 20 15 20 13 12 17 9 1 2 5 7 9 4 8 4 4 5 2 4 3 6 3 2 3 2 4 5 3 2 1 2 2 4 9 8 2 3 7 3 4
21 17 14 14 14 14 16 7 3 2 3 4 5 6 6 4 7 8 6 3 2 3 2 5 5 3 1 1 2 5 4 4 5 3 2 4 6 10 11 5 4 4 5 12
20 19 13 10 5 9 12 7 3 4 2 2 2 1 8 10 5 4 5 3 4 4 5 7 5 4 5 3 2 3 3 3 5 4 4 5 6 7 10 10 7 6 11 11
22 18 8 8 5 8 15 6 5 4 3 3 1 2 8 10 6 8 8 7 12 12 11 9 5 1 5 4 2 3 3 1 3 3 6 7 6 10 8 8 8 7 10 7
21 15 11 13 10 13 9 18 11 4 2 2 6 6 8 7 2 7 12 7 9 8 8 9 7 9 7 4 4 4 3 2 3 1 4 4 3 5 6 4 6 4 4 3
16 11 6 14 14 15 14 12 5 4 4 3 3 8 10 10 12 5 11 14 5 0 8 4 3 6 9 11 7 9 1 3 2 2 2 3 2 3 2 4 3 4 6 5
14 8 9 6 9 7 10 8 4 8 4 9 7 7 6 10 12 5 7 7 4 6 7 2 2 2 2 4 4 6 5 2 2 2 1 4 3 2 3 4 3 4 4 4
10 12 10 7 7 4 5 9 7 8 5 2 0 3 5 3 4 3 2 6 6 5 2 1 3 3 3 3 1 2 3 2 1 3 1 2 1 3 2 3 1 4 3 4
6 10 7 7 9 6 11 9 8 6 8 1 3 2 3 3 3 3 1 2 3 5 3 3 3 1 1 2 4 4 3 2 1 2 1 1 4 3 1 1 4 3 2 5
6 6 7 9 8 9 9 7 8 9 6 4 4 4 2 1 3 0 2 2 2 3 2 2 1 2 1 2 1 3 2 2 1 2 1 4 6 2 0 2 2 3 3 3
4 6 7 11 11 7 3 8 7 13 3 5 6 6 4 3 3 2 2 1 3 5 2 1 1 2 1 1 2 0 2 2 1 1 2 1 8 3 4 3 2 2 1 3
3 3 4 10 13 10 7 8 9 12 8 5 2 2 2 1 3 4 1 2 2 2 3 3 1 2 2 2 3 2 4 3 2 4 1 5 7 6 7 4 4 5 5 5
4 9 7 3 9 9 10 5 5 6 3 1 1 2 2 0 1 2 2 2 2 2 2 2 1 1 1 2 2 2 3 6 4 4 7 5 7 7 5 7 7 6 7 5
7 5 13 12 9 5 6 8 5 3 2 1 1 2 3 1 2 1 1 2 1 1 2 1 2 1 2 2 2 4 10 6 4 5 2 4 5 6 5 7 7 6 5 4
9 5 6 9 12 8 6 3 5 4 4 2 0 3 6 5 2 2 1 2 2 2 1 1 2 2 2 2 3 7 19 13 6 6 6 4 5 4 4 6 8 6 5 5
9 6 4 7 13 10 4 4 8 4 2 0 2 2 3 7 4 2 2 2 3 3 2 3 2 3 3 3 4 5 12 12 10 9 7 4 6 5 5 6 5 4 3 4
12 7 5 4 5 13 9 6 9 5 3 2 1 3 2 5 3 3 2 2 2 3 3 2 3 2 4 5 11 10 11 12 12 11 11 7 6 6 5 4 3 2 2 4
13 7 6 4 4 5 8 7 8 6 4 3 3 3 3 3 3 3 2 2 2 3 2 3 3 3 6 8 13 19 18 14 10 14 10 9 7 6 5 5 4 3 4 7
12 10 3 2 3 4 3 4 3 2 4 5 4 2 0 2 2 1 0 1 2 2 3 2 3 5 25 20 14 15 15 15 13 15 12 12 11 9 8 6 5 4 6 9
14 6 3 3 6 7 3 2 1 1 3 5 3 5 3 4 2 2 2 2 1 1 3 1 3 4 4 13 24 15 14 15 12 9 6 9 8 10 9 7 5 6 9 11
8 4 4 7 3 3 2 2 1 3 3 1 1 2 2 4 4 1 1 1 2 5 2 0 4 4 5 9 18 18 15 15 16 11 9 9 8 7 7 5 6 8 10 11
8 3 3 4 3 2 7 6 3 2 7 8 5 1 2 3 3 3 1 1 4 2 1 4 5 2 6 10 13 15 17 16 15 13 10 8 7 6 5 6 9 10 11 13
3 5 3 5 3 5 4 3 4 6 6 12 12 7 4 3 2 3 3 2 2 3 3 6 3 12 14 14 14 17 18 17 15 13 10 8 6 5 6 9 10 12 14 17
5 5 5 6 8 5 5 7 5 8 14 18 9 3 3 1 1 2 2 2 4 6 5 3 6 8 18 18 17 17 16 17 16 12 9 7 6 6 9 10 11 15 16 17
5 8 3 6 2 4 8 11 8 12 19 12 5 3 3 4 3 2 7 5 7 4 4 8 7 12 16 16 16 15 14 15 14 11 9 7 7 8 9 12 14 15 17 19
6 6 15 10 5 6 13 12 10 17 19 3 4 6 8 1 2 4 5 5 4 3 11 12 10 15 16 16 15 15 15 14 13 11 9 7 7 8 11 13 14 16 18 20

GFSNW_850_spd_087.txt.gz
Wind_Speed
25 24 22 17 12 12 17 18 5 8 8 4 3 1 2 7 7 9 2 4 4 3 4 3 2 3 3 10 4 3 6 2 3 3 4 4 3 6 1 4 5 4 4 3
23 19 15 15 10 9 11 8 9 9 2 2 1 4 4 3 4 4 4 2 3 2 3 4 3 3 2 2 2 2 4 3 3 8 5 6 4 7 4 2 3 4 4 2
22 17 11 10 9 9 7 6 3 1 2 3 2 3 2 2 5 4 3 4 3 1 3 1 3 1 2 2 1 3 1 3 3 4 5 4 5 8 12 4 4 1 1 8
18 12 8 5 6 3 3 3 3 4 2 4 5 2 3 3 4 7 8 6 5 2 4 4 3 1 3 3 3 2 4 2 3 4 1 4 5 5 10 9 2 4 6 3
14 11 5 2 4 6 5 5 4 3 4 4 2 4 4 4 4 6 6 5 6 10 5 4 3 2 3 0 5 2 3 1 2 4 3 5 3 9 8 8 8 8 6 3
10 13 13 7 7 2 7 8 2 2 5 4 4 5 5 5 2 6 7 1 5 7 6 12 13 5 3 2 1 3 2 3 3 3 3 3 5 4 4 3 4 1 2 2
9 8 11 10 7 11 11 4 3 2 3 3 2 3 4 7 5 3 7 11 4 4 10 7 2 2 4 5 5 4 2 3 2 3 3 3 5 1 1 2 3 4 5 5
9 6 7 7 4 6 6 1 3 2 1 2 5 6 5 7 11 5 4 7 4 9 6 3 3 3 2 2 2 4 2 3 2 3 1 2 2 3 2 2 0 3 3 4
7 5 3 4 4 2 5 1 3 4 5 2 3 3 2 2 3 4 3 5 7 7 2 3 2 0 2 4 8 5 4 3 3 2 2 3 3 2 2 0 1 1 4 4
5 5 10 9 2 2 5 1 1 2 4 1 2 2 0 1 2 2 2 4 4 3 3 2 1 2 1 2 3 3 3 3 2 1 1 4 2 5 3 2 4 4 3 7
3 4 10 12 8 6 4 2 2 3 2 4 1 0 1 1 1 2 2 3 3 4 3 2 2 1 2 2 3 2 3 2 2 1 0 4 6 3 5 4 5 6 5 5
6 6 7 11 12 5 3 2 3 4 1 4 3 2 0 1 1 1 1 1 1 1 1 1 1 1 1 2 3 0 2 5 3 6 5 4 10 4 6 6 5 5 5 6
7 3 5 7 11 9 5 5 4 4 3 2 1 1 2 2 2 1 1 2 2 1 3 2 2 2 2 2 4 2 3 4 2 3 1 5 10 9 8 6 6 5 5 6
7 10 4 3 7 8 6 3 4 3 1 0 2 3 3 3 3 4 3 2 1 2 3 1 0 1 2 3 4 3 6 5 4 4 7 2 6 11 8 7 6 6 6 5
10 8 8 5 4 5 6 8 6 4 2 2 3 6 6 4 4 3 3 3 2 2 2 1 2 2 1 3 2 4 9 7 5 5 8 4 3 10 8 8 7 7 6 5
11 8 6 5 6 4 4 2 4 6 5 4 3 3 7 7 5 4 3 3 3 3 2 3 3 2 2 1 3 9 13 15 16 5 9 5 7 7 7 8 8 7 6 5
11 10 7 6 8 8 4 1 6 5 4 2 4 6 3 4 5 4 4 4 4 3 3 3 2 2 4 2 5 6 10 16 14 10 9 5 8 5 7 7 7 5 4 3
14 9 8 5 6 9 8 8 5 5 3 3 1 3 2 1 1 3 3 3 3 5 4 2 3 2 4 5 11 10 12 15 13 12 13 9 6 8 8 7 6 5 4 2
16 10 9 7 5 5 10 10 6 8 6 2 2 3 3 1 0 2 1 2 1 2 2 3 2 3 6 9 11 13 19 14 12 14 11 9 9 9 9 8 7 5 4 4
15 10 5 5 4 5 7 5 3 2 4 5 5 5 2 4 4 2 1 1 1 1 2 2 3 5 28 30 21 13 15 20 13 16 13 14 13 12 10 8 6 5 5 6
14 5 5 5 4 6 4 3 3 3 2 5 4 8 2 6 2 3 4 2 1 1 4 2 3 4 5 9 16 28 17 18 15 11 8 11 8 12 11 9 6 5 6 9
11 3 3 3 4 2 3 2 0 3 5 5 3 4 5 3 2 1 1 1 3 4 3 1 4 4 10 8 5 16 17 16 16 13 9 11 10 11 9 8 6 5 8 9
8 4 2 3 4 2 7 7 4 2 9 10 7 1 4 3 3 3 2 2 4 1 1 4 5 10 9 4 9 12 13 14 15 13 11 10 10 10 8 6 5 6 7 10
5 6 2 5 3 5 5 4 4 6 9 17 15 6 3 2 2 3 3 3 2 2 2 6 3 10 12 10 12 14 16 16 16 15 14 12 10 8 6 5 7 7 9 12
6 6 5 6 9 4 4 6 7 7 13 21 8 4 4 1 2 2 2 3 4 6 5 3 7 17 10 13 15 16 18 19 18 17 15 12 10 8 6 6 6 9 11 12
7 8 3 8 2 4 7 12 8 14 21 12 5 4 3 4 4 3 7 5 7 4 4 8 18 18 11 13 14 15 16 17 18 17 14 12 10 8 6 5 7 9 12 14
8 9 19 11 4 7 13 16 13 18 20 3 4 6 9 2 2 4 5 6 4 7 11 17 18 14 10 13 15 16 16 18 18 16 14 12 9 8 6 7 8 10 12 15

GFSNW_850_spd_090.txt.gz
Wind_Speed
13 13 11 8 10 5 4 8 3 6 16 7 3 2 2 3 6 10 4 2 4 5 7 4 3 2 3 8 3 3 5 1 3 5 4 3 3 5 3 3 1 2 3 2
13 8 9 3 4 1 5 4 4 9 15 4 3 4 3 5 3 2 0 2 1 4 5 4 2 3 4 6 4 2 1 2 4 8 5 5 4 6 4 2 3 1 4 3
14 7 9 7 6 4 8 4 3 6 8 4 2 4 4 4 8 3 3 2 1 2 3 1 3 1 1 2 1 3 1 2 3 4 4 3 6 9 10 3 4 1 2 4
14 7 4 6 3 3 5 5 1 2 3 4 2 2 3 5 7 7 15 7 6 1 3 3 3 2 2 1 3 1 2 1 3 3 3 2 3 5 10 8 0 3 5 6
12 11 3 5 4 2 4 2 2 1 2 7 3 6 6 6 4 6 5 5 7 9 5 3 4 5 3 1 4 3 3 1 2 3 2 4 3 8 8 6 7 6 3 2
9 12 7 6 6 1 3 6 3 3 5 3 3 3 2 5 2 5 7 2 2 6 3 9 11 7 3 1 1 2 2 3 3 4 5 5 4 3 2 1 3 1 2 4
7 9 6 4 7 7 7 7 3 3 3 2 0 1 2 5 4 3 4 6 2 4 11 6 1 1 3 4 4 0 2 3 2 3 4 3 4 1 1 1 1 1 3 2
5 6 5 3 6 4 2 6 5 3 1 3 4 4 2 3 7 3 2 4 4 9 5 3 4 4 5 3 2 3 2 4 2 2 1 5 3 3 3 2 4 1 5 3
5 3 8 8 7 5 2 5 5 4 2 2 3 4 3 1 2 5 3 4 6 7 3 3 1 2 2 4 8 3 4 4 3 1 1 4 3 2 3 2 4 6 6 6
8 4 10 12 7 5 2 1 4 3 2 1 2 2 2 3 2 0 4 6 4 7 3 2 0 3 1 2 2 2 3 3 2 1 2 6 4 5 4 2 4 5 4 8
9 9 8 9 3 1 5 3 4 2 3 2 1 1 3 3 3 1 6 3 4 4 4 1 2 1 3 2 4 2 3 3 3 1 1 5 8 5 6 4 5 8 7 8
7 9 8 8 7 4 3 3 5 3 2 1 1 0 1 1 1 3 4 0 1 2 2 1 1 2 1 2 3 1 3 5 3 7 5 3 15 3 6 7 7 8 9 8
8 6 6 6 5 3 3 2 1 1 2 3 3 3 2 2 3 3 2 1 1 1 2 1 1 3 3 2 5 2 3 4 3 2 2 7 10 12 9 8 7 8 8 9
9 10 5 3 3 3 3 2 2 1 1 0 3 6 5 5 4 5 5 4 3 3 3 3 2 2 4 3 4 4 6 6 4 5 8 5 11 16 13 12 9 9 8 8
10 11 10 6 3 1 0 1 2 3 3 3 4 9 9 8 6 6 6 5 4 3 3 2 3 3 2 2 1 4 9 7 5 5 9 5 4 14 14 14 12 9 9 8
12 9 9 9 7 5 3 3 2 2 2 2 1 3 5 7 7 7 7 6 5 4 3 4 4 3 3 2 3 11 18 17 18 5 9 9 5 11 11 11 10 9 8 8
12 9 8 6 9 9 6 3 1 4 3 3 3 3 3 4 8 7 7 8 6 6 4 5 4 5 6 3 5 8 14 16 18 17 13 8 12 7 11 10 10 9 8 7
14 12 8 6 7 10 11 12 6 3 4 5 2 4 2 3 4 3 5 4 5 5 4 2 4 3 5 5 15 15 11 13 15 15 16 9 7 12 11 10 10 10 9 8
15 14 9 5 8 5 6 11 11 8 6 4 4 4 4 4 2 2 2 2 1 2 1 3 1 3 6 9 8 14 14 11 12 19 14 10 10 12 12 12 12 10 9 8
15 14 5 4 4 6 3 3 4 4 7 7 5 4 1 5 3 2 2 1 1 1 3 3 3 4 24 29 28 22 13 15 12 15 13 16 16 17 16 13 10 9 8 6
19 10 7 5 2 4 3 3 3 3 3 6 4 11 3 6 3 3 2 2 1 2 4 1 3 4 5 10 16 15 17 25 19 15 10 9 9 14 15 13 11 9 8 7
17 10 8 6 4 3 1 3 3 3 5 5 6 5 4 4 4 4 4 3 2 5 1 1 4 4 9 17 15 10 4 16 18 16 11 8 9 11 12 11 10 8 7 7
15 6 7 6 4 2 6 7 4 2 7 10 7 2 4 3 4 3 3 4 5 0 1 4 5 9 16 18 9 3 5 11 14 13 10 10 10 12 11 10 9 7 7 7
5 7 4 6 5 6 6 5 5 7 6 16 14 7 1 2 1 2 4 2 3 2 2 6 3 8 16 16 7 6 7 10 10 10 10 10 10 11 10 9 7 7 7 8
7 6 6 8 9 5 5 11 7 8 17 22 9 6 3 1 2 1 2 3 4 6 5 3 6 13 17 10 6 9 11 13 14 14 14 13 12 11 10 8 7 7 8 9
6 8 3 6 4 4 9 15 12 18 24 13 5 4 3 3 3 2 7 5 7 4 4 8 10 13 12 7 8 10 11 13 14 15 15 14 14 12 10 9 8 9 8 10
8 8 16 15 4 8 18 18 16 21 22 3 5 5 9 3 2 4 5 6 4 10 9 5 9 11 13 11 11 13 15 17 17 17 18 17 15 14 13 11 9 9 9 10

GFSNW_850_spd_093.txt.gz
Wind_Speed
9 11 10 4 4 12 12 5 3 15 12 7 4 3 2 3 2 3 2 1 3 4 3 3 2 4 4 8 7 4 5 1 4 6 1 2 3 3 3 2 2 1 1 2
10 12 12 6 8 12 11 5 4 17 14 4 4 2 1 1 3 1 3 2 2 2 4 1 4 4 4 8 4 3 2 1 4 7 5 4 3 4 4 2 2 1 2 1
10 11 13 12 11 13 12 4 3 8 10 6 2 4 4 4 5 3 3 4 2 2 2 2 1 1 2 3 3 3 2 1 3 4 4 3 6 9 7 1 3 2 2 2
13 7 10 12 11 12 11 7 2 3 3 5 3 2 3 4 6 8 12 4 5 2 3 3 4 3 4 1 2 1 2 1 0 3 4 2 2 5 9 6 1 2 3 1
13 10 10 13 10 10 11 5 4 4 5 6 5 6 5 4 3 5 5 4 5 5 4 2 2 2 2 1 4 1 2 1 0 3 4 6 4 5 5 4 3 5 3 0
11 9 9 13 11 7 7 6 6 4 7 5 3 4 4 5 2 2 4 2 2 5 2 6 10 9 9 4 1 1 2 2 3 4 4 5 4 3 2 2 1 1 1 1
10 8 7 10 10 10 9 11 7 5 3 3 3 5 5 7 6 3 6 8 4 6 13 8 4 6 8 5 1 1 3 3 2 3 4 3 4 3 4 3 4 3 3 2
8 9 6 4 4 3 6 10 6 3 1 2 5 10 5 6 6 6 4 6 7 12 7 4 4 4 3 1 1 1 2 3 2 2 1 6 1 4 5 5 5 6 4 2
4 8 7 6 5 6 6 3 6 4 3 2 1 2 3 1 3 6 3 4 7 8 3 3 2 2 2 5 8 4 4 4 3 1 0 4 4 2 4 3 5 7 8 6
1 4 7 7 4 3 4 4 2 2 3 1 2 2 1 0 0 1 4 6 4 8 3 3 1 3 2 3 4 3 3 2 3 2 3 7 4 5 3 2 5 8 9 11
4 1 5 6 6 3 5 7 3 3 3 4 5 3 2 2 2 2 3 3 3 3 3 2 1 1 2 3 4 2 3 2 3 1 2 6 8 4 6 4 3 6 5 8
7 5 2 4 6 6 7 5 6 4 4 3 6 7 6 6 5 3 1 1 1 1 3 1 1 2 1 3 4 1 3 5 3 7 5 4 18 4 9 4 4 8 9 9
10 8 5 0 3 2 4 3 5 5 5 5 7 9 9 8 7 8 4 3 3 2 1 2 1 4 3 3 5 2 4 6 4 1 3 9 17 17 15 10 9 8 9 10
11 12 9 5 1 1 1 2 5 6 4 2 4 9 11 11 10 10 10 6 5 4 4 4 3 3 7 4 4 5 6 7 4 6 9 12 18 19 17 15 12 10 10 10
11 12 14 11 8 4 3 3 4 5 5 3 4 10 14 13 12 10 10 10 9 6 4 3 4 4 2 2 2 4 11 7 6 6 10 3 4 5 18 16 15 12 11 10
12 9 10 14 12 8 5 4 7 4 5 5 3 4 6 10 10 9 9 8 7 5 4 4 4 4 3 2 4 11 19 20 22 5 6 11 7 5 11 14 13 12 11 10
12 8 7 9 11 11 8 3 2 2 3 3 5 4 3 7 9 7 9 9 5 6 4 5 3 4 6 2 4 4 10 19 21 19 16 9 12 7 12 13 12 12 11 10
12 10 8 8 9 10 15 16 10 5 4 4 1 4 3 7 5 5 7 6 8 8 6 3 3 2 3 5 10 18 17 13 16 19 19 15 8 15 13 13 13 13 12 11
12 11 8 9 12 7 8 12 14 13 8 4 5 4 4 6 4 4 4 3 1 3 3 4 4 2 5 9 10 12 11 8 9 10 16 14 11 12 14 15 16 15 14 13
10 10 5 5 5 7 5 5 6 9 9 8 6 7 2 6 5 2 1 2 2 2 3 1 3 4 24 26 28 23 20 22 14 14 15 16 17 17 18 17 14 12 12 12
11 8 7 5 4 4 4 5 4 6 4 9 6 14 4 9 3 3 4 2 1 1 3 2 3 4 5 6 12 15 15 16 23 21 12 10 12 15 17 17 15 13 12 12
11 5 6 6 6 4 1 3 3 4 6 10 11 8 6 6 5 3 3 2 2 5 1 1 3 4 11 10 15 10 8 7 17 20 14 9 9 10 14 15 15 14 12 11
13 6 4 5 5 1 7 7 4 3 8 14 12 4 9 6 5 4 2 3 5 0 1 4 5 9 13 12 13 4 1 6 12 16 14 11 11 13 17 17 16 14 12 10
8 10 5 6 4 6 5 5 4 5 4 21 19 10 7 5 4 3 3 3 2 1 2 6 3 10 8 11 7 6 7 10 13 14 13 13 13 15 16 15 14 12 12 11
8 8 6 8 11 6 6 10 6 6 20 24 8 5 2 2 4 3 3 2 5 6 5 3 7 3 9 11 8 7 10 11 14 15 15 14 15 15 15 14 13 12 11 11
7 9 3 8 2 5 8 13 9 16 26 11 3 3 2 3 4 4 8 6 7 4 4 10 4 1 6 9 8 5 9 12 14 15 15 16 17 16 14 14 13 12 11 11
8 8 21 13 3 6 16 15 16 25 21 3 3 4 8 2 2 4 5 6 4 10 13 10 4 1 6 8 9 7 9 12 14 16 17 17 16 17 17 16 14 13 12 12

GFSNW_850_spd_096.txt.gz
Wind_Speed
17 16 15 17 21 24 17 13 4 21 17 9 5 3 3 2 3 1 1 1 3 3 3 2 1 2 4 6 5 3 4 2 4 6 1 2 0 1 2 2 3 1 1 3
17 17 18 19 21 20 13 6 9 24 14 4 3 3 3 3 4 3 1 1 2 2 3 2 2 3 3 7 5 3 3 1 4 6 4 4 3 3 3 2 2 1 1 3
12 14 17 19 19 20 15 6 4 10 17 9 3 4 4 3 4 2 4 3 3 2 3 1 1 1 1 5 5 3 2 1 4 4 5 1 5 5 4 2 2 2 3 2
13 13 17 16 17 19 8 7 2 3 3 6 4 1 4 4 6 8 15 5 6 2 3 2 2 3 4 2 3 2 2 3 2 6 7 3 4 4 5 2 2 3 4 4
11 14 14 15 12 14 20 5 3 3 4 5 5 8 7 7 5 6 6 5 5 6 3 1 2 1 1 2 4 2 0 2 1 4 3 3 5 6 3 1 1 2 3 4
7 10 13 15 13 8 7 8 7 3 7 5 4 3 4 6 4 2 2 2 1 3 1 8 11 9 8 6 3 2 0 1 2 5 4 6 6 5 3 2 4 4 4 3
4 6 8 11 11 10 8 9 7 5 2 3 1 3 1 3 3 1 3 3 1 3 12 7 5 7 9 7 6 3 1 2 2 4 4 3 4 1 2 4 6 5 3 4
4 4 4 5 8 4 5 6 5 3 2 1 2 3 2 3 3 2 2 4 7 11 5 3 4 4 3 1 2 3 3 3 1 1 2 7 1 3 4 4 5 7 5 3
3 4 5 2 3 5 3 2 2 2 5 4 3 1 2 0 2 5 2 4 8 9 4 3 1 3 2 4 7 3 3 3 3 1 0 4 3 2 3 2 5 4 6 5
5 6 6 6 5 6 7 4 2 2 3 5 6 4 3 2 2 2 4 5 3 7 3 3 1 3 1 3 3 2 2 2 3 3 3 8 4 4 4 2 5 6 10 10
6 5 6 7 4 6 7 6 5 4 4 7 8 9 8 6 5 3 1 2 1 2 3 2 2 3 3 2 4 3 3 3 4 2 2 7 9 4 6 4 3 8 9 11
6 7 6 6 6 4 5 5 6 6 7 6 9 12 13 14 10 5 5 2 3 5 3 1 2 3 1 3 4 1 3 6 4 8 6 4 17 8 10 3 4 8 10 9
8 9 9 8 5 4 5 5 4 6 7 12 13 13 16 16 13 12 4 4 5 5 5 5 2 5 4 4 5 3 4 5 4 1 4 10 25 24 23 12 12 10 10 10
10 10 12 11 9 5 5 5 6 7 4 3 4 9 11 13 16 13 14 9 6 4 5 3 2 2 7 3 3 4 5 7 4 7 11 17 25 22 24 21 17 15 13 12
11 11 12 13 12 11 9 8 7 7 7 3 8 14 15 15 13 13 13 12 9 5 3 2 4 4 3 3 1 4 11 7 5 6 8 7 9 8 10 21 22 18 15 13
11 11 10 11 12 12 10 5 8 7 6 5 3 4 6 9 13 12 10 10 8 6 4 5 5 4 4 2 4 11 19 18 21 6 5 8 13 14 11 15 16 15 13 13
10 10 10 9 9 10 9 4 3 4 5 4 6 4 3 8 8 7 9 10 7 7 4 5 3 4 6 3 5 7 13 12 14 20 21 17 20 13 9 11 13 14 14 13
9 9 10 10 10 11 13 15 17 11 5 6 2 4 3 11 7 6 8 6 6 6 5 3 3 2 3 5 14 17 15 14 16 16 18 22 18 11 14 13 14 14 14 12
8 8 9 9 11 8 10 11 13 16 12 4 5 3 4 10 6 5 6 5 1 4 3 4 4 3 6 9 12 19 16 9 13 13 12 16 18 13 13 14 15 16 16 16
8 7 4 5 6 9 5 4 4 6 10 10 7 5 2 9 7 5 6 3 2 2 3 4 3 5 28 29 24 23 21 23 17 18 16 16 19 19 18 19 17 16 14 13
11 8 6 6 5 6 5 4 4 3 4 8 6 18 4 9 2 3 7 3 1 1 3 3 3 4 6 10 8 11 16 19 19 21 23 12 13 15 18 18 17 16 14 13
12 6 6 5 6 5 2 3 1 4 5 3 5 6 4 5 4 2 4 2 2 5 2 0 4 5 13 8 10 14 15 14 15 17 22 18 14 14 14 15 16 15 13 14
14 8 5 5 6 1 7 8 4 3 9 11 8 1 3 5 5 2 2 2 5 3 1 4 5 7 5 8 11 11 7 7 5 8 15 13 12 11 11 13 15 16 16 14
9 10 6 7 5 7 7 4 5 9 10 20 18 9 3 1 1 3 2 2 2 2 3 6 3 10 3 4 7 5 4 4 3 8 13 12 11 10 12 14 13 13 13 11
9 9 7 9 12 8 6 12 4 8 17 29 12 6 5 2 2 1 2 3 4 6 5 3 6 6 1 3 5 4 5 6 7 9 11 11 12 13 13 14 15 15 14 13
8 9 4 5 2 5 10 11 10 17 29 17 7 4 3 4 5 4 8 4 6 4 4 8 6 5 3 5 6 5 4 7 9 10 12 13 14 14 14 16 17 16 14 14
7 10 20 15 4 7 16 20 16 25 25 3 5 6 8 4 1 4 6 6 4 6 8 8 8 3 2 4 5 7 7 6 8 11 13 14 15 18 20 21 19 18 16 14

GFSNW_850_spd_099.txt.gz
Wind_Speed
18 20 23 24 23 21 22 19 4 18 18 10 4 4 3 3 4 3 2 3 3 3 2 2 1 2 4 7 6 3 2 1 4 6 2 1 2 3 3 2 2 2 1 3
14 17 20 21 21 20 11 9 10 29 10 5 3 2 2 3 5 4 5 4 3 1 3 2 0 1 0 8 5 4 4 2 4 5 4 3 2 1 2 1 2 3 2 3
11 14 16 19 21 17 12 6 4 12 20 10 4 4 5 4 7 5 5 3 3 2 3 2 2 3 1 6 6 4 5 2 5 5 5 2 4 2 0 2 2 2 4 3
10 12 13 14 17 19 9 7 2 3 3 7 5 2 4 4 5 6 9 4 4 0 3 2 2 2 4 2 1 4 3 3 3 6 8 3 5 6 3 5 5 4 3 5
9 10 11 10 10 13 19 4 3 4 3 5 3 6 6 6 4 4 5 5 3 3 3 3 2 1 2 2 3 2 0 2 1 5 3 6 6 7 7 6 3 5 4 6
9 9 9 10 12 10 8 8 7 1 6 3 3 2 3 3 1 2 2 1 1 2 2 6 10 10 7 4 1 1 1 1 3 5 3 5 6 7 8 5 4 5 6 6
6 8 8 6 7 10 8 7 5 3 2 3 1 1 1 2 2 1 2 1 2 3 10 9 5 7 10 7 6 5 2 2 2 4 5 2 4 1 2 5 6 8 4 5
6 7 8 8 6 3 3 3 2 2 2 1 2 3 2 4 3 3 4 5 4 8 3 2 3 3 2 1 2 5 5 3 1 0 2 7 2 4 6 5 5 8 7 5
6 6 9 10 10 8 3 2 1 1 7 6 4 4 3 2 2 4 4 5 5 4 2 2 2 3 1 3 6 4 4 2 3 2 1 4 4 2 3 2 4 4 10 7
6 6 8 11 12 10 8 5 4 4 4 6 10 5 5 4 1 2 5 3 2 3 2 1 3 3 3 2 3 4 2 1 4 3 4 8 4 5 6 1 4 5 12 10
7 6 7 8 11 11 8 7 6 5 4 8 10 8 7 6 5 3 2 3 1 2 1 2 2 3 3 1 4 4 6 5 4 2 2 7 9 6 6 5 4 6 11 12
7 8 8 6 7 10 7 7 8 9 8 8 13 12 14 14 10 4 4 3 2 1 3 0 1 3 0 3 4 1 3 6 4 8 6 4 20 8 15 6 6 8 11 10
9 8 9 9 7 7 8 7 7 8 8 13 12 12 17 19 18 14 5 3 3 1 2 4 2 5 4 4 5 2 5 5 4 1 4 9 24 26 26 18 16 9 8 8
10 10 10 11 10 9 8 9 9 9 5 4 5 5 9 10 15 15 15 13 6 4 3 3 2 2 6 3 4 4 6 9 5 6 11 22 23 23 23 24 25 23 16 13
11 11 12 11 12 11 11 11 12 11 6 4 10 21 21 16 14 15 15 13 11 6 4 3 4 4 2 3 2 5 13 7 6 7 13 11 13 8 7 10 18 20 18 16
10 11 11 12 11 11 8 5 3 5 5 6 4 5 7 7 11 13 13 12 10 7 5 5 5 6 5 2 4 12 19 21 27 7 6 11 13 12 13 14 13 14 15 14
10 10 11 11 11 10 8 4 2 3 4 4 7 5 2 4 6 6 9 11 7 7 4 6 4 6 7 3 5 5 13 17 22 21 21 20 23 19 11 10 10 12 14 13
13 11 10 12 12 12 12 15 16 14 6 5 1 4 3 8 5 4 6 4 6 6 5 3 5 4 5 6 14 19 18 15 19 22 22 23 21 17 13 12 12 13 13 13
13 11 10 10 12 8 10 12 13 12 11 4 6 3 4 9 4 4 4 4 1 3 3 4 3 2 7 11 17 22 18 12 8 8 16 18 18 18 17 15 15 14 15 14
13 9 6 6 6 8 4 4 5 8 8 10 7 6 2 9 7 4 4 2 1 1 2 2 3 5 22 31 29 24 19 13 15 19 19 17 20 17 16 17 15 14 13 13
13 8 7 6 6 5 5 5 5 6 4 9 7 21 4 10 3 3 6 3 1 1 3 2 3 4 6 10 8 7 16 14 19 22 21 16 12 11 14 16 16 15 15 15
14 4 5 6 6 5 2 3 1 4 5 7 7 8 5 5 6 4 6 3 2 5 2 1 4 5 12 8 5 7 12 15 13 14 16 14 16 9 9 11 14 15 14 14
16 9 5 5 5 0 7 9 4 3 7 12 9 3 9 6 6 1 2 4 6 5 1 4 5 9 7 5 8 9 7 6 9 10 4 8 12 10 10 10 11 13 14 14
9 10 6 6 5 6 6 5 4 7 6 19 20 7 4 5 1 3 3 3 3 1 3 7 3 7 6 2 2 2 1 2 3 3 2 6 7 9 9 10 11 13 15 14
9 9 7 9 13 7 6 14 5 8 16 26 10 5 4 2 2 3 3 1 5 7 5 4 8 11 8 4 2 2 1 1 2 3 5 9 10 11 11 11 12 14 16 16
10 9 5 7 2 5 10 13 13 11 23 16 3 3 2 5 3 4 8 5 7 4 4 11 10 13 9 5 3 2 3 4 3 4 5 8 11 12 13 14 16 18 19 19
7 10 22 14 5 7 11 21 13 21 27 4 4 6 9 3 0 4 5 6 3 8 9 8 14 13 9 6 5 5 4 1 5 7 7 8 11 15 18 22 21 21 21 20

GFSNW_850_spd_102.txt.gz
Wind_Speed
15 16 17 17 18 20 24 20 4 15 12 6 4 4 3 2 2 0 2 3 3 3 3 3 2 2 1 6 5 2 2 2 3 3 2 2 4 3 2 3 2 3 3 2
14 15 16 17 17 11 8 10 12 25 11 4 4 3 4 4 2 3 2 2 1 1 2 2 1 1 1 6 4 2 4 1 2 2 2 3 5 5 2 3 2 5 3 2
16 16 15 16 16 12 12 5 3 10 17 7 3 3 5 3 4 4 3 3 1 2 3 3 3 2 2 6 3 2 3 2 6 3 3 2 4 6 5 6 3 1 8 4
18 17 14 13 14 10 8 5 3 3 4 8 8 4 4 4 5 6 7 4 6 3 2 2 2 1 0 1 1 2 2 4 4 11 13 10 10 11 8 8 8 6 3 6
13 18 16 12 10 11 11 3 4 5 3 3 3 5 5 5 3 5 4 3 2 3 2 1 1 1 1 0 2 3 1 3 3 5 1 9 12 13 13 13 11 12 13 12
10 13 17 15 14 10 7 7 6 1 2 2 1 2 2 3 1 1 1 2 3 2 3 4 7 7 4 2 2 3 2 2 3 4 4 8 11 14 18 9 8 9 8 4
8 10 12 15 14 13 10 7 4 2 2 1 2 5 4 2 1 3 2 1 1 1 11 10 3 4 6 6 7 6 2 1 1 4 6 3 2 1 2 13 8 14 8 6
8 7 9 11 12 12 10 9 6 2 2 1 3 4 2 2 2 3 3 2 3 10 6 3 4 2 2 3 4 9 7 2 3 3 3 10 3 4 6 7 6 13 17 12
9 7 8 10 10 11 9 7 8 5 3 3 2 2 2 2 2 2 3 4 5 3 2 1 2 2 2 1 2 3 4 3 4 1 4 4 2 3 4 3 6 6 11 12
11 8 6 8 11 10 6 5 6 4 3 3 4 3 2 3 1 3 3 1 1 2 2 2 2 2 1 3 3 4 3 4 9 8 6 8 4 9 7 3 2 5 11 11
9 8 8 7 8 9 6 4 4 4 4 11 9 8 5 4 4 2 1 2 1 1 3 3 2 3 1 3 3 4 6 5 5 4 6 7 10 7 6 2 2 4 9 12
11 8 8 7 7 7 7 4 5 6 7 8 16 18 16 16 13 4 5 2 1 2 0 1 1 3 3 3 4 2 4 5 2 7 5 2 18 6 13 2 2 6 10 11
12 11 10 9 8 7 6 6 5 6 6 10 10 8 13 19 19 15 5 5 6 4 5 2 1 6 2 4 6 3 6 7 5 3 4 12 21 25 26 22 19 15 11 9
13 13 11 11 10 10 10 8 8 6 4 3 4 4 8 9 12 17 18 15 7 5 5 4 3 3 7 3 4 6 7 9 7 10 19 22 22 18 17 15 19 21 21 15
13 13 13 13 11 11 13 13 13 11 6 4 7 19 19 17 17 14 15 14 12 6 3 4 4 3 3 4 3 9 14 10 8 7 8 12 7 6 5 10 12 13 18 22
14 12 14 14 12 10 8 6 4 6 7 4 3 6 8 6 8 12 12 12 10 6 3 4 4 5 3 4 5 9 18 19 25 13 11 13 12 13 16 19 22 15 12 15
14 13 12 13 12 10 7 4 1 3 1 4 7 4 4 7 8 8 9 11 8 8 4 6 4 5 7 4 7 4 11 18 22 23 22 16 19 12 13 11 11 10 9 12
14 12 13 14 12 14 16 19 16 12 7 6 3 3 3 10 6 5 8 5 8 7 4 3 5 4 7 7 18 17 16 13 18 22 21 21 20 21 17 14 11 10 11 12
15 13 12 12 12 7 9 14 14 13 13 5 5 2 2 10 3 5 7 6 3 4 4 5 6 5 8 13 17 16 16 11 6 6 9 10 15 17 17 15 15 15 14 14
15 12 4 5 5 8 5 3 4 7 10 9 6 6 2 8 5 3 5 4 2 3 3 3 5 7 24 31 32 27 25 21 14 15 19 18 16 15 14 15 15 16 14 14
17 8 6 6 4 4 4 3 4 5 4 8 8 16 5 9 3 3 6 3 2 2 1 3 3 5 7 15 14 13 11 23 30 26 25 22 19 14 10 12 14 16 16 17
18 6 8 5 5 6 3 3 2 5 5 5 4 6 8 7 6 3 5 3 3 5 3 2 4 5 14 11 8 8 6 7 11 13 14 15 17 15 11 9 13 15 15 16
18 8 7 6 5 4 7 9 4 4 6 9 7 3 8 5 6 1 3 5 5 5 3 5 6 7 5 5 7 9 8 6 6 6 5 5 9 14 10 9 10 12 15 17
10 8 6 6 6 6 7 6 2 5 6 15 15 6 4 4 3 2 4 2 2 3 4 7 3 10 11 9 7 6 4 4 2 1 1 2 7 9 8 9 11 13 15 17
8 8 6 10 14 9 6 14 6 4 8 21 7 4 4 2 2 3 1 2 5 5 5 3 7 5 9 7 5 4 4 3 1 2 1 2 5 8 10 12 14 15 16 19
13 9 7 6 3 6 13 12 11 11 18 14 3 2 2 6 3 4 9 4 7 4 3 10 6 9 10 8 6 5 5 4 3 2 2 4 7 9 10 13 16 17 18 20
7 10 25 19 8 13 14 21 19 19 21 3 3 4 8 2 3 5 6 6 4 6 6 8 9 12 12 10 8 8 9 7 5 4 3 5 9 12 15 19 19 19 19 19

GFSNW_850_spd_105.txt.gz
Wind_Speed
23 24 19 16 11 19 16 10 4 10 11 6 3 6 4 2 4 3 3 4 6 5 2 3 2 4 4 3 1 2 3 3 3 3 3 2 6 8 5 3 2 5 4 3
18 22 23 20 12 6 10 7 7 16 8 5 7 7 6 6 4 6 4 5 6 3 2 2 4 3 3 2 1 4 2 1 2 2 3 3 6 7 7 5 3 8 4 2
16 18 21 21 15 5 4 2 2 7 10 2 4 6 6 4 3 5 4 3 1 0 3 2 3 3 2 3 1 2 2 3 5 5 5 3 6 7 9 7 4 6 10 11
13 17 18 19 18 9 5 6 4 1 1 5 7 4 1 5 3 4 3 3 5 3 2 2 3 1 3 3 2 2 3 4 5 11 14 13 14 14 11 13 14 6 5 10
12 14 16 16 17 11 11 3 2 3 2 1 1 1 2 3 2 1 3 4 2 3 2 2 2 2 2 1 4 2 1 3 8 5 4 6 13 16 18 18 18 16 19 21
12 13 14 14 16 15 9 8 5 2 2 2 4 2 2 1 2 1 0 1 2 3 1 4 7 8 6 3 2 2 2 3 4 5 2 11 13 18 20 14 13 16 14 11
11 12 12 13 12 13 13 12 5 3 2 2 3 1 1 1 2 3 1 3 3 1 6 8 5 8 10 10 9 8 3 4 2 5 10 4 1 1 2 13 16 16 16 11
11 8 11 13 12 10 8 9 7 4 2 2 2 2 4 4 3 3 3 2 2 7 6 4 4 4 4 5 7 10 10 5 4 3 6 15 10 4 5 5 8 16 18 15
10 10 7 9 12 11 7 4 3 2 3 2 2 2 3 4 3 3 2 3 5 3 3 3 3 2 3 3 4 2 6 8 5 2 4 5 3 5 3 2 6 3 7 9
14 9 7 7 9 12 9 5 4 1 4 5 5 4 1 2 2 4 2 2 2 1 2 3 3 2 1 3 3 4 4 6 12 10 6 9 4 11 8 3 2 3 5 6
12 12 9 7 6 9 11 7 5 5 5 8 9 9 8 5 5 3 2 3 2 2 3 2 1 3 2 3 5 4 7 5 5 6 7 9 14 8 6 3 2 1 3 6
13 13 11 8 7 6 8 8 8 9 9 9 10 12 15 15 13 8 5 2 1 2 3 2 3 4 3 4 4 4 5 9 3 8 5 2 18 8 12 2 1 2 4 5
13 13 13 11 9 8 8 8 9 12 9 14 14 15 17 21 23 21 9 7 8 3 5 2 2 6 2 4 6 6 6 11 5 4 7 14 22 20 20 14 11 11 11 10
16 13 13 13 12 10 10 10 9 10 8 5 5 9 9 9 13 20 23 15 9 8 6 5 4 4 6 5 8 10 11 7 8 14 18 26 23 19 20 16 14 11 14 17
15 16 14 13 12 12 11 12 13 12 7 5 11 19 23 21 19 16 18 20 11 7 5 5 5 6 3 9 6 12 18 10 10 6 5 12 7 5 7 7 8 10 11 13
15 14 13 14 12 11 10 4 4 2 6 4 4 5 7 7 7 10 11 10 9 8 6 6 7 5 5 4 5 6 17 27 26 15 6 9 10 14 14 15 18 19 20 17
15 15 13 13 13 9 5 4 2 0 2 4 7 3 3 3 3 3 5 10 5 6 6 7 10 8 8 4 9 6 14 22 24 23 17 15 21 14 15 14 15 16 15 14
15 16 15 13 14 14 13 16 17 12 5 5 3 4 3 6 4 5 5 3 5 6 6 3 5 4 8 8 17 22 26 17 18 20 24 27 16 17 20 20 18 16 15 14
14 15 13 14 11 4 6 8 11 13 13 4 4 3 2 7 3 3 5 5 4 4 4 5 4 5 9 15 20 22 19 14 8 8 17 20 20 21 17 18 18 19 18 17
12 11 6 4 4 6 9 4 2 7 9 8 6 6 3 7 5 4 3 4 3 3 3 3 5 8 29 32 27 21 16 17 15 13 13 16 19 19 20 21 20 19 18 18
14 5 6 7 5 3 4 3 4 5 4 8 7 8 7 7 4 3 5 2 2 3 2 3 3 5 5 10 10 15 23 22 24 24 20 20 19 23 19 15 14 16 15 16
9 6 7 4 4 4 3 3 2 5 5 5 3 2 6 3 6 4 3 2 1 5 2 2 4 5 11 12 8 6 7 5 3 7 11 15 19 16 14 13 10 12 13 15
12 5 5 5 5 6 6 7 4 4 5 5 5 3 5 4 5 3 2 3 5 1 3 4 6 9 13 8 5 8 10 8 4 3 4 4 6 8 10 10 9 10 12 15
6 8 6 7 6 6 6 6 2 4 5 9 9 4 3 3 3 3 4 2 2 4 4 7 3 11 13 11 11 8 6 4 3 1 1 3 3 0 4 7 10 12 13 14
6 6 6 10 11 8 6 12 8 5 6 11 7 3 4 3 3 3 1 2 5 6 5 3 8 17 10 7 7 6 5 5 4 2 3 3 1 1 4 7 11 15 16 16
8 8 7 4 3 6 10 16 12 14 11 10 3 2 2 6 3 6 9 3 6 4 3 10 16 17 11 9 8 8 8 8 7 5 4 2 1 4 6 9 13 16 17 19
7 10 27 26 23 20 17 13 12 17 18 4 3 6 9 1 3 4 4 6 3 6 11 15 16 18 18 16 13 11 11 11 11 10 8 8 9 9 11 13 12 19 21 20

GFSNW_850_spd_108.txt.gz
Wind_Speed
20 23 23 14 10 12 9 9 3 9 8 5 5 3 4 2 3 0 1 4 8 6 3 5 3 5 5 5 2 2 4 3 1 6 5 4 1 4 4 2 0 4 2 5
18 20 22 19 6 5 7 4 4 9 6 3 1 6 3 6 3 4 3 3 4 3 2 2 4 4 3 4 1 3 3 2 1 1 2 2 4 5 6 2 4 6 1 5
15 18 19 20 14 8 5 4 3 7 9 4 2 2 4 3 1 2 2 3 3 4 4 2 4 5 3 4 1 1 1 2 4 4 1 2 4 6 8 7 3 4 8 8
13 15 16 17 17 11 4 5 2 1 1 5 3 2 2 2 2 1 2 2 3 3 3 3 4 2 5 5 5 2 2 3 3 7 11 10 10 10 10 13 13 5 4 7
12 13 14 14 15 11 12 4 3 3 3 3 8 2 3 4 1 4 2 3 2 6 3 5 3 2 4 3 6 4 4 3 3 5 10 7 10 11 15 17 16 18 17 22
14 12 12 12 13 11 8 7 4 3 1 2 3 3 4 5 5 2 4 6 5 2 5 8 10 10 11 5 2 6 3 1 4 5 6 8 9 15 18 11 8 17 16 15
16 13 12 12 11 11 9 8 4 3 1 1 2 1 2 2 3 3 2 2 3 1 9 12 9 7 10 10 8 7 2 2 0 4 6 3 7 3 2 9 13 11 10 7
17 15 13 12 11 7 5 5 3 2 3 1 5 5 3 4 7 4 4 3 5 6 6 3 3 2 2 5 5 6 7 3 2 1 3 9 7 1 3 4 6 10 13 6
15 14 12 12 12 11 5 2 3 1 4 1 1 3 2 2 2 4 5 4 4 1 3 1 2 2 2 2 3 2 3 4 1 2 3 5 1 3 2 1 5 4 6 6
12 14 12 11 11 13 10 4 2 1 3 5 4 2 2 1 4 3 2 3 1 2 2 2 3 3 3 3 4 5 3 4 8 6 5 8 2 8 5 1 5 2 4 5
12 12 12 11 10 9 10 7 6 4 4 9 8 10 6 3 3 3 1 2 2 2 2 2 3 2 3 1 5 6 8 6 5 4 5 9 13 5 7 4 5 6 6 6
15 11 12 12 10 8 8 8 7 8 8 8 11 17 13 18 12 4 2 3 4 3 2 2 2 3 3 4 4 0 4 7 4 9 6 6 23 14 17 9 6 7 8 7
13 15 12 11 12 10 9 9 10 11 7 12 9 5 8 17 23 23 7 6 5 2 4 5 2 4 2 3 6 4 5 11 4 1 7 14 23 28 27 21 20 15 14 16
14 14 15 13 12 10 9 11 11 9 5 4 5 5 7 9 10 15 23 19 6 6 3 3 3 2 6 3 5 5 7 2 4 8 17 25 35 35 28 27 22 16 20 20
13 14 15 16 13 13 12 11 9 8 5 4 9 18 21 13 15 13 15 20 17 6 3 4 3 4 4 6 4 13 16 15 9 9 12 12 7 9 8 10 18 13 16 17
13 14 13 14 15 14 12 4 4 5 0 4 4 6 9 8 6 7 12 12 11 9 5 5 6 8 3 4 4 7 22 34 32 13 15 17 11 10 12 12 13 14 18 21
13 14 13 13 14 14 6 4 4 4 5 3 7 4 4 3 1 3 5 10 5 8 4 7 8 6 6 3 11 4 13 23 30 33 28 20 20 18 14 16 16 16 18 18
12 12 13 14 14 17 13 14 15 13 7 5 2 4 3 3 1 2 4 3 6 7 5 4 3 3 7 7 12 16 20 24 27 18 23 27 24 21 17 17 17 19 19 16
10 12 12 13 13 5 4 7 7 9 11 3 3 2 2 4 2 1 3 3 3 5 4 5 6 3 8 11 19 23 25 15 14 15 14 22 27 27 22 21 20 19 18 17
8 10 5 4 2 5 10 4 1 4 6 5 6 3 1 2 2 2 2 3 2 3 3 3 3 5 23 34 30 30 31 25 19 19 21 19 20 22 18 16 19 22 19 14
4 3 5 8 8 5 3 2 2 4 4 6 5 5 3 5 3 3 4 2 2 2 2 1 3 4 5 7 17 17 15 13 25 26 24 21 21 20 19 21 22 17 14 14
4 4 7 8 4 4 2 2 2 4 4 5 4 4 6 3 5 1 3 2 0 5 1 1 3 4 10 17 21 13 10 9 9 11 11 13 16 17 20 17 12 10 11 10
5 4 3 3 4 4 5 6 4 3 6 7 6 3 5 4 3 3 0 3 5 1 0 4 5 15 21 25 16 11 12 13 11 7 8 8 8 6 5 4 4 7 8 10
3 4 5 5 5 5 5 4 3 5 6 10 9 3 4 3 3 4 3 3 2 2 4 6 3 13 23 18 13 13 11 10 8 6 5 5 5 4 4 2 4 8 9 11
5 5 6 8 10 8 5 11 5 2 6 10 5 2 5 3 2 3 2 1 4 5 5 3 6 19 16 16 15 13 12 11 10 9 7 3 3 3 3 5 7 7 11 14
7 10 6 7 2 3 8 11 10 7 8 8 3 2 1 5 3 5 8 4 7 5 4 10 13 17 15 16 17 16 15 13 13 11 9 8 8 8 7 7 8 10 15 20
7 11 21 16 9 10 10 9 11 9 14 3 5 6 10 1 3 4 4 6 5 11 15 18 21 16 17 19 22 22 18 15 13 13 14 16 17 17 17 16 11 12 16 22

GFSNW_850_spd_111.txt.gz
Wind_Speed
17 18 18 13 9 11 8 8 4 11 6 5 4 2 0 1 2 4 2 4 6 2 2 4 4 3 2 5 6 2 2 2 3 8 5 6 5 6 5 4 4 3 3 6
15 16 15 13 8 4 3 5 4 11 8 3 2 0 2 3 3 3 4 3 2 1 2 3 3 3 3 5 1 3 2 2 2 6 6 3 4 5 5 3 3 6 4 5
13 14 15 15 10 6 5 4 2 4 5 6 1 2 2 2 2 2 4 1 3 2 0 0 4 3 3 6 1 1 2 2 5 7 4 3 4 6 7 6 3 3 8 7
12 12 13 13 11 7 3 3 2 1 1 3 4 3 3 2 2 3 0 1 4 2 1 1 2 3 2 3 4 1 3 3 2 6 8 5 7 8 8 11 12 7 3 8
12 12 12 11 11 7 7 4 3 2 3 2 4 3 3 4 3 4 3 3 4 3 3 3 1 2 3 4 2 3 1 3 4 5 7 5 7 11 15 15 15 16 16 25
14 12 12 12 10 6 6 6 5 2 1 2 3 1 2 2 1 1 1 1 3 3 3 3 5 6 6 4 5 5 5 2 3 5 6 8 7 9 18 9 8 21 16 24
16 14 13 13 13 9 7 6 3 2 2 2 3 3 2 2 2 2 2 2 1 1 6 12 8 9 9 8 7 6 2 2 2 4 6 2 6 5 7 16 11 19 13 8
15 15 13 12 12 10 5 3 2 1 2 4 3 4 3 3 5 3 3 3 4 7 7 3 4 3 1 3 4 5 5 3 2 1 2 9 8 4 6 7 8 16 20 19
13 14 13 12 11 12 6 4 3 1 2 3 1 4 5 3 2 1 3 3 5 2 2 2 0 3 2 1 1 4 2 3 3 0 3 6 5 2 3 3 6 5 13 10
14 13 14 12 10 10 9 6 4 2 2 1 2 2 2 2 2 2 1 1 1 0 2 0 2 3 2 2 3 4 2 2 6 4 4 9 8 5 5 1 6 3 4 7
14 12 11 12 11 9 8 6 7 4 4 8 6 5 5 3 2 3 0 2 1 2 1 2 3 2 3 1 3 6 7 6 4 4 4 9 10 6 7 5 2 6 7 8
10 12 12 11 10 9 8 6 7 8 7 6 8 10 12 13 12 3 5 2 3 5 2 1 0 2 1 3 4 2 3 7 5 10 8 7 21 10 14 9 10 11 10 10
9 9 10 11 12 12 10 9 8 10 6 9 6 1 6 9 16 15 5 5 6 5 4 4 2 4 3 3 6 3 4 9 5 1 7 17 28 31 29 26 21 20 20 20
11 11 11 11 11 11 12 12 10 6 4 3 3 4 5 5 7 10 19 22 9 5 3 3 3 3 9 4 5 5 9 3 5 8 21 20 27 27 29 29 28 26 26 23
12 11 12 13 14 14 14 8 6 3 2 3 8 16 13 8 7 9 13 17 16 7 1 2 3 5 3 4 2 10 16 10 7 10 25 16 18 12 8 10 11 13 15 16
11 10 11 12 12 13 15 2 4 6 4 5 3 4 5 7 5 4 8 8 11 9 5 4 6 7 4 3 4 10 16 27 32 24 31 25 22 19 15 15 16 15 17 18
11 10 10 10 11 11 6 5 6 8 8 4 7 6 3 3 1 0 3 6 5 6 4 5 4 3 6 3 4 4 7 16 23 29 31 26 31 25 19 16 14 15 18 17
11 9 10 10 12 13 11 11 11 9 6 4 1 4 4 0 1 0 2 3 4 6 4 3 3 3 5 6 15 24 25 26 28 26 20 28 27 25 25 24 22 19 17 19
9 9 9 12 12 4 1 6 8 5 8 3 3 2 3 1 1 1 2 3 2 2 3 4 2 3 6 8 17 26 32 21 31 35 31 27 22 22 22 21 21 21 17 16
4 4 3 4 3 4 9 2 2 4 6 5 5 1 2 3 2 2 2 3 2 2 2 2 2 5 18 26 20 18 26 23 24 24 19 20 22 22 21 22 18 15 17 19
4 4 5 4 7 6 2 0 1 3 3 6 6 7 2 4 2 3 2 2 1 2 1 2 3 4 5 11 23 23 18 16 16 15 18 22 22 22 20 16 13 17 14 12
2 3 5 4 3 1 1 2 1 3 3 4 5 5 7 3 4 1 1 1 0 5 0 1 3 4 12 23 27 17 14 16 16 14 14 13 13 13 14 13 8 4 6 8
4 3 3 2 3 2 4 4 3 2 4 7 6 2 3 3 3 2 2 1 4 1 1 4 5 13 19 21 16 14 13 14 14 13 12 12 10 7 4 1 1 2 4 6
2 3 4 5 4 5 5 4 4 3 3 8 7 3 2 3 2 2 2 3 2 3 3 6 3 10 15 19 17 18 18 17 17 16 13 10 8 6 4 3 3 5 6 6
4 4 5 7 8 5 1 8 4 3 5 8 3 1 2 1 1 3 0 1 4 6 5 3 8 9 14 17 18 23 23 23 22 18 15 13 11 7 5 5 5 5 5 5
6 8 4 7 4 3 6 9 7 7 7 6 2 2 1 4 3 4 7 5 7 5 4 12 10 10 21 21 21 30 31 31 30 27 22 16 14 16 17 17 15 13 14 14
6 8 14 12 6 9 5 5 4 8 10 3 4 5 11 0 3 4 5 6 6 26 27 28 18 26 31 29 33 39 38 36 37 33 31 27 21 21 22 24 26 26 24 24

GFSNW_850_spd_114.txt.gz
Wind_Speed
12 13 11 5 6 6 3 3 3 10 8 4 4 2 2 3 3 2 2 0 3 2 2 2 2 3 4 4 4 1 2 4 4 8 4 6 4 7 5 4 4 3 2 7
10 11 12 9 2 1 1 3 3 10 9 3 3 2 3 3 4 3 4 4 4 3 2 3 2 2 2 3 3 2 1 1 2 6 5 2 4 5 4 3 2 5 4 6
8 10 10 10 4 2 3 1 2 4 5 4 4 2 2 2 2 3 3 3 4 4 4 3 2 2 1 2 3 4 3 0 4 6 4 4 5 6 7 6 3 3 9 8
9 8 9 11 6 1 2 2 1 1 1 2 3 2 1 2 3 3 3 3 3 2 1 2 2 2 1 1 2 2 3 3 2 6 9 6 8 9 9 12 16 9 5 12
12 9 8 9 8 3 1 1 3 3 3 0 2 2 3 3 1 0 1 3 3 3 2 3 5 3 3 5 1 4 2 3 2 5 4 5 8 14 16 17 16 18 17 24
15 11 10 7 7 5 2 3 2 1 1 1 3 3 4 4 4 3 3 3 1 2 2 3 2 4 2 1 5 5 3 1 2 5 3 8 9 15 19 7 6 20 16 26
16 13 11 11 7 4 4 3 1 2 2 1 3 2 2 4 3 2 2 3 3 2 3 8 4 5 6 6 8 6 4 2 2 4 6 2 5 0 4 13 14 17 16 19
15 15 12 10 11 6 2 2 0 1 1 2 2 1 2 1 2 2 3 3 3 4 4 2 3 3 1 0 3 5 4 4 2 1 2 9 6 2 5 6 8 13 20 20
14 14 13 11 9 9 4 3 1 1 3 3 1 2 1 2 1 4 2 2 2 1 3 3 0 3 4 2 1 4 4 4 3 0 2 5 5 1 3 3 6 4 10 9
13 12 12 12 10 8 5 6 4 1 2 4 4 3 4 3 1 1 3 1 1 0 2 2 2 3 1 2 4 5 2 1 5 4 4 9 9 6 1 2 6 5 3 8
9 12 12 11 10 9 7 4 4 2 3 5 6 6 4 4 4 4 3 2 1 2 1 2 3 3 3 1 4 6 7 6 4 3 3 9 10 5 7 5 3 5 7 8
6 7 11 12 12 10 8 7 7 7 5 4 5 7 10 11 8 2 4 2 3 5 3 1 1 3 1 4 3 2 3 7 5 11 7 7 15 11 13 11 16 19 18 19
6 5 7 9 11 11 11 10 10 9 5 6 3 2 5 10 14 17 6 4 4 3 3 4 1 4 3 4 5 2 4 8 4 1 9 17 26 29 31 35 35 37 33 26
11 7 6 7 10 12 13 13 9 4 3 2 1 3 4 3 4 7 16 17 10 4 5 4 2 3 7 3 4 4 7 5 4 6 19 27 27 18 18 22 14 16 19 22
13 13 9 8 9 12 14 8 4 5 4 3 5 11 8 4 6 9 12 15 14 8 4 2 3 4 2 3 1 4 11 7 5 8 13 12 22 26 16 18 26 18 22 23
13 12 12 8 10 9 12 4 1 5 10 6 3 3 3 5 2 2 4 6 9 7 4 4 5 4 3 2 3 11 15 18 23 17 26 32 38 41 39 29 28 27 19 17
13 13 11 8 9 9 5 6 7 12 10 4 6 4 1 2 1 1 2 6 5 5 4 4 3 2 4 3 4 5 4 15 29 31 31 30 24 22 26 25 20 17 18 20
11 11 9 9 10 12 11 12 11 8 5 4 1 3 2 1 0 0 2 3 4 5 2 2 2 3 3 5 11 22 24 29 27 16 21 31 38 34 27 21 21 21 21 20
8 7 8 9 9 5 3 5 8 7 7 3 3 2 2 1 0 0 1 1 0 1 1 3 2 2 6 8 16 24 28 21 30 30 26 19 16 17 17 18 18 20 20 17
4 1 3 5 3 4 8 4 2 3 5 5 4 4 2 2 0 1 2 1 1 2 2 2 2 4 18 25 17 16 28 22 17 21 27 29 26 22 21 19 17 17 15 15
4 2 3 5 5 4 1 2 2 3 2 4 5 7 2 3 2 2 2 2 1 1 1 1 2 4 6 5 15 19 14 16 17 18 19 19 19 21 19 17 15 14 13 11
5 3 5 4 2 1 2 2 2 3 3 4 3 4 5 2 3 2 2 2 1 4 1 2 3 4 8 13 17 17 18 19 19 18 18 18 17 17 15 12 8 5 5 7
3 2 3 3 4 2 4 4 3 3 4 7 6 2 2 3 3 1 2 2 5 3 1 4 5 9 8 11 16 19 21 24 26 27 25 23 20 17 14 9 5 3 4 4
3 3 4 5 4 5 4 4 4 3 3 10 8 4 2 3 2 3 1 3 2 2 3 6 3 4 6 16 19 24 28 30 30 31 32 31 29 23 17 14 10 8 8 8
3 4 4 5 8 5 5 8 3 2 7 9 5 2 1 1 1 3 1 1 4 5 5 3 2 1 6 23 29 24 30 31 36 36 35 32 31 31 29 22 20 21 20 19
5 7 4 7 2 8 11 9 9 9 7 5 2 3 3 4 3 4 7 4 7 5 4 8 13 13 18 32 31 32 34 39 40 38 35 32 31 31 32 29 29 28 29 28
5 7 15 13 5 7 9 8 5 10 11 3 3 3 10 0 3 4 5 6 4 12 29 34 43 36 40 38 36 41 41 40 38 39 38 35 35 35 35 35 31 32 34 32

GFSNW_850_spd_117.txt.gz
Wind_Speed
9 10 13 8 5 4 4 4 2 7 5 5 3 2 1 1 3 3 2 1 3 2 2 2 2 2 1 1 2 2 1 4 3 7 2 5 3 5 5 3 3 2 3 7
9 9 10 12 5 4 5 3 2 7 3 3 2 1 2 2 2 3 2 2 2 1 2 3 2 2 1 3 3 4 2 1 2 6 4 1 4 5 4 4 2 5 4 6
8 9 9 10 8 2 1 2 2 3 4 4 5 3 2 2 1 2 2 2 3 3 3 4 3 2 0 2 3 3 2 2 5 6 4 4 4 5 6 6 3 3 8 8
9 8 9 8 5 1 1 1 0 2 2 4 3 2 1 2 2 1 2 2 2 2 2 2 3 2 1 1 4 2 3 3 3 5 8 5 5 5 7 11 13 8 1 9
13 10 8 8 4 3 2 2 2 3 3 3 2 4 0 3 1 1 2 3 1 1 3 5 7 5 3 4 1 3 2 2 2 5 4 6 8 11 12 14 15 17 18 28
14 13 10 7 4 2 2 4 5 2 1 1 2 2 1 1 1 1 1 0 1 2 2 1 0 2 2 2 6 5 4 2 2 5 3 6 7 8 15 7 7 14 14 26
13 14 13 11 6 2 1 3 4 3 2 2 3 2 2 1 1 1 1 1 1 1 1 4 2 2 3 3 4 4 4 3 1 4 6 3 5 5 6 14 9 16 15 19
13 13 13 13 10 7 3 1 1 2 2 3 2 4 3 2 2 2 3 3 3 3 2 2 3 3 1 1 1 4 2 3 1 1 2 8 4 2 5 6 6 7 17 18
13 12 13 12 12 9 7 6 3 2 0 6 4 5 5 4 3 3 3 3 3 2 3 2 0 2 1 1 2 6 5 4 3 1 2 4 3 1 2 2 5 2 6 10
10 11 11 11 11 10 8 7 8 4 4 2 4 2 3 6 3 2 2 1 1 1 1 2 3 3 3 3 5 5 3 1 5 4 4 9 7 9 2 2 5 3 3 6
8 8 9 9 10 11 10 6 7 6 3 5 5 5 3 3 3 3 4 2 1 2 1 2 2 2 2 1 2 5 6 6 4 3 3 8 10 5 6 4 5 8 15 20
6 7 7 8 9 10 10 9 9 9 5 4 4 8 9 8 5 2 5 1 4 5 3 1 2 2 0 2 3 1 3 6 4 9 7 4 10 11 7 13 18 29 36 33
6 7 7 7 7 8 9 12 12 11 4 5 4 5 11 13 13 13 4 3 4 4 3 5 2 4 4 3 5 1 4 6 4 1 4 9 20 26 30 25 25 29 24 23
7 8 9 9 8 9 11 12 10 6 3 2 1 3 5 5 6 7 15 11 3 2 1 0 2 2 6 3 2 3 4 4 3 7 15 21 12 13 16 29 27 26 34 30
9 10 10 8 8 9 11 9 2 6 6 2 5 9 9 7 8 10 12 12 12 7 3 2 3 3 1 2 1 4 8 5 4 5 9 7 23 32 41 35 28 27 27 28
10 10 10 9 8 8 10 2 1 3 13 6 2 3 3 3 2 3 5 7 8 6 4 3 3 3 2 1 3 11 11 14 12 8 25 34 37 36 26 23 32 29 25 23
11 11 10 8 7 7 5 5 6 14 12 5 5 2 2 1 1 1 2 6 4 5 4 3 1 2 3 2 3 3 5 13 24 27 17 26 17 28 32 26 24 21 20 18
10 10 9 7 7 10 10 10 11 9 3 4 1 3 1 2 2 2 3 3 3 3 2 2 3 2 2 4 10 19 19 26 24 12 26 23 25 28 26 22 19 19 20 19
9 8 6 6 9 5 4 3 5 7 5 2 2 1 3 2 2 3 2 2 1 2 1 2 2 2 5 8 13 16 19 16 24 26 23 20 24 25 26 26 21 20 21 18
7 5 3 3 3 4 5 3 1 2 4 5 4 4 3 3 2 1 2 1 1 1 2 2 2 3 17 19 16 11 14 11 13 20 31 32 33 31 31 28 23 21 20 18
8 6 4 3 2 3 1 1 1 2 3 5 5 8 2 4 2 2 2 2 1 1 2 1 2 3 5 2 7 7 11 15 17 20 23 24 26 29 30 29 24 19 14 12
8 5 3 2 1 1 1 2 1 3 3 3 3 3 6 2 2 1 3 3 2 4 0 1 3 4 3 3 10 12 15 21 24 25 28 28 27 28 29 29 26 21 17 13
7 3 3 3 2 2 4 4 2 2 4 5 4 1 2 2 3 2 1 1 3 4 1 4 5 3 3 10 17 21 22 26 26 26 29 30 30 28 27 27 25 26 24 20
3 5 2 4 4 4 3 4 3 2 3 8 7 4 1 2 2 2 1 2 3 2 3 6 3 9 9 10 22 23 26 30 32 33 34 33 30 30 28 29 30 29 29 29
4 4 4 5 7 5 5 7 6 2 5 8 4 4 1 2 1 2 1 2 4 5 5 3 4 5 9 14 23 23 26 29 32 32 33 34 35 35 35 32 32 33 33 33
5 5 3 6 3 9 13 12 11 5 6 4 2 3 3 3 3 3 6 2 6 4 3 2 13 21 19 28 26 31 35 36 33 32 32 34 35 37 39 38 36 37 36 36
4 6 13 10 3 3 4 6 7 7 7 2 3 2 8 1 2 3 4 5 3 6 20 33 39 43 45 43 40 42 44 42 37 36 36 37 38 40 41 41 38 35 35 34